Date StartTime U_cm/s V_cm/s W_cm/s Ustd_cm/s Vstd_cm/s Wstd_cm/s Uvar_(cm/s)^2 Vvar_(cm/s)^2 Wvar_(cm/s)^2 KE_(m/s)^2 TurbulentKE_(m/s)^2 HorizWindSpeed_cm/s FrictionSpeec_cm/s DragCoef SpeedOfSound_m/s SonicTemperature_C Pressure_mb 
01/29/2015  00:00:00     -115.500      -64.204       -8.807       34.259       18.874       17.963     1173.657      356.217      322.684        0.970        0.093      132.145       16.931        0.016      334.264        4.123      868.144
01/29/2015  00:01:00      -95.729      -34.779      -18.037       30.551       27.886       16.164      933.355      777.618      261.267        0.634        0.099      101.851       12.114        0.014      334.238        4.078      868.137
01/29/2015  00:02:00     -111.420      -36.919      -15.037       17.884       24.247       15.434      319.824      587.928      238.193        0.757        0.057      117.377        2.875        0.001      334.257        4.110      868.128
01/29/2015  00:03:00     -125.440      -26.126      -16.813       24.867       25.646       18.701      618.381      657.740      349.735        0.916        0.081      128.132       12.714        0.010      334.195        4.005      868.115
01/29/2015  00:04:00      -90.189      -49.385      -14.495       27.929       25.180       19.092      780.044      634.020      364.495        0.628        0.089      102.825       16.166        0.025      334.204        4.021      868.106
01/29/2015  00:05:00     -135.693      -24.580       -8.278       48.606       41.693       23.634     2362.590     1738.345      558.564        1.187        0.233      137.901       22.262        0.026      334.171        3.967      868.100
01/29/2015  00:06:00     -122.931      -49.998      -11.184       30.263       34.470       20.559      915.851     1188.189      422.690        1.013        0.126      132.709       12.712        0.009      334.162        3.953      868.095
01/29/2015  00:07:00      -94.904      -26.678       -7.411       33.271       35.406       23.566     1106.930     1253.595      555.341        0.634        0.146       98.583       19.298        0.038      334.225        4.057      868.093
01/29/2015  00:08:00      -97.587      -25.640       -9.254       29.648       23.384       18.486      878.989      546.813      341.726        0.602        0.088      100.899       10.634        0.011      334.242        4.087      868.099
01/29/2015  00:09:00     -103.736      -40.768      -23.135       36.613       30.391       24.897     1340.545      923.631      619.876        0.792        0.144      111.459        8.959        0.006      334.184        3.989      868.096
01/29/2015  00:10:00     -113.631      -29.289      -18.707       35.672       26.581       21.777     1272.475      706.541      474.223        0.829        0.123      117.345       14.642        0.016      334.182        3.987      868.083
01/29/2015  00:11:00      -92.177      -24.543      -19.880       47.155       26.197       18.716     2223.610      686.293      350.270        0.638        0.163       95.388       20.031        0.044      334.118        3.879      868.072
01/29/2015  00:12:00      -81.845      -18.468      -11.634       26.790       20.118       16.617      717.729      404.752      276.114        0.429        0.070       83.902       11.373        0.018      334.133        3.904      868.061
01/29/2015  00:13:00      -75.206      -26.029      -10.350       24.016       18.914       15.025      576.791      357.736      225.743        0.380        0.058       79.583       12.924        0.026      334.219        4.048      868.063
01/29/2015  00:14:00      -75.910      -30.392      -21.806       19.741       25.772       15.822      389.719      664.204      250.347        0.423        0.065       81.768       12.756        0.024      334.342        4.252      868.057
01/29/2015  00:15:00      -59.383      -31.211      -18.966       21.885       22.576       16.884      478.937      509.655      285.079        0.307        0.064       67.086        8.057        0.014      334.309        4.198      868.049
01/29/2015  00:16:00      -95.113      -49.098      -11.600       20.719       19.297       15.650      429.260      372.364      244.927        0.632        0.052      107.038       10.485        0.010      334.351        4.268      868.044
01/29/2015  00:17:00     -113.945      -15.019       -9.757       22.934       22.136       16.987      525.979      489.992      288.567        0.730        0.065      114.930       16.373        0.020      334.272        4.135      868.023
01/29/2015  00:18:00      -79.632      -33.807       -3.377       26.605       35.895       21.316      707.836     1288.483      454.357        0.497        0.123       86.511       13.448        0.024      334.227        4.060      868.010
01/29/2015  00:19:00     -113.965      -19.505       -6.779       22.296       20.474       19.705      497.093      419.189      388.282        0.736        0.065      115.622       11.061        0.009      334.205        4.024      868.003
01/29/2015  00:20:00      -96.934      -33.522      -19.720       41.667       20.674       21.514     1736.114      427.416      462.847        0.677        0.131      102.567       20.365        0.039      334.212        4.036      868.020
01/29/2015  00:21:00     -101.505      -28.629      -17.104       18.745       23.294       16.848      351.380      542.591      283.843        0.630        0.059      105.465        9.133        0.007      334.204        4.021      868.026
01/29/2015  00:22:00      -98.714      -45.413      -14.345       17.760       29.280       17.238      315.404      857.313      297.143        0.674        0.073      108.659        4.613        0.002      334.282        4.152      868.016
01/29/2015  00:23:00     -109.635      -34.341      -19.375       15.640       22.352       14.011      244.617      499.590      196.307        0.726        0.047      114.887        6.520        0.003      334.184        3.990      868.010
01/29/2015  00:24:00      -91.415      -55.789      -20.827       32.013       26.489       17.866     1024.820      701.670      319.206        0.697        0.102      107.094        6.821        0.004      334.208        4.029      867.999
01/29/2015  00:25:00      -43.023      -54.433       -6.624       32.688       33.983       25.828     1068.520     1154.814      667.063        0.387        0.145       69.383       19.546        0.079      334.222        4.052      867.991
01/29/2015  00:26:00      -71.286      -32.728      -15.913       28.683       28.411       23.291      822.696      807.191      542.480        0.429        0.109       78.440       17.482        0.050      334.210        4.031      867.985
01/29/2015  00:27:00     -108.988      -27.299      -19.546       34.073       24.568       18.327     1160.999      603.599      335.894        0.755        0.105      112.354       13.021        0.013      334.115        3.875      867.984
01/29/2015  00:28:00      -93.828      -48.109       -8.334       26.378       30.989       19.045      695.802      960.297      362.704        0.660        0.101      105.442        8.356        0.006      334.092        3.837      867.980
01/29/2015  00:29:00     -100.589      -24.633       -4.084       26.963       22.529       21.736      726.994      507.574      472.442        0.622        0.085      103.561       16.463        0.025      334.083        3.820      867.973
01/29/2015  00:30:00     -123.237      -18.340      -12.659       37.641       28.332       19.307     1416.840      802.704      372.771        0.914        0.130      124.594       17.584        0.020      334.048        3.765      867.965
01/29/2015  00:31:00      -78.675      -45.504       -8.702       49.948       29.347       21.535     2494.799      861.238      463.747        0.608        0.191       90.886       23.786        0.068      334.088        3.830      867.969
01/29/2015  00:32:00      -37.535      -49.597       -0.996       40.224       30.237       27.680     1617.990      914.298      766.196        0.358        0.165       62.199       22.220        0.128      334.120        3.881      867.970
01/29/2015  00:33:00     -103.454      -33.716      -19.970       28.658       26.797       17.638      821.288      718.087      311.111        0.704        0.093      108.809       14.711        0.018      334.077        3.812      867.975
01/29/2015  00:34:00     -114.925      -28.207      -12.188       23.166       23.622       14.827      536.680      558.000      219.837        0.773        0.066      118.335       11.269        0.009      333.980        3.651      867.982
01/29/2015  00:35:00      -78.135      -36.422       -7.493       20.444       25.557       17.851      417.942      653.176      318.647        0.444        0.069       86.207       12.170        0.020      334.040        3.750      867.994
01/29/2015  00:36:00      -83.119      -39.629       -9.302       23.382       16.255       17.373      546.705      264.225      301.830        0.484        0.056       92.083       11.870        0.017      334.046        3.762      867.996
01/29/2015  00:37:00      -85.536      -29.396      -14.077       23.645       17.851       15.086      559.097      318.668      227.599        0.474        0.055       90.447       11.752        0.017      334.025        3.724      867.985
01/29/2015  00:38:00      -93.584      -40.375      -14.688       21.110       22.843       19.572      445.646      521.808      383.065        0.598        0.068      101.923       11.082        0.012      333.998        3.682      867.975
01/29/2015  00:39:00     -105.417      -25.374      -23.067       23.254       13.556       13.708      540.747      183.755      187.913        0.660        0.046      108.428       12.390        0.013      333.985        3.660      867.972
01/29/2015  00:40:00      -95.379      -30.944      -14.136       20.427       21.211       15.301      417.262      449.921      234.121        0.568        0.055      100.273       10.684        0.011      334.021        3.719      867.979
01/29/2015  00:41:00     -102.289      -38.896      -10.556       20.967       20.490       16.295      439.620      419.835      265.541        0.661        0.056      109.434        9.066        0.007      333.999        3.681      867.970
01/29/2015  00:42:00      -92.226      -49.221      -11.331       23.975       17.039       16.395      574.808      290.331      268.788        0.610        0.057      104.539       13.149        0.016      333.987        3.663      867.965
01/29/2015  00:43:00      -96.331      -32.565       -6.466       27.588       23.722       19.708      761.093      562.716      388.397        0.605        0.086      101.686       15.186        0.022      333.977        3.648      867.978
01/29/2015  00:44:00     -101.494      -44.852      -12.744       17.269       20.325       14.032      298.234      413.098      196.897        0.669        0.045      110.963        7.585        0.005      333.999        3.683      867.984
01/29/2015  00:45:00      -66.622      -29.569      -14.524       36.035       22.188       16.182     1298.501      492.298      261.848        0.379        0.103       72.889        7.033        0.009      334.025        3.726      867.984
01/29/2015  00:46:00      -93.174      -14.497      -14.715       20.195       18.261       16.728      407.828      333.447      279.842        0.506        0.051       94.295        6.470        0.005      334.022        3.721      867.979
01/29/2015  00:47:00      -59.780      -21.576       -9.589       23.756       18.743       16.201      564.325      351.317      262.483        0.265        0.059       63.554       11.756        0.034      334.069        3.798      867.992
01/29/2015  00:48:00      -38.860      -19.911       -9.177       15.681       10.928       11.837      245.895      119.412      140.126        0.125        0.025       43.664        7.626        0.031      334.100        3.849      868.003
01/29/2015  00:49:00      -30.958      -13.258        6.776       28.611       10.445       12.362      818.608      109.094      152.811        0.113        0.054       33.677       14.175        0.177      334.074        3.807      868.004
01/29/2015  00:50:00      -68.968      -51.095       -4.755       29.279       23.635       18.695      857.249      558.635      349.495        0.458        0.088       85.833       15.497        0.033      334.034        3.740      868.000
01/29/2015  00:51:00      -91.992      -48.110       -1.401       28.096       20.274       15.678      789.393      411.017      245.804        0.611        0.072      103.813       16.385        0.025      333.952        3.606      867.999
01/29/2015  00:52:00     -118.922      -32.745       -5.744       23.373       24.181       13.999      546.309      584.713      195.978        0.829        0.066      123.348       13.900        0.013      333.920        3.552      867.995
01/29/2015  00:53:00     -100.191      -10.368       -9.822       35.268       20.874       20.524     1243.797      435.744      421.237        0.617        0.105      100.726       21.677        0.046      333.978        3.649      867.996
01/29/2015  00:54:00      -85.042      -21.468       -5.257       25.260       18.115       13.060      638.058      328.146      170.577        0.443        0.057       87.709       10.079        0.013      333.933        3.575      868.003
01/29/2015  00:55:00     -117.817      -16.062      -10.800       18.207       13.145       10.558      331.494      172.785      111.461        0.744        0.031      118.907        6.365        0.003      333.982        3.655      868.005
01/29/2015  00:56:00     -117.030      -47.946       -8.328        9.410       13.055        8.847       88.550      170.425       78.278        0.820        0.017      126.471        5.391        0.002      334.022        3.721      867.997
01/29/2015  00:57:00      -85.772      -58.307       -0.326       40.068       26.463       16.008     1605.441      700.294      256.252        0.666        0.128      103.713       11.513        0.012      334.001        3.688      867.987
01/29/2015  00:58:00      -68.449      -48.219        6.287       50.424       35.344       25.807     2542.582     1249.220      666.021        0.575        0.223       83.728       25.867        0.095      333.916        3.547      867.969
01/29/2015  00:59:00      -67.507      -55.566       -0.066       46.852       34.613       25.619     2195.135     1198.042      656.308        0.585        0.202       87.435       20.009        0.052      333.899        3.516      867.959
01/29/2015  01:00:00     -130.434      -63.594       -2.584       35.945       21.088       21.810     1292.050      444.695      475.688        1.164        0.111      145.111       17.683        0.015      333.892        3.505      867.960
01/29/2015  01:01:00     -128.604      -75.585        0.573       34.969       29.114       26.000     1222.842      847.635      676.020        1.250        0.137      149.171       23.175        0.024      333.861        3.453      867.972
01/29/2015  01:02:00     -107.546      -62.880       -3.023       26.213       26.455       16.554      687.141      699.883      274.034        0.859        0.083      124.580       10.818        0.008      333.875        3.477      867.997
01/29/2015  01:03:00     -111.746      -47.004       -7.023       32.123       31.283       17.852     1031.885      978.615      318.710        0.854        0.116      121.230       17.846        0.022      333.908        3.532      868.011
01/29/2015  01:04:00      -96.260      -42.342       -0.462       27.579       26.362       16.032      760.602      694.953      257.032        0.639        0.086      105.161       11.741        0.012      333.965        3.625      868.022
01/29/2015  01:05:00     -126.494      -57.103       -8.147       19.634       25.289       15.587      385.485      639.555      242.964        1.030        0.063      138.786       13.318        0.009      333.861        3.454      868.020
01/29/2015  01:06:00     -169.419      -60.335       -5.171       34.194       30.202       20.156     1169.260      912.141      406.277        1.743        0.124      179.842       18.823        0.011      333.833        3.407      868.016
01/29/2015  01:07:00     -129.154      -65.238       -1.953       42.119       24.142       23.123     1774.009      582.847      534.684        1.192        0.145      144.695       24.527        0.029      333.828        3.397      868.023
01/29/2015  01:08:00     -142.891      -52.528       -8.986       19.454       25.256       14.397      378.475      637.877      207.284        1.224        0.061      152.240        9.078        0.004      333.799        3.352      868.030
01/29/2015  01:09:00     -130.781      -42.234      -15.902       30.399       20.478       15.432      924.101      419.363      238.154        1.036        0.079      137.431       15.541        0.013      333.751        3.271      868.038
01/29/2015  01:10:00      -89.686      -57.942       -9.967       19.277       21.733       12.929      371.614      472.338      167.166        0.626        0.051      106.775        7.838        0.005      333.786        3.329      868.046
01/29/2015  01:11:00      -94.768      -37.735      -10.864       30.735       23.344       17.805      944.671      544.949      317.035        0.616        0.090      102.004       15.362        0.023      333.792        3.339      868.047
01/29/2015  01:12:00     -147.598      -28.444      -22.043       18.016       25.082       13.702      324.571      629.088      187.757        1.211        0.057      150.313        5.613        0.001      333.754        3.275      868.045
01/29/2015  01:13:00      -98.628      -42.554      -19.860       31.322       23.716       16.865      981.061      562.450      284.422        0.688        0.091      107.417       10.818        0.010      333.785        3.328      868.043
01/29/2015  01:14:00      -64.443      -21.557      -11.766       37.311       24.715       19.028     1392.129      610.820      362.057        0.356        0.118       67.953       13.811        0.041      333.862        3.456      868.041
01/29/2015  01:15:00      -95.041      -28.778      -17.744       19.065       20.648       14.552      363.458      426.321      211.760        0.559        0.050       99.302       11.695        0.014      333.792        3.340      868.046
01/29/2015  01:16:00      -59.824      -32.820      -18.040       23.422       21.733       12.617      548.604      472.317      159.177        0.308        0.059       68.235       12.499        0.034      333.841        3.421      868.051
01/29/2015  01:17:00      -51.745      -35.930        3.617       26.601       22.040       19.949      707.637      485.749      397.963        0.279        0.080       62.996       16.537        0.069      333.861        3.454      868.056
01/29/2015  01:18:00      -52.173      -25.391        0.232       31.603       20.832       16.463      998.770      433.963      271.044        0.254        0.085       58.024       11.090        0.037      333.940        3.586      868.066
01/29/2015  01:19:00      -64.907      -55.317      -18.135       30.228       27.768       22.552      913.728      771.039      508.594        0.490        0.110       85.281       12.038        0.020      333.853        3.440      868.067
01/29/2015  01:20:00     -105.593      -39.226      -14.790       48.513       25.150       23.421     2353.523      632.532      548.544        0.822        0.177      112.644       23.971        0.045      333.807        3.366      868.063
01/29/2015  01:21:00     -155.598      -29.920      -18.392       21.549       19.265       16.457      464.343      371.137      270.837        1.328        0.055      158.448       10.793        0.005      333.766        3.296      868.059
01/29/2015  01:22:00     -130.352      -32.024       -5.602       22.211       21.618       14.523      493.317      467.346      210.914        0.961        0.059      134.228       12.378        0.009      333.769        3.300      868.052
01/29/2015  01:23:00     -101.964      -47.057       -7.078       18.112       23.490       12.479      328.061      551.780      155.716        0.685        0.052      112.298        8.828        0.006      333.804        3.358      868.051
01/29/2015  01:24:00      -81.068      -44.363       -1.620       40.105       25.453       21.289     1608.446      647.841      453.203        0.563        0.135       92.413       14.991        0.026      333.823        3.392      868.066
01/29/2015  01:25:00     -100.386      -60.248       -4.746       26.113       24.810       17.726      681.870      615.557      314.224        0.767        0.081      117.078       13.145        0.013      333.764        3.292      868.074
01/29/2015  01:26:00      -92.078      -37.257       -3.688       30.361       22.004       19.971      921.788      484.172      398.837        0.584        0.090       99.330       16.918        0.029      333.753        3.274      868.081
01/29/2015  01:27:00      -60.761      -26.672       -1.719       24.315       16.793       13.185      591.198      282.010      173.832        0.273        0.052       66.358       12.273        0.034      333.768        3.299      868.086
01/29/2015  01:28:00      -71.465       -3.614       -6.650       30.110       35.546       14.038      906.642     1263.524      197.056        0.377        0.118       71.556       10.384        0.021      333.802        3.356      868.088
01/29/2015  01:29:00      -48.925        7.517      -10.809       24.456       25.256       12.262      598.072      637.862      150.367        0.198        0.069       49.499        9.632        0.038      333.977        3.646      868.083
01/29/2015  01:30:00      -48.172      -30.742       -4.399       23.115       14.623       15.754      534.312      213.825      248.199        0.214        0.050       57.146       11.024        0.037      333.873        3.475      868.086
01/29/2015  01:31:00      -36.072      -24.969       -3.344       18.999       13.950       13.947      360.943      194.611      194.513        0.134        0.038       43.871       11.740        0.072      333.822        3.390      868.083
01/29/2015  01:32:00      -13.572      -30.271       -4.368       31.883       12.447       11.067     1016.544      154.927      122.476        0.121        0.065       33.174        7.987        0.058      333.776        3.313      868.078
01/29/2015  01:33:00      -62.852      -34.046       -8.983       21.698       16.622       10.141      470.784      276.287      102.839        0.302        0.042       71.481        6.354        0.008      333.690        3.171      868.076
01/29/2015  01:34:00      -52.934      -27.288       -5.936       26.404       17.369       17.559      697.184      301.688      308.331        0.244        0.065       59.553       12.015        0.041      333.681        3.155      868.078
01/29/2015  01:35:00      -70.638      -32.886       -9.755       18.145       15.479        9.394      329.245      239.600       88.251        0.341        0.033       77.918        2.739        0.001      333.670        3.138      868.078
01/29/2015  01:36:00      -64.579      -27.874      -20.649       10.943       10.040        9.514      119.740      100.792       90.518        0.284        0.016       70.338        3.945        0.003      333.709        3.200      868.085
01/29/2015  01:37:00      -54.620      -23.053      -13.792       10.572       14.722        8.675      111.768      216.733       75.251        0.205        0.020       59.286        3.452        0.003      333.801        3.355      868.093
01/29/2015  01:38:00      -50.681       -7.224       -9.149       11.671       10.785        7.122      136.216      116.307       50.722        0.150        0.015       51.193        4.073        0.006      333.885        3.493      868.091
01/29/2015  01:39:00      -42.698      -12.049      -14.720        9.718        9.434        6.717       94.432       89.001       45.121        0.121        0.011       44.365        3.630        0.007      333.916        3.547      868.091
01/29/2015  01:40:00       -8.686      -13.633        1.448       12.119       12.622       12.500      146.870      159.316      156.259        0.036        0.023       16.165        7.722        0.228      334.088        3.831      868.089
01/29/2015  01:41:00       -8.694      -39.037       -0.835       14.837       15.210       12.754      220.122      231.355      162.670        0.111        0.031       39.994       12.000        0.090      333.901        3.520      868.083
01/29/2015  01:42:00      -12.305      -27.502       -0.006       17.293       16.146        9.547      299.054      260.690       91.140        0.078        0.033       30.129        8.818        0.086      333.932        3.571      868.087
01/29/2015  01:43:00      -50.067      -29.996       -9.707       20.388       14.873       11.217      415.677      221.197      125.825        0.213        0.038       58.365       13.487        0.053      333.833        3.408      868.082
01/29/2015  01:44:00      -60.346      -31.014      -11.608        9.111        9.641        7.361       83.006       92.944       54.189        0.248        0.012       67.849        5.428        0.006      333.783        3.323      868.089
01/29/2015  01:45:00      -64.290      -47.567       -6.359       25.921       15.413       13.234      671.883      237.563      175.134        0.376        0.054       79.974        9.344        0.014      333.746        3.262      868.089
01/29/2015  01:46:00      -96.546      -18.087       -6.772       13.124       15.007       11.482      172.229      225.211      131.843        0.511        0.026       98.226       10.750        0.012      333.728        3.233      868.095
01/29/2015  01:47:00      -92.384      -13.086      -13.487        8.532       12.054        8.461       72.792      145.290       71.595        0.459        0.014       93.306        4.103        0.002      333.750        3.270      868.091
01/29/2015  01:48:00      -55.577      -40.173       -4.752       17.058       12.962        9.754      290.960      168.026       95.147        0.264        0.028       68.576        7.687        0.013      333.770        3.303      868.094
01/29/2015  01:49:00      -92.223      -42.644       -3.583       18.096       23.787       12.092      327.451      565.821      146.224        0.569        0.052      101.605        9.131        0.008      333.790        3.337      868.094
01/29/2015  01:50:00     -108.715      -36.197      -11.432       12.743       20.774       11.659      162.377      431.575      135.930        0.699        0.036      114.582       11.152        0.009      333.829        3.402      868.083
01/29/2015  01:51:00     -106.173      -43.597       -6.897       23.450       23.097       18.731      549.908      533.449      350.864        0.733        0.072      114.776       15.545        0.018      333.769        3.301      868.083
01/29/2015  01:52:00      -97.135      -47.369        2.187       35.070       23.282       17.858     1229.900      542.040      318.901        0.689        0.105      108.069       18.520        0.029      333.763        3.291      868.093
01/29/2015  01:53:00     -115.155      -28.184      -11.727       20.368       23.481       13.059      414.873      551.355      170.546        0.766        0.057      118.554        9.912        0.007      333.738        3.250      868.100
01/29/2015  01:54:00     -110.013       -3.788      -11.789       19.492       12.578       11.727      379.956      158.215      137.526        0.647        0.034      110.079        8.856        0.006      333.692        3.173      868.100
01/29/2015  01:55:00     -118.923      -25.097       -9.444       20.490       18.060       14.780      419.831      326.167      218.459        0.791        0.048      121.542       13.349        0.012      333.610        3.038      868.099
01/29/2015  01:56:00     -120.334      -36.379      -16.193       15.751       15.361       10.481      248.091      235.953      109.860        0.833        0.030      125.713        7.246        0.003      333.623        3.058      868.112
01/29/2015  01:57:00      -58.436      -46.075       -4.734       28.135       21.029       14.630      791.564      442.239      214.045        0.350        0.072       74.415       11.321        0.023      333.666        3.130      868.115
01/29/2015  01:58:00      -49.553      -42.340       -3.701       12.107       15.681       13.448      146.575      245.895      180.860        0.242        0.029       65.178        7.828        0.014      333.712        3.206      868.118
01/29/2015  01:59:00      -26.299      -26.283        0.467       21.471       14.274       19.500      460.994      203.755      380.256        0.121        0.052       37.181       12.639        0.116      333.768        3.301      868.124
01/29/2015  02:00:00      -29.945      -26.029        9.383       34.985       22.193       17.906     1223.922      492.542      320.624        0.185        0.102       39.676       20.260        0.261      333.712        3.207      868.128
01/29/2015  02:01:00      -78.024      -45.976        0.996       29.141       20.282       16.449      849.220      411.367      270.558        0.487        0.077       90.562       11.745        0.017      333.649        3.103      868.131
01/29/2015  02:02:00      -98.106      -42.628       -5.837       16.937       17.235        9.117      286.873      297.036       83.123        0.607        0.033      106.967        5.698        0.003      333.636        3.083      868.124
01/29/2015  02:03:00      -71.578      -29.395      -10.837       14.915       12.882       10.921      222.461      165.943      119.264        0.331        0.025       77.379        7.258        0.009      333.625        3.064      868.118
01/29/2015  02:04:00      -73.253      -28.193       -7.672       14.302       10.204        7.945      204.540      104.130       63.130        0.330        0.019       78.491        5.288        0.005      333.681        3.155      868.126
01/29/2015  02:05:00      -38.324      -24.058       -0.631       25.503       12.303       11.192      650.426      151.352      125.265        0.149        0.046       45.250       11.515        0.065      333.746        3.263      868.144
01/29/2015  02:06:00      -30.396      -12.070        3.186       11.856       10.324        8.766      140.558      106.585       76.842        0.070        0.016       32.705        6.454        0.039      333.745        3.262      868.155
01/29/2015  02:07:00      -58.496      -22.804       -6.545       13.694       10.195       11.106      187.524      103.931      123.345        0.220        0.021       62.784        7.468        0.014      333.767        3.298      868.149
01/29/2015  02:08:00      -47.233      -12.815       -6.937       11.311       16.993        7.291      127.948      288.768       53.160        0.146        0.023       48.941        2.638        0.003      333.721        3.220      868.135
01/29/2015  02:09:00      -28.599        4.301       -8.984        6.758        5.788        7.538       45.665       33.498       56.825        0.053        0.007       28.921        4.133        0.020      333.686        3.165      868.133
01/29/2015  02:10:00      -29.980        3.428       -3.019        9.229       10.142        8.135       85.171      102.865       66.176        0.059        0.013       30.176        4.008        0.018      333.821        3.386      868.132
01/29/2015  02:11:00      -14.294        2.102        9.378        8.650        5.632        4.713       74.820       31.723       22.212        0.021        0.006       14.448        4.041        0.078      333.728        3.234      868.132
01/29/2015  02:12:00       11.462        8.050        9.954        9.328        7.355        8.059       87.015       54.101       64.952        0.025        0.010       14.006        7.099        0.257      333.765        3.293      868.128
01/29/2015  02:13:00        4.653       14.647        5.270        5.407       13.672        7.042       29.236      186.923       49.586        0.026        0.013       15.368        7.542        0.241      333.693        3.175      868.123
01/29/2015  02:14:00       13.068       23.807       -6.025        5.250        8.611        3.025       27.564       74.150        9.150        0.044        0.006       27.158        3.079        0.013      333.756        3.278      868.116
01/29/2015  02:15:00        0.394        7.115       -0.311        5.872        7.931        4.074       34.486       62.908       16.601        0.008        0.006        7.126        4.200        0.347      333.762        3.290      868.114
01/29/2015  02:16:00        9.417        3.154       -3.895       10.781        4.649        5.627      116.232       21.612       31.668        0.014        0.008        9.931        5.250        0.279      333.922        3.555      868.117
01/29/2015  02:17:00       27.568       15.553       -0.268       15.830       16.384        7.176      250.577      268.432       51.489        0.079        0.029       31.652        4.806        0.023      334.058        3.780      868.119
01/29/2015  02:18:00       32.680       13.858        1.504       16.409       10.400       10.987      269.259      108.162      120.716        0.088        0.025       35.497       11.570        0.106      334.072        3.802      868.122
01/29/2015  02:19:00       20.019       12.974        8.136       15.866        5.919        7.334      251.727       35.035       53.787        0.049        0.017       23.855        6.919        0.084      333.979        3.649      868.121
01/29/2015  02:20:00       29.971       26.772        0.020        7.572        9.739        6.825       57.329       94.857       46.585        0.091        0.010       40.187        4.759        0.014      333.945        3.596      868.117
01/29/2015  02:21:00       30.823       10.232       -3.545        9.648        8.990        7.341       93.089       80.823       53.896        0.065        0.011       32.477        3.435        0.011      333.979        3.650      868.113
01/29/2015  02:22:00        4.096       -4.372       -0.838       10.411        9.215        4.796      108.390       84.913       23.005        0.013        0.011        5.991        5.857        0.956      333.957        3.612      868.106
01/29/2015  02:23:00      -35.328      -15.773       -4.142       11.726        6.738        7.918      137.510       45.398       62.692        0.088        0.012       38.689        7.525        0.038      333.687        3.167      868.101
01/29/2015  02:24:00      -40.724       -2.824       -4.801        7.391        8.626        6.345       54.633       74.406       40.258        0.093        0.008       40.822        3.507        0.007      333.466        2.798      868.099
01/29/2015  02:25:00        3.449       21.402       -1.262       11.670        7.661        4.817      136.186       58.692       23.207        0.034        0.011       21.678        3.416        0.025      333.934        3.575      868.105
01/29/2015  02:26:00       22.956       19.580        4.107        9.400        8.753        9.099       88.363       76.623       82.791        0.059        0.012       30.172        6.949        0.053      333.910        3.536      868.104
01/29/2015  02:27:00        7.103       25.059       -2.375        6.193        4.971        3.263       38.353       24.711       10.645        0.038        0.004       26.046        2.446        0.009      333.938        3.580      868.102
01/29/2015  02:28:00        5.283       18.627       -1.875        5.813        7.098        5.492       33.794       50.380       30.166        0.025        0.006       19.362        5.809        0.090      333.923        3.557      868.088
01/29/2015  02:29:00       -2.224       22.242       -2.088        7.750        5.723        3.342       60.059       32.749       11.169        0.030        0.005       22.353        2.797        0.016      333.938        3.581      868.078
01/29/2015  02:30:00      -16.525        2.718       -2.769       14.581       13.103        4.674      212.597      171.693       21.849        0.035        0.020       16.747        3.462        0.043      333.778        3.316      868.058
01/29/2015  02:31:00      -38.579       -8.791       -9.206        9.486       10.257        7.537       89.987      105.199       56.800        0.095        0.013       39.568        3.983        0.010      333.497        2.851      868.047
01/29/2015  02:32:00       -8.706       -5.672        1.785       14.956        8.230       10.612      223.691       67.731      112.621        0.026        0.020       10.391        4.992        0.231      333.607        3.032      868.035
01/29/2015  02:33:00        8.024       13.968        2.467       15.649       12.262        6.347      244.878      150.347       40.291        0.035        0.022       16.109        5.653        0.123      333.806        3.363      868.038
01/29/2015  02:34:00       13.321      -14.022        4.147        9.801       12.868        7.383       96.061      165.590       54.503        0.035        0.016       19.341        6.769        0.122      333.708        3.200      868.045
01/29/2015  02:35:00      -19.041      -20.192       -2.364       21.168       11.539        9.121      448.079      133.148       83.196        0.072        0.033       27.754       10.383        0.140      333.684        3.160      868.035
01/29/2015  02:36:00      -79.218      -33.527       -9.552       13.393       10.371        9.468      179.376      107.561       89.637        0.393        0.019       86.020        2.647        0.001      333.384        2.664      868.022
01/29/2015  02:37:00      -80.089      -22.219       -4.698        9.758        9.030        8.250       95.222       81.542       68.065        0.359        0.012       83.114        6.144        0.005      333.447        2.767      868.018
01/29/2015  02:38:00      -59.902      -27.872       -9.281        9.525        6.808        5.247       90.723       46.347       27.531        0.231        0.008       66.069        3.007        0.002      333.422        2.727      868.012
01/29/2015  02:39:00      -47.158      -22.556       -9.535        5.511        5.945        5.613       30.368       35.339       31.505        0.146        0.005       52.274        2.528        0.002      333.488        2.835      868.008
01/29/2015  02:40:00      -60.724      -19.239       -5.639        8.690        9.102        6.840       75.513       82.849       46.780        0.215        0.010       63.699        3.741        0.003      333.516        2.879      867.999
01/29/2015  02:41:00      -78.233      -16.633      -12.708        8.662       11.273        8.581       75.038      127.085       73.626        0.342        0.014       79.981        1.611        0.000      333.425        2.730      867.984
01/29/2015  02:42:00      -87.956      -12.493       -8.462       21.126       11.978       13.282      446.321      143.482      176.416        0.436        0.038       88.839       12.453        0.020      333.403        2.694      867.970
01/29/2015  02:43:00     -104.030      -14.881      -13.785        8.410       11.892        9.489       70.728      141.420       90.045        0.577        0.015      105.089        4.826        0.002      333.401        2.691      867.947
01/29/2015  02:44:00     -110.063      -30.575       -7.039       11.868       11.553        9.684      140.842      133.478       93.783        0.673        0.018      114.231        7.468        0.004      333.322        2.560      867.936
01/29/2015  02:45:00     -118.492      -23.804      -13.120        8.955        9.186        7.810       80.197       84.385       60.997        0.750        0.011      120.860        5.325        0.002      333.309        2.538      867.930
01/29/2015  02:46:00     -135.324      -26.624      -14.461        7.807       10.556        5.611       60.944      111.419       31.483        0.972        0.010      137.919        5.497        0.002      333.374        2.646      867.927
01/29/2015  02:47:00     -108.611      -43.362      -10.056       14.687        8.587        7.945      215.705       73.732       63.122        0.707        0.018      116.947        5.262        0.002      333.298        2.520      867.921
01/29/2015  02:48:00      -96.633      -52.180      -10.463       15.621       10.363       10.252      244.028      107.402      105.109        0.631        0.023      109.821        7.862        0.005      333.301        2.525      867.914
01/29/2015  02:49:00     -101.490      -47.757       -6.500       14.039       17.218       10.945      197.104      296.463      119.792        0.662        0.031      112.165        8.080        0.005      333.291        2.510      867.903
01/29/2015  02:50:00     -108.505      -47.750       -5.805       14.891       11.467       11.708      221.749      131.489      137.079        0.729        0.025      118.547        8.137        0.005      333.272        2.479      867.888
01/29/2015  02:51:00     -109.544      -47.716      -10.223        8.207        7.468        6.546       67.353       55.774       42.848        0.727        0.008      119.486        3.693        0.001      333.306        2.534      867.884
01/29/2015  02:52:00     -109.140      -47.302       -9.701        8.458       12.174        7.365       71.539      148.206       54.242        0.726        0.014      118.949        4.133        0.001      333.293        2.512      867.895
01/29/2015  02:53:00     -100.620      -38.347       -6.581        9.181       14.068        7.784       84.285      197.899       60.585        0.599        0.017      107.680        5.833        0.003      333.308        2.539      867.908
01/29/2015  02:54:00     -101.577      -34.702       -8.602        7.958        9.143        6.505       63.335       83.600       42.309        0.589        0.009      107.341        3.011        0.001      333.340        2.591      867.921
01/29/2015  02:55:00     -106.892      -37.562       -6.168        8.768       10.792        7.054       76.874      116.465       49.760        0.656        0.012      113.300        4.571        0.002      333.334        2.581      867.915
01/29/2015  02:56:00     -112.735      -44.813       -5.269       16.146       23.014       12.092      260.702      529.642      146.211        0.784        0.047      121.315        7.883        0.004      333.300        2.525      867.905
01/29/2015  02:57:00     -112.605      -48.598       -4.884       13.577       20.590       15.973      184.332      423.932      255.134        0.796        0.043      122.644        9.704        0.006      333.256        2.452      867.889
01/29/2015  02:58:00      -86.367      -42.167        2.397       28.194       18.657       18.578      794.894      348.090      345.161        0.537        0.074       96.111       19.007        0.039      333.233        2.414      867.872
01/29/2015  02:59:00     -114.198      -30.956       -7.028       19.612       20.614       11.030      384.617      424.922      121.654        0.749        0.047      118.319       11.337        0.009      333.219        2.389      867.850
01/29/2015  03:00:00     -127.466      -32.053      -12.081       12.968        8.454       10.457      168.180       71.470      109.344        0.888        0.017      131.435        7.500        0.003      333.153        2.280      867.834
01/29/2015  03:01:00     -126.536      -28.947      -15.093       33.505       20.042       15.884     1122.591      401.669      252.296        0.943        0.089      129.805       15.613        0.014      333.160        2.293      867.822
01/29/2015  03:02:00     -114.085      -23.782       -4.114       24.125       24.200       16.448      582.007      585.624      270.546        0.752        0.072      116.538       13.980        0.014      333.145        2.267      867.809
01/29/2015  03:03:00     -112.411      -26.233       -3.220       25.296       29.202       18.786      639.911      852.774      352.901        0.759        0.092      115.431       14.783        0.016      333.160        2.293      867.790
01/29/2015  03:04:00     -112.026      -31.623       -3.468       28.917       26.828       17.206      836.204      719.735      296.041        0.771        0.093      116.403       14.727        0.016      333.149        2.275      867.773
01/29/2015  03:05:00     -132.974        9.213      -10.590       35.875       23.003       19.194     1287.022      529.157      368.400        1.003        0.109      133.293       16.922        0.016      333.242        2.428      867.760
01/29/2015  03:06:00     -134.770        5.154       -9.449       36.525       34.633       24.629     1334.105     1199.416      606.575        1.071        0.157      134.869       17.807        0.017      333.208        2.371      867.751
01/29/2015  03:07:00     -108.183      -31.519       -4.110       46.323       37.867       22.616     2145.775     1433.889      511.464        0.840        0.205      112.681       21.515        0.036      333.253        2.447      867.739
01/29/2015  03:08:00     -111.428       -7.609       -5.209       35.010       26.531       19.841     1225.701      703.880      393.648        0.741        0.116      111.687       20.459        0.034      333.285        2.499      867.732
01/29/2015  03:09:00     -112.053       -4.584       -7.124       41.864       17.615       16.412     1752.583      310.291      269.356        0.748        0.117      112.147       17.893        0.025      333.248        2.440      867.733
01/29/2015  03:10:00      -83.220      -13.292       -3.330       29.622       21.188       16.624      877.433      448.926      276.370        0.436        0.080       84.275       17.410        0.043      333.166        2.303      867.732
01/29/2015  03:11:00      -73.308      -24.097       -8.717       30.199       18.531       15.692      911.976      343.380      246.243        0.377        0.075       77.167       17.480        0.051      333.133        2.248      867.731
01/29/2015  03:12:00     -101.151      -39.343       -8.839       16.624       18.101        9.352      276.372      327.656       87.469        0.627        0.035      108.533        7.525        0.005      333.143        2.264      867.728
01/29/2015  03:13:00      -90.046      -37.034       -9.189       10.936       10.002        9.580      119.594      100.044       91.784        0.494        0.016       97.364        8.245        0.007      333.148        2.272      867.728
01/29/2015  03:14:00     -109.167      -29.471      -11.533       15.075       18.466       10.210      227.269      340.992      104.253        0.680        0.034      113.075        6.706        0.004      333.321        2.559      867.717
01/29/2015  03:15:00     -123.374      -43.740      -17.018       10.701       13.145       10.094      114.509      172.797      101.885        0.891        0.019      130.898        6.323        0.002      333.320        2.558      867.710
01/29/2015  03:16:00     -101.506      -62.930       -7.697       20.446       12.096       11.897      418.029      146.322      141.547        0.751        0.035      119.430       11.550        0.009      333.291        2.510      867.702
01/29/2015  03:17:00      -96.341      -54.796       -6.291       15.805       13.896       12.665      249.806      193.110      160.398        0.646        0.030      110.834       10.118        0.008      333.299        2.522      867.697
01/29/2015  03:18:00      -95.957      -67.743       -1.117       33.554       20.440       19.734     1125.863      417.788      389.436        0.787        0.097      117.460       18.665        0.025      333.196        2.353      867.693
01/29/2015  03:19:00      -82.718      -53.083       -0.657       37.412       25.076       18.949     1399.679      628.816      359.046        0.602        0.119       98.286       18.466        0.035      333.167        2.304      867.690
01/29/2015  03:20:00      -52.673      -38.363       -3.421       20.658       14.106       12.194      426.738      198.968      148.691        0.252        0.039       65.162        9.838        0.023      333.206        2.368      867.689
01/29/2015  03:21:00      -15.885      -21.597        1.565       19.611        8.987        9.625      384.576       80.773       92.639        0.064        0.028       26.810        9.826        0.134      333.273        2.479      867.689
01/29/2015  03:22:00      -47.439      -24.267       -6.008        8.908        7.269        7.449       79.349       52.841       55.484        0.153        0.009       53.285        2.932        0.003      333.328        2.571      867.685
01/29/2015  03:23:00      -59.628      -23.852       -5.072        8.382       10.443        5.824       70.259      109.066       33.922        0.218        0.011       64.221        3.841        0.004      333.330        2.574      867.681
01/29/2015  03:24:00      -91.490      -27.192      -12.188       17.364       10.402        6.761      301.497      108.193       45.714        0.486        0.023       95.445        4.128        0.002      333.291        2.508      867.668
01/29/2015  03:25:00     -110.577      -42.210      -11.994       14.795       11.191        9.171      218.903      125.235       84.109        0.729        0.021      118.360        5.196        0.002      333.239        2.423      867.655
01/29/2015  03:26:00     -115.632      -41.059       -8.428        9.011       13.461        7.111       81.203      181.204       50.569        0.772        0.016      122.705        8.074        0.004      333.208        2.372      867.647
01/29/2015  03:27:00      -83.153      -20.888       -5.330       14.172       12.667        9.057      200.856      160.464       82.022        0.391        0.022       85.737        4.497        0.003      333.212        2.378      867.648
01/29/2015  03:28:00      -62.785      -30.623      -11.058       10.267       10.139        8.050      105.406      102.809       64.797        0.264        0.014       69.855        4.599        0.004      333.229        2.405      867.643
01/29/2015  03:29:00      -94.754      -41.776      -17.540       17.638       15.987        9.206      311.095      255.586       84.753        0.584        0.033      103.555        8.645        0.007      333.190        2.342      867.638
01/29/2015  03:30:00      -92.882      -41.492      -13.016       20.131       15.419       12.391      405.253      237.736      153.535        0.566        0.040      101.728        9.972        0.010      333.169        2.307      867.634
01/29/2015  03:31:00     -122.817      -44.426      -13.412       17.622       16.869       11.086      310.519      284.580      122.910        0.898        0.036      130.605        8.399        0.004      333.179        2.323      867.629
01/29/2015  03:32:00     -130.495      -51.988      -18.036       14.744       12.324       11.756      217.400      151.884      138.198        1.028        0.025      140.469        2.796        0.000      333.123        2.230      867.609
01/29/2015  03:33:00     -118.578      -43.895      -15.653       19.847       22.379       15.650      393.900      500.840      244.925        0.869        0.057      126.441        7.511        0.004      333.088        2.174      867.596
01/29/2015  03:34:00     -101.315      -37.965       -9.130       12.674       17.171       12.508      160.627      294.860      156.438        0.620        0.031      108.194        9.178        0.007      333.059        2.125      867.573
01/29/2015  03:35:00     -117.711      -41.408       -9.291       18.197       15.826       11.306      331.126      250.477      127.831        0.818        0.035      124.782        5.773        0.002      333.006        2.038      867.550
01/29/2015  03:36:00     -135.028      -56.311       -5.600       24.255       18.599       19.374      588.312      345.941      375.354        1.137        0.065      146.299       16.802        0.013      332.986        2.004      867.532
01/29/2015  03:37:00     -113.376      -52.225        2.477       27.442       24.856       18.288      753.069      617.818      334.451        0.865        0.085      124.827       17.179        0.019      332.971        1.981      867.522
01/29/2015  03:38:00     -126.266      -54.550        1.263       30.137       24.770       19.289      908.261      613.576      372.082        1.041        0.095      137.545       16.799        0.015      333.010        2.046      867.514
01/29/2015  03:39:00     -141.158      -48.645       -9.404       21.742       21.355       12.124      472.706      456.038      146.991        1.173        0.054      149.305        8.742        0.003      333.026        2.071      867.509
01/29/2015  03:40:00     -116.546      -48.813       -7.878       21.570       23.608       14.074      465.247      557.327      198.071        0.862        0.061      126.355        6.962        0.003      332.949        1.945      867.514
01/29/2015  03:41:00     -103.610      -32.629      -10.374       20.888       22.962       18.282      436.324      527.231      334.237        0.660        0.065      108.627        9.293        0.007      332.946        1.939      867.517
01/29/2015  03:42:00     -101.280      -27.698       -4.850       16.613       21.892       13.257      275.977      479.268      175.736        0.599        0.047      104.999        5.874        0.003      332.976        1.990      867.517
01/29/2015  03:43:00      -96.387      -40.806        4.544       26.548       20.677       18.453      704.813      427.551      340.530        0.622        0.074      104.669       14.727        0.020      332.975        1.988      867.508
01/29/2015  03:44:00     -100.152      -37.696       -5.309       21.241       17.683       10.717      451.196      312.702      114.858        0.618        0.044      107.011       10.368        0.009      332.973        1.984      867.503
01/29/2015  03:45:00      -83.654      -47.029        3.172       24.861       26.361       19.223      618.074      694.898      369.534        0.545        0.084       95.968       17.263        0.032      332.961        1.965      867.504
01/29/2015  03:46:00     -123.602      -48.427       -1.944       30.472       21.323       16.727      928.549      454.671      279.776        0.964        0.083      132.751       16.714        0.016      333.017        2.057      867.512
01/29/2015  03:47:00     -114.633      -41.489       -0.489       30.594       22.029       19.136      936.011      485.291      366.201        0.832        0.089      121.910       18.858        0.024      333.039        2.093      867.516
01/29/2015  03:48:00     -127.164      -35.350       -8.493       22.652       21.270       15.044      513.109      452.411      226.315        0.934        0.060      131.986       10.176        0.006      333.007        2.039      867.513
01/29/2015  03:49:00     -115.631      -35.822       -3.943       25.916       17.632       14.914      671.656      310.875      222.422        0.794        0.060      121.053       11.911        0.010      332.963        1.969      867.507
01/29/2015  03:50:00     -133.671      -31.276      -12.169       19.252       16.579       14.281      370.638      274.851      203.959        0.992        0.042      137.281       10.120        0.005      332.926        1.907      867.499
01/29/2015  03:51:00     -128.696      -42.571      -10.434       14.065       17.586       10.574      197.813      309.259      111.816        0.955        0.031      135.554        6.566        0.002      332.865        1.808      867.484
01/29/2015  03:52:00     -125.291      -50.389      -15.184        8.985       12.296        9.635       80.736      151.196       92.837        0.940        0.016      135.044        5.815        0.002      332.842        1.768      867.475
01/29/2015  03:53:00     -119.775      -63.686       -9.028       20.070       17.960       14.984      402.811      322.554      224.524        0.972        0.047      135.654       13.514        0.010      332.816        1.725      867.476
01/29/2015  03:54:00      -84.615      -51.539       -1.941       26.032       22.535       14.630      677.657      507.820      214.024        0.561        0.070       99.076        9.819        0.010      332.794        1.689      867.479
01/29/2015  03:55:00     -105.918      -22.492       -1.068       34.924       31.833       19.607     1219.690     1013.366      384.432        0.717        0.131      108.280       17.995        0.028      332.776        1.659      867.476
01/29/2015  03:56:00     -102.246       -8.756        1.166       43.525       33.502       20.497     1894.415     1122.390      420.140        0.698        0.172      102.620       23.170        0.051      332.858        1.795      867.473
01/29/2015  03:57:00     -112.836      -43.022       -5.448       43.835       33.222       17.850     1921.544     1103.687      318.622        0.898        0.167      120.759       15.896        0.017      332.818        1.729      867.471
01/29/2015  03:58:00      -89.744      -25.454       -7.764       34.284       29.046       18.233     1175.401      843.679      332.430        0.556        0.118       93.284       18.893        0.041      332.827        1.744      867.468
01/29/2015  03:59:00      -71.267      -25.172      -10.049       28.376       18.642       20.289      805.208      347.513      411.647        0.369        0.078       75.582       12.725        0.028      332.836        1.759      867.469
01/29/2015  04:00:00      -77.835      -35.252       -8.760       38.627       26.047       20.127     1492.040      678.427      405.086        0.498        0.129       85.446       14.167        0.027      332.839        1.765      867.470
01/29/2015  04:01:00      -76.894      -60.268       -1.701       39.805       28.631       30.696     1584.413      819.745      942.226        0.645        0.167       97.698       20.826        0.045      332.855        1.791      867.465
01/29/2015  04:02:00      -30.606      -29.737        6.818       39.324       22.533       17.139     1546.396      507.746      293.744        0.211        0.117       42.673       13.728        0.103      332.878        1.827      867.469
01/29/2015  04:03:00      -58.734      -37.681       -2.561       25.097       13.907       11.910      629.868      193.396      141.847        0.292        0.048       69.782       13.074        0.035      332.912        1.885      867.479
01/29/2015  04:04:00     -103.141      -43.121      -10.376        9.560       21.369        7.708       91.385      456.649       59.417        0.661        0.030      111.792        2.446        0.000      332.931        1.914      867.479
01/29/2015  04:05:00     -108.462      -64.756       -1.106       30.303       22.053       19.097      918.294      486.348      364.683        0.886        0.088      126.322       19.223        0.023      332.987        2.007      867.473
01/29/2015  04:06:00      -75.115      -49.771        4.707       49.323       33.878       26.072     2432.719     1147.692      679.753        0.620        0.213       90.107       27.101        0.090      333.025        2.069      867.469
01/29/2015  04:07:00      -74.658      -40.425       -1.053       24.965       19.625       13.649      623.256      385.157      186.288        0.420        0.060       84.901        6.215        0.005      332.913        1.885      867.476
01/29/2015  04:08:00      -83.120      -49.711       -1.430       17.430       17.318       11.879      303.791      299.906      141.119        0.506        0.037       96.851        7.979        0.007      332.920        1.898      867.481
01/29/2015  04:09:00      -56.313      -44.673       -4.202       31.031       20.667       20.641      962.953      427.141      426.047        0.350        0.091       71.881       15.195        0.045      332.946        1.939      867.479
01/29/2015  04:10:00      -73.811      -52.493       -0.754       39.486       27.087       19.419     1559.139      733.725      377.083        0.544        0.133       90.574       18.208        0.040      332.871        1.816      867.484
01/29/2015  04:11:00      -83.420      -51.006        3.542       27.588       22.840       18.342      761.121      521.678      336.414        0.560        0.081       97.778       16.929        0.030      332.883        1.836      867.487
01/29/2015  04:12:00     -100.505      -51.694       -3.278       26.759       18.026       15.963      716.026      324.937      254.824        0.704        0.065      113.020       16.181        0.020      332.859        1.797      867.493
01/29/2015  04:13:00      -88.999      -55.771       -0.541       43.040       22.532       19.465     1852.413      507.680      378.901        0.688        0.137      105.030       18.273        0.030      332.875        1.822      867.497
01/29/2015  04:14:00     -102.278      -66.099        3.602       50.287       31.412       23.984     2528.750      986.743      575.223        0.947        0.205      121.778       24.216        0.040      332.866        1.808      867.493
01/29/2015  04:15:00     -120.591      -61.521       -3.693       43.096       31.472       21.348     1857.237      990.515      455.730        1.082        0.165      135.378       21.900        0.026      332.796        1.693      867.489
01/29/2015  04:16:00      -74.475      -46.627        3.177       45.780       33.756       25.114     2095.770     1139.473      630.734        0.580        0.193       87.867       15.412        0.031      332.741        1.602      867.493
01/29/2015  04:17:00     -111.646      -75.307        4.779       37.144       29.722       25.298     1379.710      883.423      640.010        1.053        0.145      134.670       21.415        0.025      332.772        1.653      867.493
01/29/2015  04:18:00     -116.694      -72.379       -4.315       47.200       33.599       21.339     2227.839     1128.908      455.338        1.134        0.191      137.318       19.945        0.021      332.737        1.595      867.486
01/29/2015  04:19:00      -95.112      -71.339       -6.627       46.155       24.138       18.515     2130.324      582.619      342.795        0.862        0.153      118.893       17.572        0.022      332.721        1.569      867.488
01/29/2015  04:20:00     -104.268      -37.072       -1.119       24.192       21.316       15.811      585.261      454.370      249.994        0.677        0.064      110.662       12.459        0.013      332.720        1.567      867.494
01/29/2015  04:21:00      -89.268      -42.859        0.134       36.041       24.817       16.841     1298.919      615.882      283.609        0.600        0.110       99.023       19.645        0.039      332.699        1.532      867.487
01/29/2015  04:22:00      -79.788      -59.743       -5.811       38.239       32.215       18.538     1462.196     1037.832      343.650        0.641        0.142       99.676       16.286        0.027      332.738        1.597      867.475
01/29/2015  04:23:00      -77.145      -58.460       -2.395       35.366       29.989       23.776     1250.765      899.318      565.290        0.604        0.136       96.793       17.203        0.032      332.730        1.582      867.460
01/29/2015  04:24:00      -95.406      -49.703       -4.313       28.745       21.827       13.875      826.266      476.428      192.525        0.654        0.075      107.576       13.028        0.015      332.684        1.507      867.446
01/29/2015  04:25:00      -85.989      -45.277       -3.491       25.584       17.127       14.029      654.550      293.334      196.810        0.530        0.057       97.180        8.867        0.008      332.634        1.425      867.447
01/29/2015  04:26:00      -77.078      -36.686       -1.293       30.669       23.502       14.541      940.585      552.364      211.435        0.450        0.085       85.364       11.401        0.018      332.646        1.443      867.451
01/29/2015  04:27:00     -103.038      -44.325       -4.750       17.692       13.827       11.962      313.004      191.196      143.083        0.663        0.032      112.168        6.573        0.003      332.633        1.422      867.456
01/29/2015  04:28:00     -103.603      -38.147       -3.069       18.433       19.476       14.089      339.790      379.306      198.498        0.656        0.046      110.403        9.307        0.007      332.631        1.418      867.448
01/29/2015  04:29:00      -79.708      -33.152        4.821       29.300       27.595       17.420      858.515      761.492      303.466        0.470        0.096       86.327       14.143        0.027      332.662        1.471      867.442
01/29/2015  04:30:00     -109.879      -37.510       -5.439       16.726       18.962       11.653      279.751      359.556      135.794        0.714        0.039      116.105        6.548        0.003      332.634        1.423      867.430
01/29/2015  04:31:00      -93.605      -51.740        3.720       33.379       23.088       21.149     1114.161      533.067      447.282        0.677        0.105      106.953       20.216        0.036      332.624        1.407      867.421
01/29/2015  04:32:00      -73.084      -45.496        5.535       31.005       30.020       22.502      961.289      901.195      506.354        0.490        0.118       86.088       19.967        0.054      332.700        1.532      867.412
01/29/2015  04:33:00      -79.533      -43.555        0.046       38.998       37.042       24.681     1520.810     1372.128      609.130        0.586        0.175       90.678       28.531        0.099      332.669        1.483      867.402
01/29/2015  04:34:00      -72.460      -47.503        0.349       34.540       26.067       18.886     1193.002      679.495      356.669        0.487        0.111       86.643       18.090        0.044      332.671        1.487      867.393
01/29/2015  04:35:00      -73.275      -49.821       -1.242       28.303       18.714       13.355      801.071      350.196      178.361        0.459        0.066       88.608        4.253        0.002      332.648        1.448      867.388
01/29/2015  04:36:00      -65.987      -38.741       -0.725       22.252       17.690       17.320      495.141      312.946      299.977        0.348        0.055       76.519       17.498        0.052      332.664        1.475      867.374
01/29/2015  04:37:00      -50.681      -31.798        1.186       23.528       16.423       11.436      553.547      269.722      130.778        0.227        0.048       59.831        8.817        0.022      332.682        1.504      867.366
01/29/2015  04:38:00      -54.522      -32.715       -6.134       20.097       14.642        9.628      403.888      214.387       92.706        0.240        0.036       63.584        8.960        0.020      332.695        1.523      867.366
01/29/2015  04:39:00      -77.049      -50.108      -11.823       19.269       14.069       11.371      371.304      197.944      129.302        0.464        0.035       91.910        8.384        0.008      332.719        1.565      867.365
01/29/2015  04:40:00      -95.883      -52.031      -12.743       15.031       11.093       11.513      225.924      123.044      132.539        0.627        0.024      109.091        5.555        0.003      332.724        1.573      867.360
01/29/2015  04:41:00      -70.835      -43.442        0.889       23.930       19.001       15.245      572.635      361.057      232.425        0.404        0.058       83.095       14.126        0.029      332.690        1.519      867.361
01/29/2015  04:42:00      -76.686      -43.410       -1.153       18.214       24.971       15.744      331.756      623.545      247.858        0.448        0.060       88.120        8.483        0.009      332.679        1.499      867.350
01/29/2015  04:43:00     -106.016      -52.606      -11.397       14.125       14.685       11.458      199.526      215.647      131.290        0.734        0.027      118.350        7.097        0.004      332.619        1.398      867.340
01/29/2015  04:44:00      -76.740      -45.724       -1.537       16.398       17.905       12.725      268.900      320.601      161.935        0.437        0.038       89.329        7.996        0.008      332.630        1.418      867.339
01/29/2015  04:45:00     -112.925      -58.976      -13.653       14.568       15.975       13.961      212.239      255.212      194.917        0.854        0.033      127.398       10.546        0.007      332.645        1.443      867.342
01/29/2015  04:46:00     -102.821      -37.091       -9.130       14.397       20.600       12.202      207.279      424.356      148.883        0.641        0.039      109.306        6.904        0.004      332.632        1.421      867.348
01/29/2015  04:47:00      -83.254      -20.476       -2.350       22.104       24.348       14.813      488.598      592.833      219.425        0.433        0.065       85.735       13.343        0.024      332.651        1.454      867.361
01/29/2015  04:48:00      -87.124      -56.402       -8.127       14.807        8.383        8.102      219.233       70.283       65.640        0.560        0.018      103.787        4.004        0.001      332.662        1.470      867.365
01/29/2015  04:49:00     -109.182      -54.659       -9.877       10.177       11.133        7.008      103.577      123.947       49.109        0.764        0.014      122.100        4.013        0.001      332.675        1.492      867.356
01/29/2015  04:50:00     -106.315      -41.309       -9.687       12.983       12.673        8.675      168.565      160.612       75.259        0.675        0.020      114.059        3.727        0.001      332.707        1.544      867.345
01/29/2015  04:51:00     -100.724      -51.322       -4.603       15.250       13.900       12.917      232.572      193.208      166.844        0.670        0.030      113.045        8.865        0.006      332.709        1.548      867.332
01/29/2015  04:52:00      -69.903      -43.196        4.575       27.177       18.613       16.912      738.591      346.434      286.021        0.407        0.069       82.173       15.128        0.034      332.676        1.493      867.330
01/29/2015  04:53:00      -75.578      -43.386       -1.429       31.939       17.883       14.349     1020.109      319.794      205.902        0.457        0.077       87.145       12.196        0.020      332.652        1.454      867.323
01/29/2015  04:54:00      -96.164      -46.271       -5.308       19.879       17.877       11.321      395.174      319.597      128.165        0.613        0.042      106.717        7.728        0.005      332.656        1.461      867.323
01/29/2015  04:55:00      -94.045      -45.833       -5.915       22.866       16.892       11.547      522.835      285.346      133.344        0.596        0.047      104.619       11.641        0.012      332.587        1.346      867.324
01/29/2015  04:56:00     -110.425      -41.559       -4.008       12.944       13.777        9.586      167.557      189.805       91.883        0.719        0.022      117.987        6.551        0.003      332.607        1.379      867.333
01/29/2015  04:57:00     -102.947      -52.170       -0.317       25.033       16.754       14.967      626.652      280.703      224.018        0.723        0.057      115.411       15.772        0.019      332.630        1.417      867.338
01/29/2015  04:58:00      -99.930      -49.931       -8.250       22.287       10.784        9.614      496.725      116.289       92.438        0.663        0.035      111.709        9.429        0.007      332.659        1.465      867.333
01/29/2015  04:59:00     -102.907      -35.901       -8.636        8.664       12.664        9.580       75.068      160.387       91.769        0.614        0.016      108.990        2.793        0.001      332.622        1.404      867.331
01/29/2015  05:00:00     -114.292      -42.470      -14.814       10.959       11.684        7.608      120.095      136.515       57.880        0.770        0.016      121.928        5.469        0.002      332.647        1.444      867.332
01/29/2015  05:01:00     -105.741      -29.900      -16.585        7.991        9.852        7.689       63.859       97.054       59.120        0.629        0.011      109.887        3.998        0.001      332.628        1.415      867.322
01/29/2015  05:02:00      -97.946      -30.487      -14.766       11.365       10.374        8.087      129.157      107.626       65.398        0.552        0.015      102.581        6.435        0.004      332.583        1.341      867.327
01/29/2015  05:03:00      -85.790      -31.830       -9.459        9.817       10.062        9.760       96.377      101.235       95.250        0.438        0.015       91.504        5.467        0.004      332.518        1.231      867.323
01/29/2015  05:04:00      -99.963      -38.223      -11.828       11.780       11.727       10.861      138.762      137.527      117.968        0.599        0.020      107.022        5.437        0.003      332.514        1.225      867.325
01/29/2015  05:05:00     -120.234      -38.273      -14.427       15.158       15.007        9.067      229.778      225.209       82.211        0.833        0.027      126.179        5.509        0.002      332.538        1.263      867.322
01/29/2015  05:06:00     -117.138      -28.499      -15.715       16.936       13.569       11.100      286.839      184.108      123.216        0.769        0.030      120.555        7.665        0.004      332.511        1.221      867.320
01/29/2015  05:07:00      -86.247      -46.028      -11.829       11.787       15.453       10.795      138.932      238.805      116.530        0.510        0.025       97.760        4.842        0.002      332.519        1.233      867.316
01/29/2015  05:08:00      -95.538      -38.671      -12.988       17.898       17.181       14.417      320.321      295.183      207.851        0.581        0.041      103.068       11.094        0.012      332.581        1.335      867.306
01/29/2015  05:09:00     -117.806      -48.912      -12.256       17.856       14.585       12.771      318.819      212.736      163.092        0.856        0.035      127.557       10.298        0.007      332.551        1.286      867.294
01/29/2015  05:10:00     -101.009      -49.244       -6.126       30.336       21.466       14.762      920.275      460.804      217.915        0.713        0.080      112.374       16.872        0.023      332.574        1.324      867.284
01/29/2015  05:11:00     -105.141      -39.481       -7.493       27.325       13.266       12.264      746.643      175.978      150.401        0.687        0.054      112.309       12.649        0.013      332.599        1.365      867.289
01/29/2015  05:12:00      -76.208      -28.157       -6.997       16.590       17.495       16.016      275.217      306.071      256.499        0.374        0.042       81.243       11.917        0.022      332.623        1.406      867.293
01/29/2015  05:13:00      -81.069      -43.223       -6.927       12.008       11.511        9.401      144.192      132.494       88.370        0.443        0.018       91.872        5.027        0.003      332.617        1.396      867.280
01/29/2015  05:14:00      -71.724      -42.512       -5.625       16.766       13.439       11.912      281.091      180.600      141.895        0.379        0.030       83.376        6.047        0.005      332.647        1.447      867.270
01/29/2015  05:15:00      -78.770      -47.586       -7.530       14.579       17.404       12.444      212.541      302.896      154.848        0.460        0.034       92.028        3.699        0.002      332.576        1.328      867.251
01/29/2015  05:16:00      -72.908      -39.802        2.189       29.002       20.916       18.305      841.105      437.485      335.068        0.426        0.081       83.065       15.047        0.033      332.544        1.276      867.231
01/29/2015  05:17:00      -79.035      -48.529       -1.580       32.967       18.839       16.329     1086.844      354.915      266.626        0.516        0.085       92.745       15.216        0.027      332.524        1.242      867.216
01/29/2015  05:18:00      -81.594      -49.602        3.355       40.165       20.224       16.722     1613.239      409.007      279.612        0.572        0.115       95.488       14.915        0.024      332.497        1.197      867.205
01/29/2015  05:19:00      -92.360      -40.203       -1.688       25.926       18.275       15.498      672.167      333.960      240.176        0.570        0.062      100.730       13.182        0.017      332.520        1.235      867.206
01/29/2015  05:20:00      -93.022      -47.654       -5.772       30.223       18.906       15.454      913.451      357.448      238.831        0.623        0.075      104.518       14.161        0.018      332.511        1.220      867.213
01/29/2015  05:21:00      -96.387      -52.596       -2.064       18.401       24.039       17.189      338.596      577.862      295.468        0.664        0.061      109.803       11.271        0.011      332.515        1.226      867.223
01/29/2015  05:22:00      -90.947      -37.434       -9.598       19.062       17.705       14.805      363.352      313.479      219.177        0.533        0.045       98.350        9.685        0.010      332.551        1.288      867.227
01/29/2015  05:23:00      -99.550      -32.162       -9.028       15.639       15.969       11.201      244.570      255.008      125.460        0.583        0.031      104.617        7.785        0.006      332.623        1.405      867.228
01/29/2015  05:24:00     -101.149      -43.261       -4.997       16.791       21.433       11.674      281.938      459.373      136.292        0.650        0.044      110.012       10.713        0.009      332.593        1.355      867.228
01/29/2015  05:25:00     -116.891      -51.973       -4.104       23.640       16.792       14.593      558.871      281.979      212.954        0.872        0.053      127.925       10.708        0.007      332.540        1.269      867.232
01/29/2015  05:26:00     -120.444      -51.242       -6.253       25.333       18.824       14.903      641.739      354.338      222.110        0.919        0.061      130.891       12.355        0.009      332.568        1.313      867.237
01/29/2015  05:27:00      -87.326      -43.705       -0.813       25.097       18.581       14.210      629.875      345.269      201.928        0.536        0.059       97.652       12.079        0.015      332.634        1.425      867.246
01/29/2015  05:28:00      -81.092      -56.593       -1.274       24.987       18.128       12.163      624.352      328.607      147.928        0.544        0.055       98.887        5.696        0.003      332.647        1.447      867.251
01/29/2015  05:29:00      -51.159      -43.244        1.755       42.104       27.449       18.147     1772.764      753.432      329.307        0.367        0.143       66.987       14.502        0.047      332.651        1.452      867.248
01/29/2015  05:30:00      -38.081      -43.532        4.079       32.046       27.339       18.304     1026.949      747.433      335.053        0.274        0.105       57.838       17.279        0.089      332.632        1.421      867.248
01/29/2015  05:31:00      -75.074      -59.524        6.201       43.180       23.579       21.298     1864.487      555.982      453.592        0.605        0.144       95.808       22.238        0.054      332.691        1.518      867.245
01/29/2015  05:32:00      -84.866      -63.434       -1.052       36.925       31.040       18.903     1363.450      963.501      357.315        0.696        0.134      105.953       11.317        0.011      332.708        1.546      867.240
01/29/2015  05:33:00      -98.536      -52.146       -1.529       39.643       30.489       19.177     1571.590      929.582      367.773        0.765        0.143      111.484       13.797        0.015      332.685        1.508      867.242
01/29/2015  05:34:00      -36.429      -40.236       11.461       42.675       26.908       21.304     1821.146      724.036      453.852        0.304        0.150       54.277       14.059        0.067      332.674        1.490      867.244
01/29/2015  05:35:00      -46.147      -48.215        6.753       38.426       26.087       21.593     1476.555      680.551      466.264        0.356        0.131       66.740       20.813        0.097      332.682        1.503      867.254
01/29/2015  05:36:00      -68.979      -41.512        1.314       33.128       22.269       15.293     1097.483      495.923      233.879        0.415        0.091       80.506       15.580        0.037      332.657        1.462      867.259
01/29/2015  05:37:00      -85.696      -44.435       -0.814       38.964       22.833       18.336     1518.181      521.341      336.203        0.585        0.119       96.532       16.930        0.031      332.630        1.418      867.275
01/29/2015  05:38:00      -38.257      -38.377        3.223       24.214       17.449       18.048      586.325      304.461      325.731        0.208        0.061       54.188       15.219        0.079      332.685        1.508      867.278
01/29/2015  05:39:00      -62.228      -28.593       -9.033       14.475       17.278       10.717      209.535      298.518      114.854        0.270        0.031       68.483        5.317        0.006      332.643        1.439      867.284
01/29/2015  05:40:00      -47.169      -33.564       -1.511       21.581       15.044       10.226      465.750      226.334      104.579        0.208        0.040       57.892        8.442        0.021      332.672        1.486      867.286
01/29/2015  05:41:00      -68.494      -34.112       -7.251       17.823       12.809        9.139      317.647      164.072       83.528        0.324        0.028       76.518        7.324        0.009      332.677        1.494      867.282
01/29/2015  05:42:00      -80.560      -17.271       -7.434       15.706       14.646       10.288      246.675      214.509      105.846        0.371        0.028       82.390        6.512        0.006      332.671        1.485      867.277
01/29/2015  05:43:00      -79.856      -31.989       -4.124       15.439       19.018       11.721      238.357      361.684      137.387        0.408        0.037       86.025        9.572        0.012      332.626        1.411      867.274
01/29/2015  05:44:00      -87.730      -31.280       -3.202       15.735       12.891       11.932      247.593      166.176      142.375        0.462        0.028       93.140        8.791        0.009      332.644        1.441      867.278
01/29/2015  05:45:00      -78.752      -25.994       -3.910       14.914       13.005        9.607      222.413      169.139       92.292        0.369        0.024       82.931        5.305        0.004      332.596        1.361      867.270
01/29/2015  05:46:00      -76.547      -20.464      -10.472       16.675       12.381       10.404      278.067      153.279      108.250        0.346        0.027       79.235        5.816        0.005      332.669        1.482      867.260
01/29/2015  05:47:00      -93.733      -26.818       -9.405       15.859       16.075       12.506      251.509      258.397      156.404        0.513        0.033       97.494        8.137        0.007      332.718        1.564      867.259
01/29/2015  05:48:00      -90.037      -38.670       -6.398       16.189       15.928       14.165      262.089      253.716      200.659        0.518        0.036       97.990       10.090        0.011      332.736        1.593      867.257
01/29/2015  05:49:00      -78.672      -24.369       -2.983       17.761       14.953       12.120      315.435      223.578      146.895        0.374        0.034       82.359       10.085        0.015      332.698        1.530      867.260
01/29/2015  05:50:00      -77.971      -13.604       -3.274       13.460       12.594       13.404      181.181      158.621      179.663        0.340        0.026       79.149        9.487        0.014      332.692        1.521      867.266
01/29/2015  05:51:00      -89.359      -22.084       -8.872       11.885       11.786        8.013      141.248      138.919       64.212        0.445        0.017       92.048        2.555        0.001      332.707        1.545      867.270
01/29/2015  05:52:00      -91.822      -17.866       -9.210       12.738       11.884        8.073      162.259      141.221       65.179        0.460        0.018       93.544        7.097        0.006      332.699        1.532      867.274
01/29/2015  05:53:00      -92.550       -8.051       -9.450       10.254       10.904        7.085      105.151      118.904       50.198        0.450        0.014       92.900        5.960        0.004      332.712        1.553      867.270
01/29/2015  05:54:00      -91.596      -15.241      -11.937       15.819       12.286       13.270      250.241      150.941      176.090        0.467        0.029       92.855       10.620        0.013      332.690        1.517      867.261
01/29/2015  05:55:00      -96.213      -16.054       -7.522       14.379       13.637       12.298      206.762      185.969      151.248        0.506        0.027       97.544       10.613        0.012      332.631        1.418      867.250
01/29/2015  05:56:00      -95.528      -14.198       -9.713       18.164       11.272       10.613      329.923      127.050      112.627        0.500        0.028       96.577        7.660        0.006      332.603        1.372      867.230
01/29/2015  05:57:00     -117.413       -6.546      -12.174       12.463       12.166        9.360      155.325      148.006       87.608        0.718        0.020      117.595        5.855        0.002      332.544        1.274      867.222
01/29/2015  05:58:00     -117.598      -11.759      -17.295       12.683       10.500        9.152      160.863      110.254       83.757        0.731        0.018      118.184        5.281        0.002      332.501        1.204      867.215
01/29/2015  05:59:00     -101.336      -15.450       -5.723       18.968       17.996       14.143      359.782      323.867      200.028        0.571        0.044      102.507        8.512        0.007      332.478        1.165      867.212
01/29/2015  06:00:00      -89.415      -12.418       -5.363       17.051       11.433       10.062      290.734      130.705      101.236        0.435        0.026       90.273        8.869        0.010      332.491        1.187      867.207
01/29/2015  06:01:00      -83.069       -6.982       -8.249       12.845        8.934        9.852      165.003       79.809       97.065        0.368        0.017       83.362        7.071        0.007      332.519        1.235      867.209
01/29/2015  06:02:00      -74.910      -10.972      -12.066       10.320       10.140        8.162      106.499      102.822       66.622        0.308        0.014       75.710        3.788        0.003      332.579        1.335      867.203
01/29/2015  06:03:00      -66.988       -4.118       -7.152       14.769       10.407       11.685      218.134      108.299      136.545        0.251        0.023       67.114        9.119        0.018      332.600        1.368      867.204
01/29/2015  06:04:00      -58.546      -15.806       -4.747       17.645       15.170       12.866      311.354      230.129      165.543        0.220        0.035       60.642       11.411        0.035      332.596        1.361      867.194
01/29/2015  06:05:00      -69.036      -16.497       -8.035       14.217       14.385       10.905      202.121      206.921      118.912        0.282        0.026       70.979        8.302        0.014      332.575        1.326      867.184
01/29/2015  06:06:00      -47.063      -22.731       -3.631       15.518       13.601        9.887      240.805      184.976       97.756        0.163        0.026       52.265        6.743        0.017      332.552        1.289      867.180
01/29/2015  06:07:00      -35.460       -9.285       -2.577       10.332        9.935        6.375      106.755       98.710       40.643        0.080        0.012       36.655        2.443        0.004      332.579        1.332      867.175
01/29/2015  06:08:00      -28.387      -15.362       -4.863        6.761        8.046        6.390       45.716       64.741       40.828        0.061        0.008       32.277        3.074        0.009      332.574        1.323      867.177
01/29/2015  06:09:00      -38.313      -14.280       -5.566       11.717        8.833        7.157      137.290       78.014       51.226        0.098        0.013       40.887        4.753        0.014      332.622        1.404      867.174
01/29/2015  06:10:00      -39.532      -17.713       -3.915       15.485       10.127        6.387      239.775      102.553       40.792        0.114        0.019       43.319        4.736        0.012      332.500        1.205      867.178
01/29/2015  06:11:00      -18.305      -10.046       -1.348        6.139        7.650        5.578       37.684       58.520       31.119        0.028        0.006       20.880        4.870        0.054      332.493        1.190      867.186
01/29/2015  06:12:00      -20.917       -7.127       -2.589        8.088        6.684        4.266       65.409       44.672       18.197        0.031        0.006       22.098        3.874        0.031      332.571        1.322      867.191
01/29/2015  06:13:00      -39.408       -8.261       -4.989        7.724        7.113        5.100       59.655       50.590       26.005        0.089        0.007       40.265        1.028        0.001      332.493        1.190      867.199
01/29/2015  06:14:00      -16.025      -17.299       -3.762       12.314       10.265        6.952      151.644      105.378       48.324        0.044        0.015       23.581        7.026        0.089      332.501        1.205      867.215
01/29/2015  06:15:00      -26.056      -10.714       -6.463       13.205        7.099        7.161      174.360       50.393       51.273        0.056        0.014       28.173        5.455        0.037      332.533        1.257      867.234
01/29/2015  06:16:00      -22.920      -14.137        1.894       12.403        7.288        6.259      153.833       53.114       39.170        0.049        0.012       26.930        2.192        0.007      332.518        1.232      867.245
01/29/2015  06:17:00      -32.017       -6.476       -5.249        6.425        5.940        5.615       41.275       35.289       31.531        0.060        0.005       32.665        2.924        0.008      332.524        1.241      867.263
01/29/2015  06:18:00      -34.443      -15.924       -2.690       12.983        9.651        5.276      168.563       93.151       27.832        0.087        0.014       37.946        3.467        0.008      332.538        1.265      867.274
01/29/2015  06:19:00      -31.253      -18.699       -0.352       17.783       12.809        8.564      316.243      164.076       73.350        0.094        0.028       36.420        9.852        0.073      332.482        1.172      867.279
01/29/2015  06:20:00      -41.584      -27.077        0.989       18.396       10.381        9.674      338.414      107.767       93.584        0.150        0.027       49.622        7.736        0.024      332.500        1.201      867.277
01/29/2015  06:21:00      -43.819      -31.014        1.774       28.394       13.721       15.563      806.203      188.262      242.192        0.206        0.062       53.684       16.238        0.091      332.473        1.157      867.281
01/29/2015  06:22:00      -53.723      -36.864        0.103       15.523       13.700       10.524      240.967      187.692      110.760        0.239        0.027       65.154        9.064        0.019      332.489        1.185      867.290
01/29/2015  06:23:00      -66.587      -46.693       -6.463       13.514       10.599       10.427      182.626      112.340      108.715        0.353        0.020       81.327        7.211        0.008      332.535        1.260      867.287
01/29/2015  06:24:00      -78.334      -48.519       -1.409       20.180       14.202       12.691      407.236      201.705      161.050        0.463        0.038       92.143       11.773        0.016      332.511        1.221      867.280
01/29/2015  06:25:00      -46.048      -36.067        7.093       34.884       23.588       18.237     1216.870      556.405      332.606        0.279        0.105       58.491       18.665        0.102      332.549        1.283      867.285
01/29/2015  06:26:00      -63.708      -34.968       -0.390       18.624       14.604       12.989      346.852      213.266      168.714        0.301        0.036       72.673        7.530        0.011      332.526        1.244      867.286
01/29/2015  06:27:00      -65.825      -33.880        1.468       34.689       20.288       12.781     1203.305      411.617      163.348        0.363        0.089       74.032        8.204        0.012      332.550        1.284      867.279
01/29/2015  06:28:00      -18.356      -27.557        5.196       34.646       21.273       19.120     1200.331      452.551      365.564        0.157        0.101       33.111       18.651        0.317      332.591        1.351      867.279
01/29/2015  06:29:00      -68.660      -33.722        3.109       23.513       16.945       13.922      552.855      287.124      193.819        0.345        0.052       76.494       13.159        0.030      332.481        1.171      867.279
01/29/2015  06:30:00      -28.560      -21.921        5.806       27.766       17.853       16.175      770.975      318.742      261.623        0.134        0.068       36.003       17.015        0.223      332.546        1.278      867.280
01/29/2015  06:31:00      -56.808      -32.476       -1.553       20.156       17.911       11.610      406.247      320.811      134.785        0.257        0.043       65.436        8.409        0.017      332.522        1.239      867.281
01/29/2015  06:32:00      -58.563      -33.045        2.203       18.011       14.877       13.415      324.405      221.338      179.951        0.263        0.036       67.243        9.014        0.018      332.490        1.186      867.289
01/29/2015  06:33:00      -80.096      -26.761       -4.091       17.400       12.618       10.373      302.754      159.207      107.609        0.386        0.028       84.448        6.557        0.006      332.496        1.196      867.292
01/29/2015  06:34:00      -64.750      -34.611       -3.548       14.752        9.889        8.892      217.623       97.798       79.067        0.290        0.020       73.420        4.895        0.004      332.466        1.146      867.306
01/29/2015  06:35:00      -62.601      -21.113       -3.747       13.784       19.175       10.149      189.989      367.664      103.007        0.252        0.033       66.065        8.147        0.015      332.486        1.179      867.314
01/29/2015  06:36:00      -83.943      -14.290       -3.684       21.807       13.320       13.820      475.564      177.417      190.982        0.405        0.042       85.151       10.170        0.014      332.450        1.119      867.324
01/29/2015  06:37:00      -92.849      -19.846       -6.851       13.230       12.450       12.095      175.036      154.990      146.286        0.477        0.024       94.947        8.628        0.008      332.388        1.018      867.341
01/29/2015  06:38:00      -60.939      -19.132       -1.813       23.156       20.135       14.192      536.215      405.413      201.411        0.261        0.057       63.872       13.028        0.042      332.357        0.966      867.363
01/29/2015  06:39:00      -62.288       -6.108       -2.210       34.243       15.562       10.477     1172.610      242.183      109.759        0.272        0.076       62.587       13.870        0.049      332.382        1.008      867.375
01/29/2015  06:40:00     -104.683       -6.611      -12.680       12.562       14.525        9.303      157.803      210.977       86.546        0.581        0.023      104.892        2.980        0.001      332.408        1.052      867.386
01/29/2015  06:41:00      -94.266      -19.704       -8.187       21.054       12.569       11.945      443.288      157.982      142.682        0.504        0.037       96.303       11.613        0.015      332.395        1.031      867.393
01/29/2015  06:42:00      -90.286      -11.214       -4.618       21.060       14.235       13.739      443.529      202.643      188.748        0.457        0.042       90.980       13.766        0.023      332.321        0.907      867.405
01/29/2015  06:43:00     -115.528      -11.165      -11.735       17.293       15.630       10.708      299.058      244.304      114.651        0.713        0.033      116.066        8.614        0.006      332.312        0.893      867.415
01/29/2015  06:44:00     -109.858      -20.951       -6.210       23.808       16.862       13.011      566.841      284.336      169.274        0.678        0.051      111.838       13.127        0.014      332.300        0.872      867.427
01/29/2015  06:45:00     -106.090      -23.300       -1.787       35.368       16.213       15.047     1250.883      262.847      226.426        0.677        0.087      108.619       17.020        0.025      332.335        0.931      867.432
01/29/2015  06:46:00      -74.148      -23.902        4.373       38.764       23.151       16.825     1502.669      535.981      283.082        0.420        0.116       77.905       17.377        0.050      332.364        0.979      867.451
01/29/2015  06:47:00      -97.586      -18.252        1.543       32.679       20.921       17.469     1067.930      437.705      305.171        0.583        0.091       99.278       16.290        0.027      332.291        0.858      867.451
01/29/2015  06:48:00     -112.086      -33.790        1.888       29.928       22.374       17.957      895.674      500.597      322.453        0.771        0.086      117.069       13.968        0.014      332.344        0.946      867.453
01/29/2015  06:49:00     -119.362      -41.539        2.175       29.105       24.543       16.307      847.082      602.350      265.910        0.885        0.086      126.383       15.653        0.015      332.350        0.956      867.461
01/29/2015  06:50:00      -98.801      -41.746        3.420       31.589       24.667       21.008      997.888      608.445      441.330        0.678        0.102      107.259       18.208        0.029      332.347        0.950      867.464
01/29/2015  06:51:00      -97.665      -49.006       -1.564       32.231       21.752       15.146     1038.809      473.143      229.398        0.684        0.087      109.270       16.205        0.022      332.380        1.004      867.472
01/29/2015  06:52:00      -91.394      -50.948       -4.201       22.574       18.559       18.244      509.600      344.452      332.825        0.608        0.059      104.635       11.387        0.012      332.326        0.915      867.482
01/29/2015  06:53:00      -70.147      -32.770        4.081       24.255       21.588       15.428      588.317      466.028      238.008        0.365        0.065       77.424       13.877        0.032      332.364        0.978      867.482
01/29/2015  06:54:00      -83.021      -43.007       -3.616       21.572       20.860       12.437      465.359      435.160      154.674        0.491        0.053       93.499        9.400        0.010      332.397        1.032      867.486
01/29/2015  06:55:00      -93.121      -33.127        0.041       19.136       16.404       11.846      366.172      269.087      140.339        0.527        0.039       98.838       11.559        0.014      332.400        1.038      867.485
01/29/2015  06:56:00     -111.174      -44.513      -10.356       10.253       15.464       10.131      105.120      239.134      102.635        0.745        0.022      119.754        5.011        0.002      332.407        1.050      867.477
01/29/2015  06:57:00     -111.549      -44.597      -11.543       14.531       19.265       11.396      211.150      371.153      129.872        0.764        0.036      120.134        7.769        0.004      332.373        0.994      867.461
01/29/2015  06:58:00      -60.232      -31.223       -2.797       43.550       18.432       14.113     1896.616      339.731      199.185        0.352        0.122       67.844       13.237        0.038      332.355        0.963      867.454
01/29/2015  06:59:00      -45.233      -19.355        4.363       23.232       16.996       15.324      539.709      288.880      234.838        0.175        0.053       49.200       14.066        0.082      332.271        0.825      867.452
01/29/2015  07:00:00      -89.452      -42.448      -17.300       16.406       18.018       10.609      269.143      324.648      112.550        0.540        0.035       99.012        1.823        0.000      332.238        0.771      867.446
01/29/2015  07:01:00      -92.263      -29.977       -6.103       31.426       20.324       14.891      987.621      413.081      221.730        0.554        0.081       97.011       13.382        0.019      332.192        0.696      867.436
01/29/2015  07:02:00      -63.236      -51.206       -6.875       20.712       19.450       11.467      428.988      378.317      131.486        0.380        0.047       81.368        8.090        0.010      332.236        0.769      867.434
01/29/2015  07:03:00      -89.586      -18.008       -6.445       35.272       25.975       18.369     1244.104      674.690      337.431        0.532        0.113       91.378       16.110        0.031      332.157        0.638      867.441
01/29/2015  07:04:00     -106.816       -7.404       -4.952       25.563       16.830       20.714      653.485      283.252      429.052        0.643        0.068      107.073       18.009        0.028      332.101        0.545      867.445
01/29/2015  07:05:00     -105.700      -17.889       -6.383       13.547       17.601       12.432      183.535      309.782      154.550        0.609        0.032      107.203        6.140        0.003      332.126        0.586      867.441
01/29/2015  07:06:00      -96.187      -17.246       -9.755       16.035       19.113       13.165      257.125      365.292      173.309        0.522        0.040       97.721        9.146        0.009      332.141        0.610      867.429
01/29/2015  07:07:00      -96.240      -13.947       -8.979       26.935       18.180       19.639      725.496      330.507      385.695        0.549        0.072       97.245       14.663        0.023      332.126        0.586      867.422
01/29/2015  07:08:00     -112.547       -3.799       -6.010       29.961       24.153       20.276      897.665      583.386      411.120        0.730        0.095      112.611       15.942        0.020      332.147        0.620      867.410
01/29/2015  07:09:00     -113.144      -15.121       -7.423       25.545       21.042       17.556      652.539      442.782      308.217        0.724        0.070      114.150       14.966        0.017      332.102        0.548      867.409
01/29/2015  07:10:00     -132.126       -8.696      -16.990       20.906       17.497       14.896      437.075      306.146      221.899        0.939        0.048      132.412       12.670        0.009      332.106        0.552      867.417
01/29/2015  07:11:00     -120.983      -23.760       -9.242       26.210       21.690       16.429      686.971      470.456      269.914        0.836        0.071      123.294       12.327        0.010      332.123        0.581      867.420
01/29/2015  07:12:00     -108.828      -24.637       -7.421       29.158       24.593       14.630      850.218      604.815      214.040        0.709        0.083      111.582       14.632        0.017      332.126        0.586      867.420
01/29/2015  07:13:00      -96.815      -30.757      -15.578       19.888       16.877       10.818      395.548      284.848      117.023        0.568        0.040      101.583        4.133        0.002      332.165        0.650      867.425
01/29/2015  07:14:00      -55.659       -6.427       -4.185       24.942       18.426       13.886      622.107      339.528      192.817        0.216        0.058       56.029       11.847        0.045      332.156        0.634      867.431
01/29/2015  07:15:00      -81.028      -11.512      -13.836       16.631       16.972       15.446      276.580      288.056      238.573        0.385        0.040       81.842        9.065        0.012      332.116        0.569      867.439
01/29/2015  07:16:00      -87.355      -14.892       -9.101       31.244       19.361       20.044      976.206      374.854      401.752        0.484        0.088       88.615       17.905        0.041      332.092        0.530      867.436
01/29/2015  07:17:00      -78.000      -13.085      -10.329       27.078       15.433       14.039      733.217      238.178      197.094        0.376        0.058       79.090        7.538        0.009      332.144        0.615      867.446
01/29/2015  07:18:00      -61.488      -24.243       -6.751       11.643       11.488        8.220      135.560      131.977       67.565        0.237        0.017       66.095        4.114        0.004      332.252        0.795      867.454
01/29/2015  07:19:00      -52.238      -20.416       -8.673       10.869       10.742        9.742      118.126      115.396       94.904        0.177        0.016       56.086        5.952        0.011      332.244        0.782      867.458
01/29/2015  07:20:00      -83.651      -28.679       -8.213       17.716       14.155       12.346      313.860      200.377      152.419        0.428        0.033       88.430        7.931        0.008      332.198        0.706      867.453
01/29/2015  07:21:00      -87.115      -14.511       -7.356       16.517       11.789        8.960      272.796      138.975       80.290        0.417        0.025       88.315        6.268        0.005      332.239        0.773      867.458
01/29/2015  07:22:00      -70.529      -14.512       -7.802       24.163       20.248       16.091      583.870      409.980      258.927        0.325        0.063       72.006       13.611        0.036      332.165        0.651      867.469
01/29/2015  07:23:00      -82.553       -3.566       -6.381       27.392       16.691       12.274      750.299      278.589      150.655        0.402        0.059       82.630        9.320        0.013      332.174        0.665      867.486
01/29/2015  07:24:00      -60.820       -2.316       -5.867       18.781       17.422       11.265      352.742      303.537      126.902        0.226        0.039       60.864        7.445        0.015      332.221        0.743      867.492
01/29/2015  07:25:00      -59.825       -7.282       -4.214       22.744       16.258       10.761      517.298      264.323      115.807        0.227        0.045       60.266        9.814        0.027      332.264        0.813      867.494
01/29/2015  07:26:00      -54.038      -15.556       -9.402       20.480       19.183       13.634      419.414      367.980      185.888        0.211        0.049       56.233       10.788        0.037      332.277        0.836      867.491
01/29/2015  07:27:00      -74.324      -18.350       -7.765       24.924       17.859       14.519      621.225      318.958      210.809        0.354        0.058       76.556        9.406        0.015      332.248        0.788      867.488
01/29/2015  07:28:00      -63.607       -4.368       -8.261       28.612       19.006       14.461      818.643      361.213      209.128        0.276        0.069       63.757       12.025        0.036      332.209        0.725      867.478
01/29/2015  07:29:00      -83.686       -1.396      -10.669       25.232       23.068       14.066      636.678      532.145      197.847        0.424        0.068       83.698       12.569        0.023      332.206        0.719      867.473
01/29/2015  07:30:00      -75.636       -2.926       -2.274       25.925       23.451       17.954      672.087      549.935      322.357        0.364        0.077       75.693       11.839        0.024      332.227        0.752      867.468
01/29/2015  07:31:00     -100.944      -11.273      -11.802       16.853       15.223       12.046      284.034      231.745      145.116        0.556        0.033      101.571        4.196        0.002      332.235        0.767      867.474
01/29/2015  07:32:00      -68.407      -17.124       -9.004       23.037       17.573       10.751      530.718      308.826      115.584        0.300        0.048       70.517        5.695        0.007      332.272        0.827      867.489
01/29/2015  07:33:00      -59.116      -34.745      -16.968       12.656       15.920       10.497      160.176      253.446      110.185        0.276        0.026       68.571        7.242        0.011      332.371        0.989      867.506
01/29/2015  07:34:00      -78.253      -19.183      -14.558       12.964        9.129        8.921      168.066       83.346       79.576        0.352        0.017       80.570        6.732        0.007      332.390        1.022      867.531
01/29/2015  07:35:00      -82.581      -32.139      -10.987       14.007       15.847       12.839      196.199      251.133      164.827        0.429        0.031       88.615        9.460        0.011      332.455        1.128      867.544
01/29/2015  07:36:00      -85.093      -10.062       -6.879       14.731       21.608       11.800      217.002      466.904      139.241        0.411        0.041       85.686        9.600        0.013      332.495        1.194      867.543
01/29/2015  07:37:00      -60.676      -16.312       -2.913       21.382       15.244       10.687      457.190      232.380      114.209        0.238        0.040       62.831        6.085        0.009      332.606        1.377      867.550
01/29/2015  07:38:00      -81.379      -34.347      -11.772       13.483       18.036        9.094      181.778      325.312       82.708        0.427        0.029       88.331        6.321        0.005      332.630        1.418      867.557
01/29/2015  07:39:00      -67.235      -42.042       -7.398       19.984       20.203       12.630      399.371      408.174      159.508        0.365        0.048       79.297        6.936        0.008      332.616        1.394      867.563
01/29/2015  07:40:00      -67.143      -31.094       -4.405       11.698       15.964        7.873      136.850      254.856       61.978        0.297        0.023       73.994        5.605        0.006      332.559        1.300      867.577
01/29/2015  07:41:00      -53.133      -23.168        0.691       33.279       14.053        9.524     1107.478      197.478       90.701        0.238        0.070       57.964       10.733        0.034      332.585        1.344      867.593
01/29/2015  07:42:00      -73.146      -15.342       -2.850       15.417       17.418        8.699      237.699      303.371       75.671        0.311        0.031       74.737        6.935        0.009      332.612        1.388      867.610
01/29/2015  07:43:00      -69.937      -21.251       -4.875       17.260       17.914       10.319      297.900      320.909      106.482        0.305        0.036       73.094        6.781        0.009      332.605        1.377      867.621
01/29/2015  07:44:00      -55.338      -11.558        0.041       24.267       18.819       15.812      588.878      354.170      250.021        0.219        0.060       56.532       15.638        0.077      332.640        1.435      867.629
01/29/2015  07:45:00      -60.118      -21.775        6.114       29.344       15.661       15.261      861.041      245.254      232.884        0.273        0.067       63.940       16.285        0.065      332.598        1.364      867.625
01/29/2015  07:46:00      -64.072       -6.027       -0.366       31.381       16.818       16.037      984.789      282.842      257.201        0.283        0.076       64.355       16.811        0.068      332.619        1.400      867.617
01/29/2015  07:47:00      -87.782      -33.409       -2.048       22.107       24.096       13.868      488.701      580.618      192.334        0.504        0.063       93.925       11.762        0.016      332.635        1.425      867.605
01/29/2015  07:48:00      -80.432      -39.622       -2.585       19.745       22.237       11.328      389.875      494.498      128.328        0.453        0.051       89.662        9.386        0.011      332.715        1.558      867.609
01/29/2015  07:49:00      -91.356      -35.654       -0.200       28.074       25.198       17.607      788.146      634.922      309.996        0.567        0.087       98.067       16.114        0.027      332.698        1.531      867.617
01/29/2015  07:50:00      -88.284      -21.383        2.744       27.954       16.026       16.008      781.443      256.820      256.263        0.478        0.065       90.837       16.218        0.032      332.653        1.456      867.627
01/29/2015  07:51:00      -89.886      -33.017       -4.604       21.661       22.369       11.255      469.203      500.367      126.682        0.514        0.055       95.758       11.552        0.015      332.649        1.450      867.629
01/29/2015  07:52:00     -100.216      -35.102       -7.840       19.965       16.480        9.829      398.616      271.605       96.607        0.605        0.038      106.186       11.139        0.011      332.646        1.444      867.637
01/29/2015  07:53:00      -97.324      -37.620       -8.489       16.860       17.997       11.901      284.244      323.883      141.644        0.585        0.037      104.341        7.886        0.006      332.693        1.522      867.642
01/29/2015  07:54:00     -117.498      -30.707       -9.505       19.333       21.442       14.448      373.760      459.745      208.751        0.794        0.052      121.445        8.975        0.005      332.672        1.487      867.634
01/29/2015  07:55:00     -105.930      -38.491       -6.793       22.202       30.276       14.083      492.925      916.656      198.321        0.718        0.080      112.706       10.902        0.009      332.687        1.511      867.631
01/29/2015  07:56:00      -98.070      -47.093       -1.471       33.037       20.088       18.144     1091.429      403.508      329.189        0.683        0.091      108.791       18.081        0.028      332.695        1.525      867.627
01/29/2015  07:57:00      -82.355      -46.325        2.483       27.310       24.537       18.440      745.828      602.041      340.032        0.531        0.084       94.490       15.632        0.027      332.723        1.571      867.642
01/29/2015  07:58:00      -92.599      -44.777      -19.388       16.569       17.863        9.622      274.543      319.093       92.584        0.582        0.034      102.857        8.170        0.006      332.719        1.564      867.663
01/29/2015  07:59:00      -69.956      -36.050      -11.857       14.811       14.363       12.891      219.377      206.286      166.166        0.346        0.030       78.698        5.837        0.006      332.794        1.690      867.682
01/29/2015  08:00:00      -81.813      -48.148       -3.460       19.776       16.670       11.744      391.074      277.893      137.924        0.492        0.040       94.929        7.510        0.006      332.745        1.608      867.681
01/29/2015  08:01:00      -96.880      -56.170       -4.540       21.928       15.281       17.006      480.825      233.495      289.217        0.678        0.050      111.986       10.011        0.008      332.712        1.553      867.685
01/29/2015  08:02:00     -109.544      -46.466       -8.500       22.606       14.950       14.126      511.043      223.495      199.540        0.758        0.047      118.991       11.945        0.010      332.694        1.523      867.683
01/29/2015  08:03:00      -99.773      -32.214       -1.865       32.129       19.393       15.144     1032.276      376.090      229.347        0.632        0.082      104.845       15.232        0.021      332.730        1.583      867.685
01/29/2015  08:04:00      -86.464      -26.559        0.101       28.957       22.624       16.487      838.496      511.842      271.821        0.490        0.081       90.451       15.390        0.029      332.690        1.517      867.692
01/29/2015  08:05:00      -83.206      -46.058       -7.075       23.843       14.265       14.908      568.493      203.494      222.259        0.504        0.050       95.103       11.253        0.014      332.773        1.654      867.690
01/29/2015  08:06:00      -74.650      -49.509       -3.453       21.635       15.104       13.073      468.069      228.135      170.899        0.445        0.043       89.576        9.760        0.012      332.776        1.659      867.696
01/29/2015  08:07:00      -57.222      -49.467       -1.548       29.906       15.183       14.215      894.381      230.529      202.080        0.353        0.066       75.640       12.605        0.028      332.805        1.708      867.696
01/29/2015  08:08:00      -47.356      -40.290       -5.937       23.087       14.652       12.633      533.015      214.677      159.597        0.240        0.045       62.176        8.753        0.020      332.893        1.852      867.707
01/29/2015  08:09:00      -73.814      -32.868      -10.247       13.636       14.001        7.873      185.949      196.018       61.984        0.354        0.022       80.801        6.049        0.006      332.862        1.804      867.712
01/29/2015  08:10:00      -87.802      -43.133      -11.964       15.593       10.216        7.277      243.142      104.371       52.954        0.506        0.020       97.825        5.581        0.003      332.853        1.785      867.716
01/29/2015  08:11:00      -85.032      -39.011       -8.166       19.114       18.440       15.284      365.327      340.034      233.603        0.488        0.047       93.554       12.170        0.017      332.885        1.840      867.727
01/29/2015  08:12:00      -61.786      -21.458        0.217       12.420       15.788       11.263      154.257      249.269      126.848        0.240        0.027       65.407        5.702        0.008      332.983        1.999      867.741
01/29/2015  08:13:00      -44.371      -24.876       -4.051       13.250       19.437       11.393      175.564      377.792      129.803        0.164        0.034       50.869        7.711        0.023      332.987        2.006      867.743
01/29/2015  08:14:00      -43.536      -13.826       -6.265       10.724       13.021        8.695      115.006      169.542       75.605        0.124        0.018       45.678        4.336        0.009      333.051        2.112      867.752
01/29/2015  08:15:00      -40.505        1.623       -0.391        9.876       14.656       13.903       97.527      214.793      193.290        0.107        0.025       40.538        9.555        0.056      333.085        2.168      867.763
01/29/2015  08:16:00      -33.122        3.667        3.132       11.221       11.140        8.504      125.905      124.100       72.312        0.072        0.016       33.324        3.933        0.014      333.229        2.406      867.766
01/29/2015  08:17:00      -14.528        7.341       10.045       18.975       16.994       13.156      360.053      288.806      173.078        0.059        0.041       16.278       13.824        0.721      333.214        2.381      867.777
01/29/2015  08:18:00       12.695       41.411       -0.692       10.724       12.777       15.612      115.004      163.256      243.742        0.120        0.026       43.313       10.847        0.063      333.058        2.125      867.785
01/29/2015  08:19:00       12.234       46.786       -8.562       14.387       22.800        8.352      206.987      519.834       69.750        0.160        0.040       48.359        8.700        0.032      333.038        2.092      867.782
01/29/2015  08:20:00       12.793       57.428      -12.324       10.103       16.386        7.111      102.064      268.502       50.561        0.202        0.021       58.836        6.564        0.012      332.946        1.939      867.789
01/29/2015  08:21:00        5.290       27.120       -6.270       11.223       17.819        9.954      125.946      317.500       99.078        0.067        0.027       27.631        8.975        0.106      333.010        2.046      867.798
01/29/2015  08:22:00       25.394       23.783       -6.035       12.536       13.581        8.005      157.161      184.453       64.084        0.083        0.020       34.792        5.231        0.023      332.990        2.012      867.791
01/29/2015  08:23:00       21.238       27.183        4.086       13.794       12.866        9.315      190.281      165.538       86.766        0.082        0.022       34.496        8.589        0.062      333.036        2.091      867.797
01/29/2015  08:24:00       40.023       35.506       -8.731       10.552        9.520        8.086      111.352       90.636       65.377        0.160        0.013       53.503        3.921        0.005      333.039        2.094      867.802
01/29/2015  08:25:00       56.661       31.207       -3.652       22.378       16.721       13.000      500.771      279.603      168.990        0.257        0.047       64.686        7.483        0.013      332.986        2.005      867.804
01/29/2015  08:26:00       17.523       18.897        1.468       20.284       13.286       11.339      411.441      176.531      128.574        0.069        0.036       25.771       10.822        0.176      333.001        2.030      867.798
01/29/2015  08:27:00       20.200       14.793        1.881        6.789        3.965        8.475       46.089       15.718       71.822        0.038        0.007       25.038        2.314        0.009      333.022        2.064      867.796
01/29/2015  08:28:00       35.737       34.244       -1.760       10.666        8.406        8.157      113.762       70.660       66.532        0.135        0.013       49.495        3.918        0.006      333.020        2.064      867.796
01/29/2015  08:29:00       33.636       38.692       -9.774       10.061        5.550        8.005      101.222       30.801       64.086        0.146        0.010       51.268        2.851        0.003      333.039        2.096      867.787
01/29/2015  08:30:00       39.786       31.943       -4.350       12.986       12.138       12.764      168.624      147.338      162.931        0.155        0.024       51.022        6.161        0.015      333.084        2.168      867.793
01/29/2015  08:31:00       14.767       15.112       -1.831       15.038        9.766       14.002      226.156       95.372      196.070        0.048        0.026       21.129        8.070        0.146      333.237        2.418      867.800
01/29/2015  08:32:00       22.822       14.872        7.163        9.743       10.065        9.151       94.921      101.302       83.732        0.054        0.014       27.240        4.843        0.032      333.180        2.326      867.800
01/29/2015  08:33:00       31.661       20.691        4.316       14.541       11.835       10.003      211.432      140.073      100.056        0.095        0.023       37.822        7.746        0.042      333.179        2.324      867.815
01/29/2015  08:34:00       50.093       35.082       11.629       16.625       18.311       18.635      276.394      335.301      347.278        0.242        0.048       61.156       11.307        0.034      333.205        2.366      867.820
01/29/2015  08:35:00       22.932       26.601        5.410       20.798       20.003       16.117      432.550      400.133      259.757        0.118        0.055       35.121        6.448        0.034      333.287        2.501      867.814
01/29/2015  08:36:00       22.147       24.512       16.675       24.474       22.523       20.396      599.000      507.284      416.008        0.145        0.076       33.036       13.553        0.168      333.379        2.655      867.819
01/29/2015  08:37:00       46.281       33.699        8.310       19.460       12.804       17.771      378.709      163.940      315.815        0.210        0.043       57.250        6.640        0.013      333.143        2.265      867.821
01/29/2015  08:38:00       23.100       36.723       -8.744       16.637       17.386       14.536      276.778      302.263      211.298        0.137        0.040       43.384        8.397        0.037      333.201        2.359      867.822
01/29/2015  08:39:00       11.663       40.281       -1.876       16.260       13.030       10.648      264.379      169.784      113.380        0.115        0.027       41.935        1.613        0.001      333.200        2.357      867.826
01/29/2015  08:40:00       28.564       49.380       -0.912       19.916       12.470       11.627      396.638      155.491      135.187        0.197        0.034       57.046        5.991        0.011      333.197        2.354      867.838
01/29/2015  08:41:00        3.253       26.615       -2.596       16.489       11.766        9.206      271.899      138.429       84.752        0.061        0.025       26.813        7.953        0.088      333.225        2.399      867.846
01/29/2015  08:42:00       11.694       34.742       -2.601       15.446       13.525       10.385      238.568      182.932      107.854        0.094        0.026       36.658        7.601        0.043      333.269        2.472      867.844
01/29/2015  08:43:00       16.043       27.414       -4.683        9.231       11.770        9.510       85.216      138.540       90.447        0.067        0.016       31.763        3.902        0.015      333.273        2.480      867.856
01/29/2015  08:44:00       24.910       13.912        6.591       11.820       16.382       14.617      139.706      268.373      213.663        0.074        0.031       28.531       12.724        0.199      333.281        2.493      867.862
01/29/2015  08:45:00       26.618       11.084       12.094        8.206        9.415       15.321       67.344       88.651      234.741        0.068        0.020       28.834        7.801        0.073      333.311        2.542      867.862
01/29/2015  08:46:00       -7.350       -0.802        4.335       14.690        9.285       10.987      215.804       86.208      120.722        0.025        0.021        7.393       11.299        2.336      333.434        2.747      867.872
01/29/2015  08:47:00      -30.149       15.501        8.185       18.654       14.235       10.367      347.984      202.641      107.470        0.094        0.033       33.901        6.545        0.037      333.572        2.975      867.877
01/29/2015  08:48:00      -15.797       18.613       10.969       17.411       19.829        9.971      303.151      393.189       99.411        0.076        0.040       24.413        7.100        0.085      333.544        2.928      867.868
01/29/2015  08:49:00      -21.089       28.900        7.730       19.529       21.023       15.972      381.399      441.952      255.116        0.121        0.054       35.777       12.970        0.131      333.518        2.884      867.874
01/29/2015  08:50:00        6.381       36.562      -16.705       18.299       14.646       10.357      334.860      214.508      107.277        0.116        0.033       37.115        8.618        0.054      333.403        2.695      867.883
01/29/2015  08:51:00       23.840       32.199      -10.155       12.630       13.822        8.696      159.514      191.058       75.620        0.107        0.021       40.064        3.870        0.009      333.400        2.691      867.879
01/29/2015  08:52:00        2.619       19.422       -9.663       22.548        9.798        7.896      508.412       95.997       62.345        0.057        0.033       19.598        6.050        0.095      333.472        2.809      867.873
01/29/2015  08:53:00       13.370       28.170        2.468        7.598        9.421       15.449       57.730       88.753      238.665        0.068        0.019       31.182        8.374        0.072      333.515        2.879      867.881
01/29/2015  08:54:00       23.570       28.525        3.531       14.191       10.343       12.546      201.388      106.980      157.391        0.092        0.023       37.002        8.161        0.049      333.501        2.856      867.873
01/29/2015  08:55:00       49.578       42.214        0.543       17.611       17.929       19.501      310.134      321.462      380.305        0.263        0.051       65.115        6.480        0.010      333.529        2.903      867.875
01/29/2015  08:56:00       54.981       40.003       17.781       28.966       19.122       18.753      839.007      365.646      351.680        0.325        0.078       67.994       11.156        0.027      333.501        2.856      867.877
01/29/2015  08:57:00       67.698       49.291        2.917       16.548       20.509       21.922      273.840      420.629      480.565        0.410        0.059       83.742       12.914        0.024      333.444        2.762      867.876
01/29/2015  08:58:00       61.744       56.700       14.934       19.012       15.455       22.826      361.441      238.845      521.045        0.419        0.056       83.828       11.276        0.018      333.432        2.742      867.881
01/29/2015  08:59:00       56.147       41.225       18.768       23.998       17.876       25.184      575.884      319.569      634.245        0.337        0.076       69.656       17.120        0.060      333.521        2.888      867.888
01/29/2015  09:00:00       30.723       45.444       27.428       29.438       18.549       20.867      866.568      344.058      435.420        0.270        0.082       54.854       12.327        0.051      333.628        3.069      867.875
01/29/2015  09:01:00       55.531       48.781        3.482       27.889       15.104       18.782      777.780      228.135      352.751        0.342        0.068       73.914       10.396        0.020      333.523        2.892      867.873
01/29/2015  09:02:00       62.111       43.656        5.905       26.026       21.185       20.530      677.373      448.821      421.477        0.367        0.077       75.919       12.595        0.028      333.562        2.956      867.873
01/29/2015  09:03:00      105.497       47.041        3.351       22.302       26.673       19.037      497.365      711.443      362.423        0.746        0.079      115.509       13.152        0.013      333.517        2.883      867.869
01/29/2015  09:04:00      101.002       41.522        5.064       28.944       27.456       23.842      837.752      753.852      568.453        0.706        0.108      109.204       13.350        0.015      333.555        2.945      867.872
01/29/2015  09:05:00       85.684       50.513       10.692       31.046       22.943       26.121      963.852      526.391      682.301        0.609        0.109       99.465       14.568        0.021      333.559        2.952      867.876
01/29/2015  09:06:00       78.443       41.814       10.838       30.156       28.720       30.745      909.413      824.844      945.252        0.535        0.134       88.892       24.344        0.075      333.613        3.042      867.861
01/29/2015  09:07:00       97.934       63.023        8.289       35.587       29.918       22.966     1266.460      895.074      527.457        0.816        0.134      116.461       18.106        0.024      333.562        2.958      867.866
01/29/2015  09:08:00       80.462       46.790        5.557       49.154       31.315       27.099     2416.158      980.655      734.353        0.641        0.207       93.077       20.732        0.050      333.564        2.960      867.858
01/29/2015  09:09:00       72.301       40.440       -8.326       21.948       29.262       19.547      481.717      856.285      382.092        0.433        0.086       82.842       15.057        0.033      333.580        2.987      867.851
01/29/2015  09:10:00       42.806       38.373        9.779       35.822       26.181       20.477     1283.210      685.470      419.299        0.289        0.119       57.487       11.341        0.039      333.675        3.144      867.857
01/29/2015  09:11:00       62.801       40.272        9.938       46.338       40.038       18.366     2147.252     1603.037      337.299        0.488        0.204       74.604       21.554        0.083      333.686        3.163      867.850
01/29/2015  09:12:00       51.771       32.281        3.164       35.078       29.052       25.040     1230.444      844.031      626.986        0.322        0.135       61.011       13.873        0.052      333.782        3.322      867.853
01/29/2015  09:13:00       17.835       46.408       12.972       26.314       37.078       30.557      692.405     1374.784      933.737        0.282        0.150       49.717       24.193        0.237      333.872        3.473      867.851
01/29/2015  09:14:00       53.932       49.517        7.148       36.814       26.838       20.006     1355.299      720.281      400.230        0.394        0.124       73.216       13.505        0.034      333.827        3.397      867.843
01/29/2015  09:15:00       41.693       55.228       -1.842       25.313       25.152       21.579      640.741      632.617      465.665        0.327        0.087       69.199       16.158        0.055      333.761        3.287      867.849
01/29/2015  09:16:00       37.644       46.977       -6.237       42.261       23.509       25.437     1786.005      552.667      647.060        0.332        0.149       60.199       15.909        0.070      333.844        3.426      867.832
01/29/2015  09:17:00       78.380       55.762       33.621       38.432       32.461       21.199     1477.042     1053.725      449.407        0.668        0.149       96.192       19.689        0.042      333.759        3.283      867.828
01/29/2015  09:18:00       82.344       59.875        6.579       25.813       20.113       24.238      666.323      404.538      587.479        0.603        0.083      101.811       16.047        0.025      333.660        3.120      867.824
01/29/2015  09:19:00       63.206       54.576       21.166       28.256       23.883       31.282      798.377      570.391      978.579        0.488        0.117       83.508        9.382        0.013      333.841        3.421      867.822
01/29/2015  09:20:00       19.321       30.157       44.067       20.990       28.545       16.474      440.573      814.832      271.404        0.238        0.076       35.816        8.174        0.052      334.044        3.757      867.819
01/29/2015  09:21:00       38.999       31.011       29.515       27.762       24.993       17.387      770.734      624.650      302.316        0.253        0.085       49.826       11.918        0.057      333.989        3.666      867.803
01/29/2015  09:22:00       80.100       57.985        4.311       19.928       23.243       23.090      397.121      540.244      533.136        0.563        0.074       98.885       10.881        0.012      333.865        3.459      867.791
01/29/2015  09:23:00       42.587       60.172        4.812       21.501       18.862       21.393      462.273      355.767      457.642        0.337        0.064       73.718        8.860        0.014      333.967        3.628      867.780
01/29/2015  09:24:00       15.521       55.564       62.559       27.290       36.388       19.878      744.735     1324.100      395.128        0.485        0.123       57.691       14.137        0.060      334.133        3.904      867.768
01/29/2015  09:25:00       70.064       60.386       37.607       36.301       20.343       30.118     1317.745      413.833      907.123        0.630        0.132       92.496       27.802        0.090      333.951        3.603      867.771
01/29/2015  09:26:00       82.519       60.616        6.064       23.962       20.715       17.622      574.185      429.119      310.527        0.592        0.066      102.390        8.652        0.007      333.909        3.534      867.773
01/29/2015  09:27:00       47.483       49.784        0.957       28.834       24.233       24.547      831.408      587.227      602.578        0.338        0.101       68.797       12.701        0.034      333.992        3.672      867.778
01/29/2015  09:28:00       59.977       50.084       -1.573       23.512       19.498       12.826      552.792      380.182      164.515        0.360        0.055       78.139        8.041        0.011      333.960        3.617      867.775
01/29/2015  09:29:00       29.525       65.046       -4.000       20.928       18.328       24.105      437.985      335.916      581.054        0.324        0.068       71.433       13.248        0.034      334.168        3.963      867.768
01/29/2015  09:30:00       30.875       33.851        2.078       23.373       27.707       19.059      546.281      767.651      363.230        0.189        0.084       45.817       13.021        0.081      334.253        4.105      867.763
01/29/2015  09:31:00        3.366       20.817       17.707       18.962       36.068       22.807      359.569     1300.910      520.174        0.147        0.109       21.087       21.885        1.077      334.392        4.335      867.763
01/29/2015  09:32:00       24.983       73.450       -8.315       15.651       25.652       16.865      244.968      658.021      284.412        0.364        0.059       77.582       10.386        0.018      334.004        3.692      867.750
01/29/2015  09:33:00       18.327       23.407       -1.711       17.461       19.343       12.085      304.897      374.164      146.036        0.086        0.041       29.728        8.529        0.082      334.108        3.864      867.746
01/29/2015  09:34:00       17.697       25.320        2.956       14.904       15.800       16.264      222.130      249.633      264.527        0.085        0.037       30.891       12.076        0.153      334.298        4.179      867.742
01/29/2015  09:35:00        9.285       25.936       -8.514       16.888       14.401       15.007      285.209      207.394      225.208        0.077        0.036       27.548       11.724        0.181      334.285        4.157      867.722
01/29/2015  09:36:00       -1.408       14.804       20.586       21.682       14.782       12.851      470.117      218.505      165.144        0.075        0.043       14.871       12.694        0.729      334.732        4.900      867.712
01/29/2015  09:37:00       33.954       34.559        9.016       25.787       21.218       23.720      664.958      450.194      562.618        0.205        0.084       48.448       12.118        0.063      334.562        4.618      867.704
01/29/2015  09:38:00       33.710       28.050       16.496       20.002       18.289       24.589      400.096      334.480      604.635        0.177        0.067       43.853       13.896        0.100      334.604        4.686      867.683
01/29/2015  09:39:00       32.906       37.462       11.516       23.997       28.294       28.586      575.840      800.563      817.150        0.241        0.110       49.862       20.200        0.164      334.739        4.911      867.663
01/29/2015  09:40:00       10.063       44.465        2.090       22.797       37.661       27.707      519.711     1418.333      767.666        0.239        0.135       45.590       26.304        0.333      334.915        5.204      867.650
01/29/2015  09:41:00       13.398       71.285       11.987       31.708       30.693       34.485     1005.398      942.067     1189.206        0.427        0.157       72.533       23.678        0.107      334.729        4.894      867.634
01/29/2015  09:42:00       33.364       58.642       -9.992       26.972       29.692       21.329      727.500      881.629      454.911        0.336        0.103       67.469       13.634        0.041      334.871        5.130      867.617
01/29/2015  09:43:00       42.423       61.229        8.057       52.722       19.237       24.611     2779.569      370.044      605.681        0.468        0.188       74.490       13.921        0.035      334.983        5.317      867.604
01/29/2015  09:44:00       80.542       79.861        3.391       29.128       22.410       24.457      848.461      502.186      598.169        0.741        0.097      113.423        7.945        0.005      334.692        4.833      867.596
01/29/2015  09:45:00       12.077       49.329      -11.203       25.025       31.175       20.580      626.231      971.855      423.528        0.236        0.101       50.786       15.500        0.093      334.687        4.824      867.590
01/29/2015  09:46:00       20.137       30.233        0.807       17.431       15.799       27.107      303.845      249.615      734.779        0.130        0.064       36.325       10.701        0.087      334.885        5.153      867.584
01/29/2015  09:47:00       30.077       24.414        4.182       29.593       30.275       29.788      875.726      916.568      887.341        0.210        0.134       38.738       15.648        0.163      335.102        5.513      867.591
01/29/2015  09:48:00       22.373       48.244       44.685       26.543       45.060       33.858      704.545     2030.424     1146.360        0.435        0.194       53.179       26.489        0.248      335.425        6.050      867.592
01/29/2015  09:49:00      107.631       85.718       53.600       37.930       30.384       36.236     1438.693      923.194     1313.054        1.274        0.184      137.594       26.769        0.038      334.823        5.050      867.585
01/29/2015  09:50:00       31.108       59.949       57.581       44.193       37.576       42.113     1953.054     1411.981     1773.470        0.651        0.257       67.539       39.500        0.342      335.000        5.345      867.583
01/29/2015  09:51:00       49.645       52.380       58.147       57.504       39.778       38.828     3306.675     1582.295     1507.608        0.749        0.320       72.168       35.270        0.239      335.140        5.575      867.578
01/29/2015  09:52:00       98.084       78.132       43.248       33.685       24.940       31.314     1134.684      621.985      980.540        1.017        0.137      125.399       16.684        0.018      334.879        5.143      867.569
01/29/2015  09:53:00       55.722       74.316       50.196       35.723       28.610       29.948     1276.168      818.527      896.887        0.707        0.150       92.886       26.258        0.080      335.019        5.375      867.572
01/29/2015  09:54:00       56.870       65.543       34.036       32.080       21.933       36.641     1029.136      481.058     1342.599        0.577        0.143       86.776       26.605        0.094      335.187        5.654      867.582
01/29/2015  09:55:00      125.673      101.661       49.312       44.388       30.498       35.394     1970.290      930.127     1252.742        1.636        0.208      161.644       28.123        0.030      335.003        5.349      867.586
01/29/2015  09:56:00       96.207       94.446      -10.865       43.194       39.359       35.745     1865.758     1549.159     1277.720        1.149        0.235      134.817       21.786        0.026      335.059        5.442      867.589
01/29/2015  09:57:00       67.547       47.724       27.013       47.983       54.913       31.409     2302.356     3015.387      986.522        0.694        0.315       82.706       14.834        0.032      335.394        5.998      867.596
01/29/2015  09:58:00        1.978       -8.146       22.069       40.206       32.297       30.567     1616.528     1043.065      934.333        0.208        0.180        8.383       23.383        7.781      335.400        6.008      867.602
01/29/2015  09:59:00       13.399      -10.339       32.584       32.561       34.125       24.310     1060.242     1164.492      590.956        0.208        0.141       16.924       17.549        1.075      335.756        6.602      867.618
01/29/2015  10:00:00       11.124       26.151       59.093       29.513       31.980       26.899      871.031     1022.723      723.580        0.346        0.131       28.418       18.650        0.431      335.742        6.578      867.622
01/29/2015  10:01:00       35.208       42.200       73.047       52.632       34.617       37.428     2770.167     1198.369     1400.886        0.686        0.268       54.958       30.989        0.318      335.635        6.401      867.637
01/29/2015  10:02:00       68.973       83.869       87.632       70.823       64.123       50.491     5015.907     4111.697     2549.322        1.557        0.584      108.588       54.074        0.248      335.243        5.749      867.636
01/29/2015  10:03:00       43.736      107.536      105.378       53.581       45.676       39.294     2870.948     2086.339     1543.998        1.554        0.325      116.089       35.017        0.091      335.246        5.753      867.633
01/29/2015  10:04:00       46.894      104.734      110.147       44.976       41.968       23.742     2022.882     1761.332      563.688        1.482        0.217      114.752       20.849        0.033      335.263        5.780      867.640
01/29/2015  10:05:00       11.926       97.327      104.736       23.366       34.485       18.012      545.957     1189.224      324.425        1.132        0.103       98.055       21.415        0.048      335.244        5.749      867.645
01/29/2015  10:06:00       18.857       59.894       76.785       37.322       43.160       28.169     1392.919     1862.773      793.519        0.694        0.202       62.793       29.570        0.222      335.602        6.345      867.641
01/29/2015  10:07:00       90.166       88.163       86.298       56.717       49.278       45.485     3216.823     2428.284     2068.922        1.553        0.386      126.106       39.141        0.096      335.352        5.929      867.638
01/29/2015  10:08:00       96.740       89.882       69.996       75.108       43.424       44.461     5641.159     1885.645     1976.800        1.592        0.475      132.051       46.325        0.123      335.286        5.819      867.648
01/29/2015  10:09:00       76.198       54.401       49.239       46.256       30.013       33.436     2139.619      900.783     1117.962        0.767        0.208       93.625       25.294        0.073      335.248        5.756      867.657
01/29/2015  10:10:00       34.669       41.549       41.826       37.507       30.176       24.272     1406.775      910.621      589.134        0.379        0.145       54.113       15.551        0.083      335.384        5.981      867.654
01/29/2015  10:11:00        3.459      -20.548       17.161       23.020       28.088       28.635      529.919      788.957      819.986        0.143        0.107       20.837       16.339        0.615      335.676        6.468      867.637
01/29/2015  10:12:00       41.547       42.591       60.456       87.174       47.719       47.407     7599.238     2277.059     2247.390        0.966        0.606       59.499       39.555        0.442      335.831        6.726      867.613
01/29/2015  10:13:00       44.343       32.311       14.225       50.640       40.265       40.638     2564.364     1621.301     1651.409        0.452        0.292       54.867       23.920        0.190      335.699        6.507      867.601
01/29/2015  10:14:00       56.092       62.811       20.973       40.285       31.134       34.260     1622.906      969.315     1173.737        0.565        0.188       84.211       23.876        0.080      335.553        6.263      867.599
01/29/2015  10:15:00       79.136       73.422       65.916       75.248       45.557       53.371     5662.202     2075.485     2848.474        1.329        0.529      107.951       42.336        0.154      335.611        6.359      867.590
01/29/2015  10:16:00       -2.975       27.259       54.468       37.956       44.144       34.649     1440.655     1948.697     1200.576        0.415        0.229       27.421       29.918        1.190      335.841        6.743      867.575
01/29/2015  10:17:00       38.888       37.576       33.822       33.975       33.203       31.788     1154.294     1102.420     1010.471        0.367        0.163       54.076       22.996        0.181      335.745        6.584      867.567
01/29/2015  10:18:00       55.085       23.229       -0.017       34.323       76.587       22.760     1178.100     5865.599      518.037        0.557        0.378       59.783        4.135        0.005      335.652        6.429      867.541
01/29/2015  10:19:00       15.318       28.735       63.873       39.445       49.224       30.766     1555.881     2422.997      946.521        0.503        0.246       32.563       27.272        0.701      336.079        7.140      867.521
01/29/2015  10:20:00       14.566       44.784       51.116       49.859       46.068       33.627     2485.924     2122.303     1130.750        0.528        0.287       47.093       22.810        0.235      336.194        7.331      867.501
01/29/2015  10:21:00       36.128       53.756       58.483       67.849       44.198       50.684     4603.532     1953.491     2568.907        0.837        0.456       64.768       31.290        0.233      335.926        6.885      867.502
01/29/2015  10:22:00       76.705       53.174       25.517       59.766       37.572       33.148     3571.983     1411.689     1098.771        0.772        0.304       93.333       23.159        0.062      335.977        6.971      867.493
01/29/2015  10:23:00      100.671       51.315       -4.922       49.967       41.336       39.617     2496.669     1708.633     1569.475        0.928        0.289      112.995       25.522        0.051      335.898        6.837      867.480
01/29/2015  10:24:00      148.575       83.954       24.688       72.301       55.115       50.905     5227.467     3037.699     2591.343        2.029        0.543      170.654       28.168        0.027      335.827        6.720      867.471
01/29/2015  10:25:00       28.559       26.455       36.435       43.901       43.093       32.509     1927.271     1857.041     1056.827        0.384        0.242       38.929       17.184        0.195      336.221        7.376      867.481
01/29/2015  10:26:00       60.536       55.635       55.472       32.861       30.471       35.281     1079.827      928.484     1244.764        0.654        0.163       82.218       22.480        0.075      335.589        6.324      867.481
01/29/2015  10:27:00       29.025       60.401        7.716       29.431       22.777       13.913      866.159      518.771      193.577        0.306        0.079       67.013       10.250        0.023      335.540        6.241      867.475
01/29/2015  10:28:00        8.513       36.100       30.157       19.805       23.665       17.067      392.245      560.033      291.290        0.176        0.062       37.090       10.705        0.083      336.001        7.011      867.464
01/29/2015  10:29:00       16.782      -13.177       23.605       42.996       82.111       39.109     1848.615     6742.173     1529.546        0.556        0.506       21.338       45.036        4.455      335.909        6.857      867.432
01/29/2015  10:30:00       21.851      -43.863       24.806       42.013       78.462       33.408     1765.085     6156.345     1116.121        0.603        0.452       49.004       44.124        0.811      336.071        7.127      867.417
01/29/2015  10:31:00       13.166      -19.819       34.346       25.065       43.415       23.883      628.258     1884.862      570.377        0.241        0.154       23.794       13.719        0.332      336.384        7.651      867.404
01/29/2015  10:32:00        6.249       32.865        1.942       28.176       37.808       22.321      793.877     1429.445      498.240        0.192        0.136       33.453       10.461        0.098      336.418        7.707      867.402
01/29/2015  10:33:00        0.581       45.582       38.714       43.753       50.128       31.172     1914.286     2512.859      971.724        0.449        0.270       45.586       24.124        0.280      336.716        8.204      867.396
01/29/2015  10:34:00       67.129       47.802       11.273       58.780       40.225       30.479     3455.067     1618.036      928.999        0.646        0.300       82.410       16.318        0.039      336.149        7.256      867.387
01/29/2015  10:35:00        6.992       12.815       43.802       44.759       34.301       26.953     2003.387     1176.582      726.463        0.302        0.195       14.598       25.141        2.966      336.589        7.992      867.381
01/29/2015  10:36:00       38.863       50.441       65.527       42.035       53.763       38.724     1766.971     2890.497     1499.543        0.725        0.308       63.676       34.819        0.299      336.442        7.747      867.375
01/29/2015  10:37:00       -1.062       43.585       70.463       28.029       46.291       33.352      785.651     2142.811     1112.340        0.545        0.202       43.598       27.465        0.397      336.624        8.050      867.368
01/29/2015  10:38:00       81.496       93.332       61.611       63.455       35.313       56.024     4026.571     1247.041     3138.633        1.378        0.421      123.905       51.500        0.173      336.058        7.105      867.363
01/29/2015  10:39:00      144.676       91.115       39.779       53.562       39.346       37.743     2868.849     1548.104     1424.498        1.833        0.292      170.977       21.581        0.016      335.965        6.949      867.349
01/29/2015  10:40:00       26.572       22.615       16.689       31.254       31.119       35.214      976.782      968.366     1239.999        0.234        0.159       34.892       20.513        0.346      336.370        7.627      867.347
01/29/2015  10:41:00       38.735       60.920       58.968       48.453       52.638       41.773     2347.674     2770.776     1745.004        0.777        0.343       72.192       32.263        0.200      336.427        7.722      867.326
01/29/2015  10:42:00       32.241       82.882       82.295       52.854       50.558       43.830     2793.557     2556.118     1921.111        1.097        0.364       88.932       34.710        0.152      336.592        7.996      867.318
01/29/2015  10:43:00       92.873      109.300       77.513       53.136       37.625       48.353     2823.405     1415.635     2338.059        1.658        0.329      143.430       33.981        0.056      336.312        7.527      867.303
01/29/2015  10:44:00      103.288       99.951      101.933       67.087       62.343       52.625     4500.681     3886.641     2769.361        2.110        0.558      143.731       41.674        0.084      336.295        7.499      867.282
01/29/2015  10:45:00       18.456       57.785       96.012       45.733       45.253       25.939     2091.468     2047.875      672.815        0.885        0.241       60.661       20.347        0.113      336.600        8.012      867.265
01/29/2015  10:46:00       29.613       72.543       60.605       39.845       41.205       29.903     1587.595     1697.863      894.214        0.700        0.209       78.354       12.764        0.027      336.806        8.355      867.251
01/29/2015  10:47:00       -2.006       78.949      105.605       38.323       49.402       42.091     1468.667     2440.556     1771.684        1.153        0.284       78.975       41.458        0.276      336.800        8.345      867.245
01/29/2015  10:48:00       68.734       98.037       80.203       46.641       37.902       29.939     2175.359     1436.558      896.338        1.264        0.225      119.731       28.511        0.057      336.413        7.698      867.223
01/29/2015  10:49:00       46.503       56.855       81.047       64.588       54.548       44.532     4171.627     2975.479     1983.059        1.055        0.457       73.451       46.872        0.407      336.455        7.767      867.208
01/29/2015  10:50:00       89.617       62.936       61.114       51.772       45.428       51.927     2680.292     2063.686     2696.389        1.158        0.372      109.509       34.928        0.102      336.412        7.697      867.185
01/29/2015  10:51:00       78.082       67.442       35.826       53.326       38.397       46.177     2843.651     1474.308     2132.311        0.919        0.323      103.176       40.674        0.155      336.486        7.819      867.175
01/29/2015  10:52:00       35.780      112.093      -15.357       31.687       59.066       28.953     1004.094     3488.778      838.252        0.971        0.267      117.665       22.607        0.037      336.515        7.867      867.156
01/29/2015  10:53:00       29.445      111.280       -4.448       30.394       36.093       31.312      923.771     1302.696      980.467        0.824        0.160      115.110       23.172        0.041      336.653        8.099      867.144
01/29/2015  10:54:00       45.518       74.472       -7.953       22.772       39.990       37.152      518.553     1599.200     1380.239        0.559        0.175       87.281       24.350        0.078      336.578        7.974      867.144
01/29/2015  10:55:00       49.624       55.595        6.410       41.999       34.307       44.952     1763.957     1176.942     2020.698        0.528        0.248       74.521       20.944        0.079      336.721        8.213      867.136
01/29/2015  10:56:00       58.938       39.802       37.180       59.578       55.262       39.286     3549.497     3053.889     1543.362        0.729        0.407       71.119       37.161        0.273      336.895        8.503      867.129
01/29/2015  10:57:00       36.367       49.552       54.533       53.020       57.858       54.030     2811.117     3347.511     2919.265        0.791        0.454       61.465       36.065        0.344      337.186        8.989      867.114
01/29/2015  10:58:00      117.253       85.312       49.005       79.821       58.230       54.829     6371.334     3390.785     3006.256        1.810        0.638      145.005       43.775        0.091      336.887        8.488      867.097
01/29/2015  10:59:00      141.116       89.008       39.241       54.208       45.194       40.491     2938.465     2042.456     1639.496        1.800        0.331      166.841       24.743        0.022      336.563        7.946      867.100
01/29/2015  11:00:00       53.346       54.223       28.471       42.363       40.057       39.218     1794.615     1604.602     1538.043        0.577        0.247       76.065       27.757        0.133      336.964        8.619      867.086
01/29/2015  11:01:00       57.135       61.552        4.988       27.269       32.231       30.305      743.577     1038.864      918.376        0.489        0.135       83.983       18.909        0.051      336.736        8.240      867.078
01/29/2015  11:02:00       43.211       31.188       37.620       29.606       23.777       27.488      876.505      565.366      755.611        0.323        0.110       53.291       14.165        0.071      336.965        8.620      867.072
01/29/2015  11:03:00       50.141       45.300       16.704       22.727       18.092       28.769      516.502      327.330      827.631        0.326        0.084       67.573       10.844        0.026      336.722        8.215      867.056
01/29/2015  11:04:00       71.496       81.832       70.392       46.089       29.492       37.931     2124.185      869.762     1438.758        1.060        0.222      108.665       26.781        0.061      337.009        8.694      867.046
01/29/2015  11:05:00       55.859      -41.158       47.262       60.902       99.567       58.140     3709.060     9913.529     3380.223        1.202        0.850       69.385       69.846        1.013      337.135        8.905      867.033
01/29/2015  11:06:00       12.419       44.506       74.971       49.156       43.843       35.050     2416.310     1922.225     1228.515        0.666        0.278       46.206       30.942        0.448      337.629        9.731      867.028
01/29/2015  11:07:00       81.054       74.188       12.294       56.876       39.061       39.839     3234.909     1525.790     1587.107        0.929        0.317      109.881       26.934        0.060      337.042        8.748      867.015
01/29/2015  11:08:00       20.065       19.296        4.322       45.268       34.656       27.011     2049.162     1201.019      729.612        0.239        0.199       27.838        9.808        0.124      337.570        9.633      867.004
01/29/2015  11:09:00       29.947       54.174       71.292       83.774       54.396       50.016     7018.166     2958.945     2501.637        1.069        0.624       61.900       45.409        0.538      337.634        9.742      866.985
01/29/2015  11:10:00       91.501       63.031       31.040       42.483       41.884       42.136     1804.809     1754.242     1775.459        0.932        0.267      111.109        8.224        0.005      337.048        8.760      866.969
01/29/2015  11:11:00      131.016       45.789       38.276       77.313       46.616       41.478     5977.238     2173.094     1720.401        1.530        0.494      138.787       33.909        0.060      337.233        9.068      866.946
01/29/2015  11:12:00       68.592       56.936       44.910       47.841       43.306       51.743     2288.747     1875.407     2677.329        0.840        0.342       89.144       35.802        0.161      337.002        8.682      866.937
01/29/2015  11:13:00       41.924      -35.217       35.625       43.388      106.719       39.939     1882.524    11389.014     1595.104        0.956        0.743       54.753       58.359        1.136      337.147        8.924      866.925
01/29/2015  11:14:00       54.796     -124.847        1.810       51.596       42.279       34.312     2662.164     1787.499     1177.279        1.211        0.281      136.343       23.135        0.029      337.193        9.003      866.904
01/29/2015  11:15:00       39.355       27.089       68.746       49.305       65.119       47.563     2430.993     4240.544     2262.224        0.797        0.447       47.777       47.205        0.976      337.665        9.793      866.897
01/29/2015  11:16:00       96.096       79.109       58.221       40.333       25.906       33.873     1626.751      671.122     1147.386        1.116        0.172      124.469       25.372        0.042      337.070        8.795      866.884
01/29/2015  11:17:00       41.600       15.663       47.780       28.183       64.805       32.303      794.309     4199.705     1043.476        0.515        0.302       44.451       34.316        0.596      337.229        9.063      866.881
01/29/2015  11:18:00       12.913      -22.158       20.711       25.962       21.127       14.590      674.026      446.333      212.868        0.121        0.067       25.646       14.126        0.303      337.529        9.564      866.860
01/29/2015  11:19:00       -2.117       -6.514        4.789       23.224       14.951       14.484      539.353      223.536      209.786        0.052        0.049        6.850       11.230        2.688      337.622        9.721      866.825
01/29/2015  11:20:00       28.036       47.767       54.619       40.956       59.473       49.965     1677.412     3537.040     2496.546        0.688        0.386       55.387       49.308        0.793      337.765        9.960      866.809
01/29/2015  11:21:00      115.021       67.868       32.168       50.765       31.362       35.994     2577.095      983.548     1295.571        1.186        0.243      133.551       26.056        0.038      337.243        9.086      866.793
01/29/2015  11:22:00       90.603       78.065       32.588       65.576       64.055       50.594     4300.148     4103.063     2559.711        1.316        0.548      119.595       30.282        0.064      337.358        9.278      866.773
01/29/2015  11:23:00       76.040       92.569        7.387       70.257       63.265       49.829     4935.986     4002.411     2482.921        1.291        0.571      119.796       34.994        0.085      337.599        9.681      866.764
01/29/2015  11:24:00       92.983       90.697        0.954       59.646       40.631       37.394     3557.628     1650.910     1398.325        1.174        0.330      129.891       29.933        0.053      337.460        9.449      866.759
01/29/2015  11:25:00       39.639      111.321      -10.269       37.255       45.888       37.920     1387.908     2105.697     1437.907        0.950        0.247      118.168       27.780        0.055      337.317        9.210      866.744
01/29/2015  11:26:00       55.167       67.332       35.590       59.533       47.505       49.583     3544.126     2256.681     2458.483        0.855        0.413       87.046       25.304        0.085      337.731        9.903      866.711
01/29/2015  11:27:00      104.953       76.094       -4.122       51.378       41.694       39.936     2639.734     1738.391     1594.856        1.140        0.299      129.636       21.041        0.026      337.554        9.607      866.712
01/29/2015  11:28:00       88.542       53.411        0.124       31.989       26.120       28.324     1023.315      682.246      802.245        0.660        0.125      103.404       14.501        0.020      337.378        9.310      866.692
01/29/2015  11:29:00       31.510       48.338       51.632       59.689       63.024       44.645     3562.774     3972.029     1993.174        0.776        0.476       57.702       36.919        0.409      337.829       10.069      866.683
01/29/2015  11:30:00       95.340       90.419       77.247       97.894       57.992       68.575     9583.310     3363.083     4702.533        2.044        0.882      131.398       64.444        0.241      337.705        9.860      866.661
01/29/2015  11:31:00       85.815      102.232      126.018       67.306       61.212       47.371     4530.144     3746.943     2244.007        2.211        0.526      133.475       45.161        0.114      337.400        9.347      866.658
01/29/2015  11:32:00       70.069       42.735       23.204       63.745       48.461       34.176     4063.412     2348.455     1167.993        0.743        0.379       82.073       22.838        0.077      337.354        9.273      866.652
01/29/2015  11:33:00       70.674        6.159       54.341       64.976      110.610       75.098     4221.898    12234.517     5639.739        1.504        1.105       70.942       80.505        1.288      337.758        9.948      866.620
01/29/2015  11:34:00      128.268       67.689       83.616       80.893       63.047       53.389     6543.614     3974.908     2850.431        2.070        0.668      145.033       46.902        0.105      337.603        9.687      866.609
01/29/2015  11:35:00       57.185       81.757      100.350       83.989       72.529       65.732     7054.117     5260.470     4320.640        1.833        0.832       99.771       61.248        0.377      337.945       10.261      866.579
01/29/2015  11:36:00      115.693      110.590      108.503      113.523       82.835       67.000    12887.531     6861.668     4489.007        3.081        1.212      160.047       65.278        0.166      337.725        9.891      866.555
01/29/2015  11:37:00      144.216      118.427       79.148      120.714       63.498       59.303    14571.752     4031.957     3516.841        3.160        1.106      186.610       62.566        0.112      337.729        9.897      866.543
01/29/2015  11:38:00      100.163       99.689       88.006       96.062       64.236       51.961     9227.935     4126.217     2699.971        2.188        0.803      141.317       52.481        0.138      337.624        9.722      866.524
01/29/2015  11:39:00       54.319       82.601       25.586       58.853       54.776       43.903     3463.717     3000.385     1927.478        0.941        0.420       98.861       41.970        0.180      337.947       10.265      866.511
01/29/2015  11:40:00      101.697       70.611        1.675       53.704       41.932       39.518     2884.080     1758.316     1561.640        1.077        0.310      123.807       27.483        0.049      338.044       10.428      866.485
01/29/2015  11:41:00       41.257       99.641      -10.035       33.968       42.303       32.638     1153.855     1789.562     1065.215        0.787        0.200      107.845       28.693        0.071      337.515        9.542      866.468
01/29/2015  11:42:00       94.443       73.896       24.257       47.812       29.873       34.512     2285.945      892.376     1191.107        0.967        0.218      119.917       16.206        0.018      337.542        9.585      866.443
01/29/2015  11:43:00       71.440      114.644       77.194       66.490       63.878       67.778     4420.944     4080.345     4593.864        1.865        0.655      135.082       53.428        0.156      337.745        9.925      866.424
01/29/2015  11:44:00       81.097       93.956      102.599       79.109       98.026       65.824     6258.206     9609.150     4332.798        2.306        1.010      124.115       67.815        0.299      337.675        9.807      866.414
01/29/2015  11:45:00      114.948      120.862       95.777       67.889       71.330       61.131     4608.918     5087.934     3737.012        2.521        0.672      166.795       47.291        0.080      337.746        9.926      866.385
01/29/2015  11:46:00       67.690      105.267      112.999       90.410       54.898       60.471     8173.897     3013.764     3656.790        2.164        0.742      125.152       55.123        0.194      337.872       10.139      866.370
01/29/2015  11:47:00       91.475       87.351       49.861       59.788       48.469       44.816     3574.595     2349.271     2008.485        1.321        0.397      126.483       24.476        0.037      337.708        9.864      866.360
01/29/2015  11:48:00       60.131       92.584       79.556       73.060       59.188       65.318     5337.770     3503.226     4266.412        1.581        0.655      110.398       53.860        0.238      337.876       10.145      866.334
01/29/2015  11:49:00       31.734       29.720       51.387       52.081       59.310       42.938     2712.401     3517.707     1843.693        0.630        0.404       43.478       42.694        0.964      337.888       10.167      866.321
01/29/2015  11:50:00       39.365       53.145       -9.353       53.154       46.279       31.904     2825.378     2141.771     1017.834        0.522        0.299       66.136       23.849        0.130      337.797       10.012      866.306
01/29/2015  11:51:00      104.060      114.776       12.316       85.832       47.452       51.496     7367.123     2251.738     2651.833        1.821        0.614      154.926       36.394        0.055      337.985       10.329      866.266
01/29/2015  11:52:00       97.738      104.269        4.512       88.733       79.230       54.897     7873.566     6277.468     3013.694        1.880        0.858      142.915       48.435        0.115      337.984       10.326      866.234
01/29/2015  11:53:00      197.793      152.416       28.678       81.013       50.365       49.558     6563.167     2536.681     2456.027        3.736        0.578      249.705       30.281        0.015      337.809       10.032      866.227
01/29/2015  11:54:00      127.026       73.961       34.947       73.023       52.440       43.810     5332.392     2749.979     1919.318        1.641        0.500      146.989       27.360        0.035      338.014       10.377      866.218
01/29/2015  11:55:00       89.826       76.768       27.777       72.785       60.328       59.703     5297.643     3639.408     3564.480        1.362        0.625      118.161       35.839        0.092      338.176       10.648      866.200
01/29/2015  11:56:00      157.127       95.620       11.194       68.279       40.661       38.826     4662.063     1653.282     1507.444        2.089        0.391      183.935       25.700        0.020      337.712        9.870      866.181
01/29/2015  11:57:00      144.332       98.709       58.059       87.124       72.293       52.861     7590.673     5226.314     2794.249        2.478        0.781      174.858       41.272        0.056      338.031       10.404      866.163
01/29/2015  11:58:00      167.221      108.770       23.096       78.231       60.256       45.279     6120.128     3630.727     2050.163        2.606        0.590      199.484       44.696        0.050      337.770        9.966      866.146
01/29/2015  11:59:00       58.603      127.753       -2.437       71.037       67.503       46.929     5046.198     4556.685     2202.295        1.578        0.590      140.553       45.387        0.104      337.837       10.082      866.124
01/29/2015  12:00:00      127.384       90.535       17.205       83.894       57.966       51.174     7038.239     3360.007     2618.743        1.887        0.651      156.280       28.939        0.034      337.981       10.322      866.101
01/29/2015  12:01:00      108.088      148.899      163.184      128.192      101.458       92.327    16433.199    10293.806     8524.262        4.786        1.763      183.995       87.683        0.227      338.174       10.643      866.070
01/29/2015  12:02:00      166.032      119.298       82.296       71.564       59.603       61.890     5121.478     3552.496     3830.372        3.054        0.625      204.447       44.106        0.047      337.864       10.124      866.097
01/29/2015  12:03:00       96.201       69.215       32.049       39.496       38.963       41.753     1559.924     1518.102     1743.276        0.995        0.241      118.513       28.024        0.056      337.950       10.269      866.090
01/29/2015  12:04:00       46.740       49.307       57.576       43.985       54.336       55.204     1934.666     2952.430     3047.510        0.793        0.397       67.940       44.022        0.420      338.253       10.779      866.076
01/29/2015  12:05:00      156.646      107.288       30.992       61.216       40.233       40.117     3747.378     1618.689     1609.381        2.199        0.349      189.865       30.541        0.026      337.858       10.112      866.059
01/29/2015  12:06:00       20.631       54.030       -0.358       35.364       30.149       18.798     1250.642      908.947      353.372        0.293        0.126       57.835       17.257        0.089      337.895       10.178      866.032
01/29/2015  12:07:00        9.299      117.097      -13.096       39.723       86.659       28.964     1577.898     7509.716      838.941        1.195        0.496      117.465       46.199        0.155      338.040       10.420      865.988
01/29/2015  12:08:00       33.617       88.628       50.006       56.646       70.298       66.356     3208.793     4941.866     4403.141        1.202        0.628       94.789       40.147        0.179      338.427       11.072      865.960
01/29/2015  12:09:00      163.290       75.114       34.726       80.817       73.665       62.085     6531.352     5426.530     3854.587        2.466        0.791      179.738       42.158        0.055      338.176       10.648      865.939
01/29/2015  12:10:00      150.688      123.554       23.454       92.673       81.995       63.481     8588.309     6723.195     4029.786        2.893        0.967      194.866       32.149        0.027      338.103       10.523      865.922
01/29/2015  12:11:00       80.810       43.959       29.634       71.738       48.025       38.862     5146.408     2306.446     1510.293        0.915        0.448       91.993       34.305        0.139      338.469       11.142      865.900
01/29/2015  12:12:00      114.265       91.985       21.351      109.422       75.790       41.442    11973.205     5744.140     1717.409        2.070        0.972      146.690       27.457        0.035      338.243       10.761      865.870
01/29/2015  12:13:00      111.362      114.917       -1.758       55.425       68.268       50.691     3071.929     4660.470     2569.527        1.795        0.515      160.023       46.842        0.086      337.975       10.312      865.851
01/29/2015  12:14:00      160.849      113.325       13.009       72.097       52.910       51.869     5198.006     2799.507     2690.411        2.478        0.534      196.761       34.046        0.030      337.963       10.289      865.824
01/29/2015  12:15:00      106.057       65.622       10.141       48.915       49.493       27.876     2392.670     2449.509      777.084        1.064        0.281      124.717       19.541        0.025      337.974       10.312      865.791
01/29/2015  12:16:00      151.662      108.756       32.729       81.182       71.788       61.249     6590.580     5153.524     3751.467        2.570        0.775      186.626       48.783        0.068      338.327       10.901      865.762
01/29/2015  12:17:00      184.926      119.991       75.674       79.875       70.319       70.804     6380.080     4944.765     5013.256        3.533        0.817      220.443       53.151        0.058      338.389       11.003      865.745
01/29/2015  12:18:00      186.550       99.115       45.467       49.852       55.263       43.472     2485.248     3053.966     1889.807        2.706        0.371      211.246       31.481        0.022      338.063       10.456      865.740
01/29/2015  12:19:00       97.907       87.236       45.439       39.470       36.663       49.270     1557.880     1344.167     2427.519        1.229        0.266      131.133       32.834        0.063      338.149       10.605      865.708
01/29/2015  12:20:00       71.438       73.701       93.031       57.205       51.321       34.162     3272.389     2633.851     1167.059        1.313        0.354      102.641       30.735        0.090      338.332       10.911      865.672
01/29/2015  12:21:00      132.575      118.186       99.482      120.536       88.383       85.247    14529.039     7811.487     7267.100        3.552        1.480      177.607       85.372        0.231      338.188       10.669      865.639
01/29/2015  12:22:00      205.789       99.203       22.016       99.852       52.775       60.866     9970.450     2785.191     3704.672        3.456        0.823      228.452       39.475        0.030      338.086       10.498      865.637
01/29/2015  12:23:00       41.791       44.161       20.277       38.730       35.928       28.440     1499.991     1290.821      808.827        0.385        0.180       60.800       19.168        0.099      338.196       10.683      865.613
01/29/2015  12:24:00      -10.213       76.743        6.917       57.418       44.165       37.741     3296.791     1950.506     1424.363        0.636        0.334       77.419       36.231        0.219      338.354       10.948      865.572
01/29/2015  12:25:00       53.148       29.105       26.448       37.403       21.723       30.419     1398.953      471.884      925.336        0.358        0.140       60.596       13.714        0.051      338.325       10.901      865.529
01/29/2015  12:26:00       46.858       47.509       19.701       36.340       32.947       27.927     1320.625     1085.507      779.901        0.401        0.159       66.729       25.298        0.144      338.473       11.148      865.519
01/29/2015  12:27:00       81.455       50.801        6.276       46.394       47.570       36.969     2152.446     2262.949     1366.672        0.752        0.289       95.998       13.358        0.019      338.731       11.582      865.495
01/29/2015  12:28:00      209.641      109.599       38.666       83.421       63.341       62.461     6959.099     4012.100     3901.332        3.616        0.744      236.561        5.561        0.001      338.347       10.932      865.470
01/29/2015  12:29:00      167.825       75.630       49.047      114.476       72.306       82.073    13104.790     5228.127     6736.015        3.068        1.253      184.079       78.176        0.180      338.536       11.251      865.461
01/29/2015  12:30:00       91.525       59.355       38.417       79.510       51.816       46.899     6321.794     2684.942     2199.513        1.229        0.560      109.086       30.148        0.076      338.485       11.168      865.470
01/29/2015  12:31:00      160.762      118.488       20.223       70.514       50.884       43.509     4972.175     2589.226     1892.999        2.487        0.473      199.710       18.826        0.009      338.200       10.687      865.455
01/29/2015  12:32:00      159.532      105.371       24.753       80.372       66.056       46.462     6459.667     4363.374     2158.678        2.507        0.649      191.190       17.990        0.009      338.401       11.025      865.425
01/29/2015  12:33:00      165.008      110.550       32.491       65.432       51.391       41.847     4281.407     2641.075     1751.209        2.459        0.434      198.618       33.221        0.028      338.236       10.748      865.409
01/29/2015  12:34:00       32.282       47.467        7.715       49.086       46.518       27.155     2409.395     2163.882      737.387        0.433        0.266       57.404       27.783        0.234      338.462       11.130      865.389
01/29/2015  12:35:00       20.378       23.927        6.191       34.009       43.409       32.159     1156.591     1884.304     1034.182        0.255        0.204       31.429       20.186        0.413      338.748       11.609      865.376
01/29/2015  12:36:00      146.208      104.798       72.061       61.009       33.960       39.343     3722.159     1153.300     1547.870        2.199        0.321      179.887       29.729        0.027      338.587       11.338      865.366
01/29/2015  12:37:00       92.675      100.903       71.284       74.353       45.201       51.628     5528.324     2043.088     2665.428        1.704        0.512      137.004       45.561        0.111      338.795       11.689      865.343
01/29/2015  12:38:00      126.351      149.746      113.889       92.298       67.601       55.077     8518.895     4569.956     3033.504        3.374        0.806      195.929       52.764        0.073      338.819       11.727      865.337
01/29/2015  12:39:00       83.980       52.264       65.106       86.672      114.520       71.884     7512.031    13114.941     5167.308        1.990        1.290       98.915       58.199        0.346      338.637       11.424      865.318
01/29/2015  12:40:00      115.483      -16.449       86.675      115.905      114.930       85.796    13433.970    13208.824     7360.901        2.756        1.700      116.649       87.405        0.561      338.726       11.572      865.307
01/29/2015  12:41:00       68.200       17.977       55.340       52.137      101.255       51.642     2718.285    10252.531     2666.859        1.183        0.782       70.529       57.308        0.660      338.810       11.714      865.297
01/29/2015  12:42:00       96.079      -20.024       54.120       92.301      113.993       56.193     8519.555    12994.496     3157.637        1.861        1.234       98.144       53.547        0.298      338.897       11.860      865.274
01/29/2015  12:43:00      142.696      103.709      123.176      103.461       96.379       64.479    10704.238     9289.006     4157.566        3.522        1.208      176.403       60.340        0.117      338.609       11.374      865.279
01/29/2015  12:44:00      126.442       94.554      135.525       93.671       89.340       65.289     8774.349     7981.564     4262.636        3.215        1.051      157.886       60.824        0.148      338.561       11.294      865.281
01/29/2015  12:45:00       77.211       79.070       92.928       78.403       48.723       36.402     6147.095     2373.943     1325.090        1.535        0.492      110.515       34.995        0.100      338.567       11.306      865.267
01/29/2015  12:46:00      133.445      146.138      135.174      110.805       83.200       74.646    12277.639     6922.300     5572.080        4.110        1.239      197.899       72.246        0.133      338.555       11.283      865.239
01/29/2015  12:47:00      156.166      130.261       87.964       80.538       71.458       64.328     6486.364     5106.317     4138.101        3.241        0.787      203.361       48.130        0.056      338.632       11.411      865.236
01/29/2015  12:48:00       79.372      105.640      124.944       78.178       82.817       53.044     6111.723     6858.708     2813.619        2.442        0.789      132.135       46.524        0.124      338.956       11.957      865.232
01/29/2015  12:49:00       97.815       79.715       79.291       99.475       79.059       78.789     9895.327     6250.339     6207.650        2.228        1.118      126.184       59.361        0.221      338.741       11.596      865.214
01/29/2015  12:50:00       67.365      115.860      124.277       84.364       69.189       70.712     7117.283     4787.079     5000.167        2.515        0.845      134.021       61.740        0.212      338.593       11.348      865.204
01/29/2015  12:51:00       66.994       55.699       64.464       36.477       34.985       42.411     1330.567     1223.969     1798.663        0.805        0.218       87.124       19.627        0.051      338.445       11.102      865.205
01/29/2015  12:52:00       67.434      -18.719       29.512       48.591       71.123       36.674     2361.052     5058.516     1344.972        0.727        0.438       69.984       48.518        0.481      338.584       11.334      865.178
01/29/2015  12:53:00       66.019      -45.497       13.148       53.521       46.810       28.132     2864.444     2191.137      791.436        0.622        0.292       80.178       36.430        0.206      338.482       11.164      865.148
01/29/2015  12:54:00       -2.149       -3.555       17.210       19.669       33.448       23.897      386.854     1118.789      571.058        0.119        0.104        4.154       24.164       33.842      338.986       12.010      865.110
01/29/2015  12:55:00      -15.515      -55.413        4.560       29.713       51.461       19.680      882.851     2648.207      387.306        0.362        0.196       57.544       13.887        0.058      338.952       11.953      865.082
01/29/2015  12:56:00       65.288     -101.871       -8.301       47.781       35.563       21.675     2283.035     1264.738      469.789        0.936        0.201      120.997       10.683        0.008      338.570       11.313      865.057
01/29/2015  12:57:00       31.791      -84.886       -4.333       63.493       73.601       39.347     4031.393     5417.085     1548.171        0.961        0.550       90.643       44.795        0.244      338.991       12.019      865.038
01/29/2015  12:58:00       34.513     -121.962       -8.372       66.699       66.753       51.367     4448.812     4455.922     2638.527        1.384        0.577      126.751       44.414        0.123      338.969       11.982      865.004
01/29/2015  12:59:00       92.741     -221.900      -22.550       84.036       77.595       41.936     7062.060     6021.014     1758.628        3.659        0.742      240.500       45.884        0.036      338.681       11.495      864.974
01/29/2015  13:00:00       44.866     -151.248       10.937       37.006       60.686       37.711     1369.446     3682.761     1422.134        1.574        0.324      157.763       33.016        0.044      338.892       11.852      864.966
01/29/2015  13:01:00       72.491      -73.844        7.065       57.636       73.868       42.038     3321.900     5456.451     1767.179        1.065        0.527      103.479       48.562        0.220      338.884       11.840      864.950
01/29/2015  13:02:00       64.457       95.773       95.828       66.311       56.876       35.761     4397.156     3234.929     1278.851        1.571        0.446      115.443       23.948        0.043      339.086       12.178      864.935
01/29/2015  13:03:00      128.378      101.735       20.971       70.385       55.426       60.661     4954.060     3072.005     3679.736        1.949        0.585      163.801       30.189        0.034      338.909       11.880      864.913
01/29/2015  13:04:00      116.618       87.084       37.583       72.424       65.047       60.977     5245.200     4231.141     3718.175        1.789        0.660      145.545       43.116        0.088      339.051       12.119      864.889
01/29/2015  13:05:00       57.448       70.458       74.887       72.157       56.142       58.726     5206.614     3151.916     3448.797        1.284        0.590       90.910       46.753        0.264      339.205       12.378      864.873
01/29/2015  13:06:00       67.670      132.047      122.794       78.566       50.190       50.493     6172.596     2519.036     2549.518        2.417        0.562      148.377       32.034        0.047      339.082       12.169      864.852
01/29/2015  13:07:00       39.648      -13.580       45.103       89.853      102.474       52.639     8073.503    10500.852     2770.898        1.256        1.067       41.909       47.347        1.276      339.322       12.576      864.832
01/29/2015  13:08:00      118.921      -65.751       48.900       95.721      104.317       77.697     9162.436    10881.992     6036.751        2.346        1.304      135.888       77.003        0.321      339.035       12.091      864.825
01/29/2015  13:09:00       75.071      -89.104       14.178       55.710       83.304       48.353     3103.629     6939.549     2338.010        1.308        0.619      116.512       54.213        0.217      338.830       11.748      864.810
01/29/2015  13:10:00       30.549      -95.965        8.663       51.939       95.468       45.665     2697.694     9114.088     2085.325        1.206        0.695      100.711       48.428        0.231      339.177       12.331      864.798
01/29/2015  13:11:00       32.705       16.013      -11.776       36.939       42.792       31.024     1364.526     1831.197      962.489        0.281        0.208       36.415        8.816        0.059      338.925       11.908      864.803
01/29/2015  13:12:00       85.510     -125.304        7.992       82.403      123.958       40.151     6790.301    15365.484     1612.129        2.342        1.188      151.700       58.256        0.147      339.137       12.261      864.774
01/29/2015  13:13:00       81.529      -15.914       35.867       81.080      115.570       55.639     6573.932    13356.419     3095.698        1.560        1.151       83.068       65.843        0.628      339.305       12.547      864.760
01/29/2015  13:14:00      145.094       71.706       31.696       44.985       45.755       33.570     2023.667     2093.552     1126.963        1.622        0.262      161.845       16.284        0.010      338.881       11.834      864.779
01/29/2015  13:15:00      158.002       52.580       29.132       83.704       56.746       44.233     7006.367     3220.085     1956.592        2.038        0.609      166.522       27.383        0.027      338.798       11.693      864.762
01/29/2015  13:16:00      106.756       49.692       51.355       89.107       68.972       47.986     7940.106     4757.114     2302.609        1.575        0.750      117.755       42.888        0.133      339.000       12.033      864.730
01/29/2015  13:17:00        5.521       47.240       82.152       37.413       56.696       39.284     1399.754     3214.423     1543.222        0.758        0.308       47.562       36.596        0.592      339.371       12.657      864.711
01/29/2015  13:18:00       84.843      -54.320       25.751       64.715      101.078       58.707     4188.071    10216.836     3446.485        1.433        0.893      100.742       59.908        0.354      339.251       12.457      864.702
01/29/2015  13:19:00      132.413     -107.838        6.072       69.046      136.325       47.151     4767.353    18584.492     2223.176        2.738        1.279      170.770       62.425        0.134      339.112       12.220      864.683
01/29/2015  13:20:00      122.875       -4.160       66.029       79.977       75.486       54.292     6396.252     5698.130     2947.583        1.726        0.752      122.946       46.021        0.140      339.102       12.203      864.679
01/29/2015  13:21:00      103.709       57.143       86.440      107.281       96.345       74.962    11509.267     9282.296     5619.238        2.395        1.321      118.410       78.170        0.436      339.404       12.712      864.664
01/29/2015  13:22:00      143.640       80.041       67.901       95.034       89.713       73.114     9031.542     8048.475     5345.629        2.703        1.121      164.435       54.336        0.109      339.183       12.339      864.666
01/29/2015  13:23:00      134.737       91.748       54.758       84.031       70.359       65.059     7061.220     4950.431     4232.720        2.290        0.812      163.009       49.492        0.092      339.022       12.068      864.668
01/29/2015  13:24:00       52.553       35.706       52.090       73.221       48.668       39.959     5361.299     2368.569     1596.745        0.804        0.466       63.535       30.745        0.234      339.231       12.423      864.633
01/29/2015  13:25:00       39.281       97.088       74.734       62.719       72.445       69.087     3933.651     5248.316     4773.066        1.525        0.698      104.734       55.705        0.283      338.958       11.962      864.613
01/29/2015  13:26:00      -49.181      -24.270      -33.414       42.435       36.764       17.123     1800.756     1351.599      293.200        0.378        0.172       54.844       15.187        0.077      338.815       11.722      864.589
01/29/2015  13:27:00       18.458        0.931       27.622       66.051       43.452       29.540     4362.730     1888.067      872.604        0.411        0.356       18.482       31.462        2.898      339.125       12.244      864.548
01/29/2015  13:28:00       42.947       28.696        1.562       24.554       25.637       22.141      602.885      657.268      490.219        0.221        0.088       51.652       17.283        0.112      339.292       12.524      864.541
01/29/2015  13:29:00       73.906       43.933       42.194       90.006       55.745       61.989     8101.094     3107.470     3842.693        1.211        0.753       85.978       45.033        0.274      339.409       12.723      864.521
01/29/2015  13:30:00      116.609      155.143      175.138      140.445      117.072      103.777    19724.924    13705.764    10769.597        5.626        2.210      194.080      113.375        0.341      339.226       12.412      864.498
01/29/2015  13:31:00      203.711      127.781      124.153      113.157      108.387       79.915    12804.533    11747.759     6386.365        5.208        1.547      240.471       80.353        0.112      339.135       12.257      864.482
01/29/2015  13:32:00      137.118       70.418       43.050       78.445       61.388       59.480     6153.685     3768.481     3537.864        1.953        0.673      154.143       31.283        0.041      339.197       12.365      864.502
01/29/2015  13:33:00       82.956       78.793       53.866      107.857       64.619       63.468    11633.182     4175.656     4028.186        1.791        0.992      114.412       64.991        0.323      339.633       13.100      864.488
01/29/2015  13:34:00       64.337       68.334       76.245       67.346       57.252       41.915     4535.473     3277.846     1756.847        1.209        0.479       93.856       33.591        0.128      339.365       12.648      864.474
01/29/2015  13:35:00      118.612      124.003       98.707       64.773       68.332       58.417     4195.518     4669.234     3412.511        2.573        0.614      171.597       55.362        0.104      339.182       12.338      864.470
01/29/2015  13:36:00       96.392       41.937       50.267       83.360       88.669       52.520     6948.817     7862.234     2758.315        1.557        0.878      105.120       42.449        0.163      339.209       12.386      864.442
01/29/2015  13:37:00        9.950      -73.425       18.781       50.856       78.848       52.846     2586.372     6216.945     2792.677        0.872        0.580       74.096       49.866        0.453      339.639       13.110      864.422
01/29/2015  13:38:00       84.387       54.108       87.072      100.819      110.889       84.257    10164.523    12296.382     7099.236        2.359        1.478      100.244       58.354        0.339      339.676       13.172      864.410
01/29/2015  13:39:00      162.498      194.236      178.377      135.710       93.635       82.851    18417.278     8767.441     6864.239        6.499        1.702      253.245       74.693        0.087      339.075       12.157      864.420
01/29/2015  13:40:00      165.931      138.556      116.951       69.784       85.733       84.699     4869.872     7350.193     7173.928        3.990        0.970      216.173       72.045        0.111      338.864       11.802      864.419
01/29/2015  13:41:00       95.585       33.719       64.280       84.215       82.847       58.223     7092.246     6863.685     3389.931        1.587        0.867      101.358       46.459        0.210      339.269       12.485      864.420
01/29/2015  13:42:00      103.312       76.455       88.674       92.850       66.106       64.250     8621.035     4369.983     4128.103        2.075        0.856      128.525       39.807        0.096      339.263       12.475      864.392
01/29/2015  13:43:00      132.809       79.444       76.571      106.978       74.716       56.472    11444.388     5582.554     3189.071        2.501        1.011      154.756       33.791        0.048      339.133       12.256      864.381
01/29/2015  13:44:00      171.778       70.802       75.320       96.345       93.520       63.459     9282.337     8746.010     4026.999        3.112        1.103      185.797       55.462        0.089      339.098       12.196      864.362
01/29/2015  13:45:00       74.496       66.574       87.573       86.043       70.363       62.479     7403.427     4950.949     3903.645        1.695        0.813       99.909       59.738        0.358      339.238       12.434      864.351
01/29/2015  13:46:00      126.495      126.083      125.733       89.837       72.711       58.649     8070.744     5286.950     3439.743        3.225        0.840      178.600       46.854        0.069      339.119       12.232      864.337
01/29/2015  13:47:00       80.052      116.046      118.763       72.281       67.181       62.239     5224.479     4513.266     3873.739        2.379        0.681      140.979       55.439        0.155      339.099       12.200      864.320
01/29/2015  13:48:00       53.258      -29.344       -0.944       47.684       72.736       25.575     2273.772     5290.484      654.059        0.596        0.411       60.807       21.257        0.122      339.196       12.364      864.298
01/29/2015  13:49:00       51.005        5.009       22.663       40.578       44.466       23.811     1646.567     1977.229      566.946        0.366        0.210       51.250       18.151        0.125      339.423       12.748      864.278
01/29/2015  13:50:00        0.327      -27.422       17.664       56.402       52.076       37.424     3181.149     2711.917     1400.559        0.418        0.365       27.424       25.533        0.867      339.630       13.096      864.257
01/29/2015  13:51:00       65.376      -52.743       20.301       66.594       58.940       36.037     4434.764     3473.921     1298.664        0.834        0.460       83.999       27.097        0.104      339.430       12.758      864.263
01/29/2015  13:52:00      100.382       -1.231       53.620      108.017      113.960       69.168    11667.643    12986.864     4784.186        2.119        1.472      100.390       74.694        0.554      339.499       12.871      864.251
01/29/2015  13:53:00       21.343       58.157       89.328       74.616       75.437       59.117     5567.524     5690.677     3494.849        1.328        0.738       61.949       45.555        0.541      339.656       13.139      864.243
01/29/2015  13:54:00        3.061      102.661      138.914       58.994       67.308       52.786     3480.328     4530.393     2786.409        2.032        0.540      102.707       45.462        0.196      339.716       13.239      864.247
01/29/2015  13:55:00      131.435        8.890       78.691       99.812       94.227       63.163     9962.414     8878.809     3989.545        2.318        1.142      131.735       68.414        0.270      339.198       12.367      864.250
01/29/2015  13:56:00      120.800     -118.868        8.731       59.538       59.517       33.202     3544.830     3542.295     1102.356        1.849        0.409      169.476       29.563        0.030      339.146       12.279      864.247
01/29/2015  13:57:00       39.349      -46.968        4.333       35.677       63.056       41.834     1272.845     3976.063     1750.109        0.538        0.350       61.273       38.112        0.387      339.307       12.550      864.223
01/29/2015  13:58:00       45.168      -96.349        0.058       60.052       98.949       46.707     3606.255     9790.840     2181.525        1.345        0.779      106.410       47.084        0.196      339.546       12.951      864.211
01/29/2015  13:59:00      128.583     -203.857      -29.545       72.375       86.911       39.035     5238.097     7553.459     1523.758        3.664        0.716      241.021       44.394        0.034      339.226       12.412      864.201
01/29/2015  14:00:00       40.389      -54.306       40.552       58.056       84.488       55.046     3370.530     7138.201     3030.030        0.988        0.677       67.679       65.310        0.931      339.506       12.885      864.202
01/29/2015  14:01:00       79.716      -71.372       15.997       59.343       62.098       46.606     3521.645     3856.171     2172.111        1.063        0.477      106.998       42.127        0.155      339.546       12.954      864.209
01/29/2015  14:02:00        4.053      -16.275       44.703       40.009       57.611       41.981     1600.758     3319.030     1762.434        0.448        0.334       16.772       45.624        7.400      339.766       13.325      864.190
01/29/2015  14:03:00       53.890      -86.453       -2.356       68.002      101.560       48.812     4624.229    10314.382     2382.569        1.385        0.866      101.874       47.025        0.213      339.452       12.794      864.191
01/29/2015  14:04:00       72.426      -25.698      110.008       81.380      130.642       75.144     6622.725    17067.272     5646.681        2.367        1.467       76.850       67.925        0.781      339.408       12.720      864.165
01/29/2015  14:05:00       66.189       64.412      129.957       81.479      105.050       70.053     6638.791    11035.399     4907.398        2.400        1.129       92.357       71.586        0.601      339.218       12.401      864.172
01/29/2015  14:06:00      182.987     -176.642        7.843      118.777      124.058       80.471    14107.979    15390.426     6475.653        5.035        1.799      254.335       97.119        0.146      339.173       12.320      864.165
01/29/2015  14:07:00       49.714       28.234       51.615       63.160       97.434       64.665     3989.137     9493.406     4181.534        1.180        0.883       57.172       49.513        0.750      339.413       12.729      864.172
01/29/2015  14:08:00      137.424      108.398       62.671       98.319       84.099       82.581     9666.712     7072.562     6819.656        2.906        1.178      175.030       66.914        0.146      339.144       12.273      864.169
01/29/2015  14:09:00      153.403      126.138        7.730       66.928       50.732       48.786     4479.346     2573.743     2380.068        2.447        0.472      198.604       34.936        0.031      338.980       11.998      864.167
01/29/2015  14:10:00       25.774      116.332       -1.355       69.585       82.934       35.599     4842.124     6878.097     1267.313        1.359        0.649      119.153       28.070        0.055      339.060       12.134      864.130
01/29/2015  14:11:00       10.377       28.234        6.503       32.743       33.835       26.822     1072.137     1144.791      719.431        0.194        0.147       30.081       15.087        0.252      339.277       12.499      864.127
01/29/2015  14:12:00       79.491       61.330        6.923       68.719       51.741       39.307     4722.311     2677.158     1545.020        0.953        0.447      100.401       35.182        0.123      339.265       12.479      864.117
01/29/2015  14:13:00      195.400       51.642       27.207       89.084       71.934       59.230     7935.896     5174.493     3508.167        2.910        0.831      202.109       45.342        0.050      339.191       12.354      864.108
01/29/2015  14:14:00       93.662       72.978       25.968       83.766       72.655       57.888     7016.733     5278.797     3351.021        1.521        0.782      118.736       50.533        0.181      339.252       12.457      864.093
01/29/2015  14:15:00      130.486      131.882        1.361       94.804       82.500       66.501     8987.774     6806.234     4422.381        2.732        1.011      185.525       53.079        0.082      339.156       12.295      864.094
01/29/2015  14:16:00      159.453       96.146       25.281       70.036       56.714       46.666     4905.095     3216.522     2177.683        2.280        0.515      186.197       25.151        0.018      339.140       12.267      864.098
01/29/2015  14:17:00       50.191       94.750       -8.142       55.299       58.216       45.974     3057.971     3389.061     2113.605        1.006        0.428      107.222       30.131        0.079      339.280       12.504      864.080
01/29/2015  14:18:00       89.571       15.374       38.043      113.274       54.018       45.268    12830.938     2917.931     2049.169        1.375        0.890       90.881       33.689        0.137      339.536       12.936      864.071
01/29/2015  14:19:00       40.108      102.527      123.839       82.593       81.519       75.970     6821.601     6645.326     5771.453        2.334        0.962      110.093       64.288        0.341      339.565       12.985      864.044
01/29/2015  14:20:00      183.789      105.704       75.806      128.544       76.251       85.596    16523.475     5814.228     7326.731        4.018        1.483      212.018       70.807        0.112      339.200       12.368      864.044
01/29/2015  14:21:00      135.775       55.305       16.721       91.164       50.845       53.437     8310.886     2585.220     2855.537        1.776        0.688      146.607       51.950        0.126      339.191       12.356      864.061
01/29/2015  14:22:00       41.142       39.070       39.914       47.419       37.277       41.363     2248.577     1389.539     1710.870        0.508        0.267       56.737       21.695        0.146      339.503       12.880      864.053
01/29/2015  14:23:00      118.923       74.264       81.562       86.064       74.084       69.506     7407.039     5488.510     4831.104        2.202        0.886      140.206       49.936        0.127      339.547       12.953      864.052
01/29/2015  14:24:00       46.320       42.345       38.062       72.744       59.868       52.707     5291.617     3584.179     2778.018        0.852        0.583       62.758       47.125        0.564      339.844       13.456      864.063
01/29/2015  14:25:00       31.024       46.921       74.420       42.262       48.162       38.493     1786.104     2319.577     1481.746        0.714        0.279       56.250       31.707        0.318      339.824       13.424      864.053
01/29/2015  14:26:00      102.055       51.401       41.459       87.049       65.086       44.922     7577.598     4236.140     2018.014        1.430        0.692      114.268       36.428        0.102      339.589       13.025      864.056
01/29/2015  14:27:00      113.124       74.338       45.604       92.177       97.087       70.977     8496.574     9425.938     5037.673        2.168        1.148      135.364       51.624        0.145      339.513       12.895      864.056
01/29/2015  14:28:00      226.103      111.070       83.681      165.450       94.783       88.746    27373.784     8983.802     7875.771        5.734        2.212      251.911       95.072        0.142      339.289       12.517      864.045
01/29/2015  14:29:00       57.527       62.673       61.371       71.097       66.469       57.127     5054.733     4418.156     3263.526        1.187        0.637       85.072       45.602        0.287      339.798       13.378      864.059
01/29/2015  14:30:00      150.674      114.816       72.783      122.547      103.442       88.413    15017.727    10700.169     7816.854        3.735        1.677      189.434       73.455        0.150      339.353       12.626      864.052
01/29/2015  14:31:00      101.384       91.396       43.073       76.373       52.793       52.148     5832.856     2787.146     2719.397        1.591        0.567      136.499       35.532        0.068      339.414       12.732      864.042
01/29/2015  14:32:00      173.131       95.740       55.064       98.347       83.397       55.056     9672.129     6955.110     3031.198        3.091        0.983      197.839       37.704        0.036      339.278       12.499      864.036
01/29/2015  14:33:00      201.290      100.892       34.935       94.249       75.158       69.363     8882.872     5648.673     4811.278        3.563        0.967      225.159       42.317        0.035      339.283       12.508      864.026
01/29/2015  14:34:00      279.415      191.506       28.178       99.423       73.938       60.819     9884.886     5466.821     3698.903        6.729        0.953      338.744       37.222        0.012      339.148       12.280      864.019
01/29/2015  14:35:00      151.828       96.415       12.769      105.409       78.553       70.622    11110.985     6170.581     4987.461        2.739        1.113      179.855       45.527        0.064      339.197       12.362      864.021
01/29/2015  14:36:00       60.242      108.858      -10.781       69.499       53.596       33.127     4830.124     2872.580     1097.378        1.220        0.440      124.415       17.721        0.020      339.109       12.216      864.028
01/29/2015  14:37:00       31.486      138.296      -31.282       56.639       64.092       27.729     3207.929     4107.740      768.923        1.459        0.404      141.835       11.617        0.007      339.094       12.190      864.016
01/29/2015  14:38:00      -19.331        3.483      -17.980       21.567       55.228       18.482      465.123     3050.141      341.572        0.228        0.193       19.643       22.993        1.370      339.250       12.456      863.994
01/29/2015  14:39:00       79.187      -86.449       11.749       62.302       76.858       44.919     3881.508     5907.205     2017.696        1.284        0.590      117.235       38.873        0.110      339.431       12.760      863.989
01/29/2015  14:40:00       82.373       83.178       79.155      109.364       90.044       84.904    11960.376     8107.951     7208.682        2.362        1.364      117.063       54.362        0.216      339.446       12.783      863.983
01/29/2015  14:41:00      209.680      181.848      156.058      153.148      100.439      104.811    23454.431    10087.978    10985.339        7.295        2.226      277.550       79.295        0.082      339.283       12.507      863.953
01/29/2015  14:42:00       95.892       62.216      106.642      111.801      106.832       73.763    12499.535    11413.094     5441.020        2.689        1.468      114.307       71.618        0.393      339.510       12.890      863.968
01/29/2015  14:43:00      158.892      161.492      120.043      110.667      102.145      113.345    12247.172    10433.615    12847.073        5.063        1.776      226.554       89.912        0.158      339.262       12.471      863.978
01/29/2015  14:44:00       34.418       -0.904       78.069       52.813      110.755       63.386     2789.199    12266.758     4017.774        1.317        0.954       34.430       77.845        5.112      339.520       12.909      863.988
01/29/2015  14:45:00       87.690      -31.062       47.981       99.378       95.369       58.777     9875.922     9095.260     3454.691        1.669        1.121       93.029       70.295        0.571      339.627       13.089      863.975
01/29/2015  14:46:00      103.264       81.256      111.061       90.120       74.589       55.948     8121.615     5563.562     3130.154        2.321        0.841      131.400       40.985        0.097      339.552       12.961      863.979
01/29/2015  14:47:00      113.360       72.247       89.965      105.245       87.619       70.552    11076.458     7677.016     4977.569        2.494        1.187      134.425       71.069        0.280      339.628       13.090      863.971
01/29/2015  14:48:00       29.513       33.518       55.421       58.356       73.407       58.940     3405.402     5388.622     3473.880        0.866        0.613       44.659       52.605        1.387      339.766       13.323      863.970
01/29/2015  14:49:00      131.003      171.539      162.536      101.967       78.460       59.577    10397.248     6156.034     3549.402        4.655        1.005      215.841       54.326        0.063      339.399       12.702      863.964
01/29/2015  14:50:00      169.892      134.717      117.774       96.811       81.928       69.092     9372.335     6712.169     4773.643        4.087        1.043      216.822       62.286        0.083      339.298       12.532      863.967
01/29/2015  14:51:00       56.758       31.726       88.457       65.624       92.566       52.258     4306.551     8568.461     2730.855        1.383        0.780       65.023       52.138        0.643      339.417       12.735      863.972
01/29/2015  14:52:00       67.863       82.410       61.703       85.400       67.703       82.528     7293.092     4583.738     6810.790        1.694        0.934      106.756       60.470        0.321      339.399       12.705      863.963
01/29/2015  14:53:00       47.822       55.277       58.372       68.230       52.811       43.824     4655.399     2789.040     1920.514        0.906        0.468       73.092       32.632        0.199      339.598       13.042      863.964
01/29/2015  14:54:00      152.731      115.668       37.129       72.021       45.241       47.951     5187.016     2046.704     2299.342        2.381        0.477      191.588       36.978        0.037      339.293       12.526      863.960
01/29/2015  14:55:00       34.344       60.643       62.783       48.512       41.203       31.335     2353.414     1697.705      981.872        0.692        0.252       69.693       21.059        0.091      339.516       12.903      863.956
01/29/2015  14:56:00       45.369       31.046       37.781       60.264       58.668       32.752     3631.725     3441.981     1072.688        0.630        0.407       54.974       27.887        0.257      339.578       13.007      863.954
01/29/2015  14:57:00      110.951       44.166       17.559       70.872       51.172       42.828     5022.849     2618.564     1834.198        1.202        0.474      119.419       28.796        0.058      339.542       12.946      863.948
01/29/2015  14:58:00       78.562       75.799       21.382       47.190       45.857       41.696     2226.915     2102.826     1738.523        0.922        0.303      109.167       23.415        0.046      339.395       12.699      863.933
01/29/2015  14:59:00       77.737        0.253       45.946       57.323      102.174       47.699     3285.912    10439.543     2275.155        1.207        0.800       77.737       42.752        0.302      339.567       12.988      863.928
01/29/2015  15:00:00       67.790       78.993       84.645       61.649       71.842       68.068     3800.556     5161.334     4633.202        1.580        0.680      104.093       36.700        0.124      339.588       13.022      863.919
01/29/2015  15:01:00      104.709       76.499       79.821       84.476       68.838       55.428     7136.237     4738.612     3072.224        1.906        0.747      129.677       48.721        0.141      339.530       12.924      863.929
01/29/2015  15:02:00       55.590       66.857       87.174       70.033       83.105       48.924     4904.622     6906.402     2393.563        1.468        0.710       86.949       43.762        0.253      339.676       13.171      863.928
01/29/2015  15:03:00       32.736       99.569       97.498       63.207       70.197       63.503     3995.119     4927.574     4032.617        1.672        0.648      104.812       49.671        0.225      339.716       13.239      863.934
01/29/2015  15:04:00       41.889       76.880       92.623       91.987       68.897       69.156     8461.684     4746.783     4782.505        1.711        0.900       87.551       68.286        0.608      339.548       12.956      863.930
01/29/2015  15:05:00       78.425       71.811       70.811      111.180       70.082       53.763    12361.036     4911.456     2890.505        1.824        1.008      106.336       50.655        0.227      339.507       12.886      863.944
01/29/2015  15:06:00      110.419       68.720       46.447       50.796       57.181       47.834     2580.270     3269.668     2288.073        1.360        0.407      130.056       13.669        0.011      339.441       12.776      863.947
01/29/2015  15:07:00       54.127       53.495       40.552       67.814       53.122       44.797     4598.706     2821.957     2006.748        0.843        0.471       76.102       33.485        0.194      339.662       13.149      863.940
01/29/2015  15:08:00       75.515       22.938       87.048       73.453      127.887       84.571     5395.417    16355.033     7152.299        2.135        1.445       78.922       89.136        1.276      339.758       13.308      863.933
01/29/2015  15:09:00      143.627       66.194       62.508      127.145       68.273       60.401    16165.978     4661.255     3648.236        2.669        1.224      158.147       47.299        0.089      339.483       12.846      863.939
01/29/2015  15:10:00       97.217      -42.484       67.265       94.893      125.026       67.250     9004.762    15631.568     4522.621        2.246        1.458      106.095       81.714        0.593      339.632       13.097      863.930
01/29/2015  15:11:00       95.965      -63.361       52.239      101.837      130.284       76.643    10370.751    16973.877     5874.220        2.458        1.661      114.995       89.129        0.601      339.646       13.120      863.919
01/29/2015  15:12:00      130.012       73.968       97.904      117.285       94.936       57.050    13755.759     9012.844     3254.680        2.899        1.301      149.581       50.260        0.113      339.659       13.142      863.918
01/29/2015  15:13:00      144.142       76.242       62.419      149.043       78.704       75.007    22213.867     6194.293     5625.980        3.225        1.702      163.063       31.929        0.038      339.539       12.940      863.905
01/29/2015  15:14:00      136.504      128.108      118.931      123.041       83.120       78.123    15138.985     6908.932     6103.276        3.867        1.408      187.203       58.043        0.096      339.484       12.847      863.910
01/29/2015  15:15:00       88.702      139.137      159.957      106.534       92.838       70.649    11349.562     8618.944     4991.236        3.888        1.248      165.006       67.963        0.170      339.439       12.769      863.914
01/29/2015  15:16:00      154.616       91.060       96.479      134.968      102.549       83.809    18216.364    10516.362     7024.026        3.863        1.788      179.438       86.432        0.232      339.317       12.565      863.923
01/29/2015  15:17:00       92.265      110.468       84.788      102.711       72.230       64.654    10549.463     5217.131     4180.076        2.392        0.997      143.931       56.406        0.154      339.472       12.828      863.926
01/29/2015  15:18:00       87.325       43.635       83.130       79.771       92.179       75.334     6363.483     8496.937     5675.273        1.848        1.027       97.620       74.748        0.586      339.566       12.986      863.925
01/29/2015  15:19:00      142.621      143.620      109.502       94.722       86.671       80.496     8972.187     7511.915     6479.600        3.796        1.148      202.404       65.206        0.104      339.366       12.646      863.934
01/29/2015  15:20:00      215.581      143.725       85.149      131.298       98.723       85.670    17239.150     9746.175     7339.369        5.435        1.716      259.098       73.927        0.081      339.393       12.693      863.941
01/29/2015  15:21:00      162.053       85.317       48.036      119.211       82.745       71.353    14211.284     6846.783     5091.311        3.099        1.307      183.140       62.841        0.118      339.404       12.711      863.951
01/29/2015  15:22:00      120.337       89.983       96.658      100.196       84.720       71.198    10039.294     7177.526     5069.216        2.710        1.114      150.260       67.175        0.200      339.367       12.648      863.954
01/29/2015  15:23:00      100.774       94.892       82.088       72.703       72.460       51.615     5285.770     5250.459     2664.086        1.955        0.660      138.419       30.497        0.049      339.523       12.914      863.949
01/29/2015  15:24:00       79.103      114.294      112.059      100.427       95.188       89.237    10085.675     9060.680     7963.220        2.949        1.355      138.998       81.799        0.346      339.450       12.789      863.935
01/29/2015  15:25:00      110.586      116.291      114.294      104.988       72.323       74.567    11022.548     5230.557     5560.223        3.031        1.091      160.477       69.210        0.186      339.394       12.694      863.929
01/29/2015  15:26:00      176.098       83.463       60.009      107.208       88.310       70.100    11493.600     7798.607     4914.059        3.289        1.210      194.876       49.908        0.066      339.427       12.751      863.925
01/29/2015  15:27:00      119.472      158.441      170.431      102.451      110.317       94.626    10496.235    12169.884     8954.004        5.002        1.581      198.437       79.836        0.162      339.426       12.749      863.908
01/29/2015  15:28:00      117.148      114.398      135.886      111.451      119.313       80.755    12421.236    14235.476     6521.380        3.922        1.659      163.739       73.180        0.200      339.446       12.782      863.892
01/29/2015  15:29:00      174.855      181.795      147.588      158.910      100.167       94.294    25252.400    10033.352     8891.399        6.478        2.209      252.238       82.707        0.108      339.348       12.617      863.883
01/29/2015  15:30:00      130.213       86.487       72.422       92.457       74.712       66.821     8548.372     5581.862     4465.044        2.413        0.930      156.318       55.063        0.124      339.357       12.634      863.897
01/29/2015  15:31:00      145.289      103.513       53.038       97.841       70.584       66.671     9572.891     4982.094     4444.979        2.682        0.950      178.392       57.890        0.105      339.377       12.666      863.891
01/29/2015  15:32:00      178.887      123.244       84.511      148.964      106.361       87.664    22190.187    11312.764     7684.967        4.775        2.059      217.231       54.909        0.064      339.228       12.417      863.876
01/29/2015  15:33:00      243.460      182.528      125.973      168.609      117.089      105.231    28429.001    13709.915    11073.660        8.083        2.661      304.285       97.088        0.102      339.180       12.333      863.846
01/29/2015  15:34:00      214.932      111.073       72.229      131.754       98.414       94.974    17359.200     9685.342     9020.094        4.990        1.803      241.936       63.715        0.069      339.151       12.285      863.850
01/29/2015  15:35:00      207.306       90.822       53.897      129.049      106.380       88.760    16653.595    11316.800     7878.374        4.498        1.792      226.328       66.601        0.087      339.076       12.159      863.860
01/29/2015  15:36:00      188.216       97.104       51.983      112.412       88.365       81.506    12636.539     7808.301     6643.283        3.732        1.354      211.789       63.219        0.089      339.116       12.225      863.857
01/29/2015  15:37:00      224.406      126.929       59.953      105.305       80.391       56.121    11089.237     6462.782     3149.573        4.538        1.035      257.816       26.660        0.011      339.132       12.253      863.856
01/29/2015  15:38:00      187.163      141.492       58.702      126.236       96.490       80.476    15935.581     9310.326     6476.442        4.510        1.586      234.628       38.255        0.027      339.134       12.257      863.845
01/29/2015  15:39:00      283.326      167.295       35.127       97.619       90.736       76.758     9529.471     8233.009     5891.764        6.657        1.183      329.031       46.550        0.020      339.161       12.301      863.845
01/29/2015  15:40:00      245.075      159.153       65.167      109.935       80.276       77.670    12085.809     6444.308     6032.558        5.710        1.228      292.218       65.261        0.050      339.132       12.253      863.861
01/29/2015  15:41:00      230.806      104.055       50.678       72.923       62.633       60.047     5317.768     3922.931     3605.650        3.975        0.642      253.177       45.292        0.032      339.144       12.273      863.885
01/29/2015  15:42:00      179.391      100.245       20.201       91.073       64.859       62.615     8294.315     4206.742     3920.660        2.953        0.821      205.500       42.172        0.042      339.146       12.277      863.898
01/29/2015  15:43:00      239.411      147.318       34.616      153.648       89.843       86.533    23607.819     8071.775     7487.897        5.969        1.958      281.105       67.246        0.057      339.118       12.229      863.902
01/29/2015  15:44:00      261.660      172.292       50.223      159.165      114.433       67.411    25333.381    13095.006     4544.295        7.182        2.149      313.290       35.974        0.013      339.125       12.242      863.913
01/29/2015  15:45:00      311.897      162.848       73.125      171.038      113.210       78.337    29254.029    12816.560     6136.721        8.867        2.410      351.852       21.997        0.004      339.084       12.171      863.907
01/29/2015  15:46:00      223.040      119.849       70.011      130.319       81.269       75.584    16982.919     6604.666     5712.931        4.915        1.465      253.200       69.471        0.075      339.038       12.095      863.918
01/29/2015  15:47:00      280.658      162.236       44.078      114.376       69.973       78.943    13081.778     4896.222     6231.959        6.562        1.210      324.174       51.198        0.025      339.045       12.107      863.925
01/29/2015  15:48:00      192.346      109.214       39.729      134.450       75.690       63.300    18076.808     5728.905     4006.935        3.915        1.391      221.189       63.920        0.084      339.046       12.109      863.933
01/29/2015  15:49:00      161.074      116.510       43.281      106.487       93.525       81.399    11339.575     8746.927     6625.751        3.405        1.336      198.795       56.785        0.082      339.033       12.087      863.928
01/29/2015  15:50:00      329.695      162.144       29.724      134.655       82.723       68.720    18132.072     6843.155     4722.438        8.278        1.485      367.409       36.806        0.010      338.990       12.014      863.927
01/29/2015  15:51:00      108.639       50.189       55.543      148.736       80.417       69.734    22122.429     6466.925     4862.891        2.542        1.673      119.672       64.452        0.290      339.013       12.054      863.928
01/29/2015  15:52:00      184.655      131.995       30.739       95.017       70.826       51.192     9028.301     5016.302     2620.648        3.456        0.833      226.980       31.499        0.019      339.040       12.100      863.950
01/29/2015  15:53:00       76.718       55.986       56.041       60.679       53.664       51.643     3681.937     2879.778     2666.979        1.069        0.461       94.974       41.575        0.192      339.082       12.171      863.954
01/29/2015  15:54:00      122.208       77.525       28.457       77.967       50.673       44.625     6078.861     2567.771     1991.425        1.619        0.532      144.724       21.045        0.021      339.071       12.154      863.960
01/29/2015  15:55:00      143.920       99.906       59.798       84.420       66.467       55.960     7126.783     4417.853     3131.529        2.447        0.734      175.197       37.155        0.045      339.062       12.136      863.962
01/29/2015  15:56:00       90.246       77.164       63.406      103.568       62.648       63.222    10726.415     3924.762     3997.066        1.838        0.932      118.737       58.248        0.241      339.110       12.217      863.950
01/29/2015  15:57:00      153.009       64.448       34.890      113.965       79.853       56.248    12988.109     6376.509     3163.861        2.565        1.126      166.028       35.453        0.046      339.046       12.110      863.965
01/29/2015  15:58:00      184.084       87.088       56.919       91.693       64.727       64.847     8407.557     4189.533     4205.194        3.075        0.840      203.645       47.145        0.054      339.017       12.059      863.977
01/29/2015  15:59:00      170.931       80.544       37.047      119.178       76.051       66.553    14203.476     5783.741     4429.290        3.074        1.221      188.957       52.812        0.078      339.015       12.056      863.978
01/29/2015  16:00:00      117.782       67.451       48.330       88.801       80.892       64.388     7885.552     6543.438     4145.763        1.966        0.929      135.729       56.595        0.174      339.000       12.034      863.976
01/29/2015  16:01:00      161.563       40.344       58.658      127.965      121.567       83.713    16374.913    14778.576     7007.927        3.466        1.908      166.524       72.783        0.191      339.016       12.061      863.970
01/29/2015  16:02:00      127.509      108.448      128.872      145.150      121.982       78.210    21068.438    14879.588     6116.793        4.334        2.103      167.390       79.873        0.228      339.032       12.085      863.960
01/29/2015  16:03:00      169.845       85.006       54.359       94.778       70.511       58.196     8982.860     4971.826     3386.826        2.818        0.867      189.930       29.537        0.024      339.007       12.043      863.972
01/29/2015  16:04:00      137.260       95.049      121.729      106.450       97.124       79.231    11331.587     9433.070     6277.571        3.486        1.352      166.957       63.775        0.146      338.978       11.995      863.962
01/29/2015  16:05:00       98.960       82.369       91.035       95.189       75.196       56.625     9061.038     5654.452     3206.429        2.139        0.896      128.755       59.579        0.214      339.016       12.060      863.971
01/29/2015  16:06:00      102.845       71.298       70.055      107.547       67.986       48.819    11566.440     4622.100     2383.309        1.957        0.929      125.142       48.408        0.150      339.014       12.057      863.982
01/29/2015  16:07:00      159.960       81.727       14.229       75.274       62.887       49.538     5666.215     3954.770     2453.978        2.227        0.604      179.629       42.021        0.055      339.012       12.054      863.988
01/29/2015  16:08:00       48.786       65.546       76.874       60.592       70.820       51.288     3671.335     5015.416     2630.417        1.195        0.566       81.710       44.048        0.291      339.023       12.072      863.983
01/29/2015  16:09:00      196.612      125.575       32.779       75.588       51.001       42.060     5713.482     2601.146     1769.011        3.279        0.504      233.292       28.476        0.015      338.975       11.989      863.999
01/29/2015  16:10:00      221.415      114.475       43.332       96.196       63.497       59.968     9253.723     4031.815     3596.140        4.044        0.844      249.257       40.454        0.026      338.965       11.973      864.009
01/29/2015  16:11:00      139.555       74.772       61.009      105.751       75.056       65.970    11183.269     5633.427     4352.056        2.498        1.058      158.323       52.215        0.109      338.975       11.990      864.019
01/29/2015  16:12:00      187.903       91.751       68.686      106.127       85.873       79.207    11262.923     7374.243     6273.736        3.667        1.246      209.107       66.091        0.100      338.941       11.931      864.013
01/29/2015  16:13:00       85.629       37.125       61.069       79.634       64.277       53.012     6341.533     4131.480     2810.312        1.286        0.664       93.331       52.384        0.315      338.976       11.993      864.031
01/29/2015  16:14:00      129.381       68.321       52.895      112.839       64.619       56.569    12732.688     4175.610     3200.096        2.215        1.005      146.312       47.480        0.105      338.983       12.006      864.031
01/29/2015  16:15:00      142.192       77.277       57.012      113.857       66.636       60.925    12963.395     4440.365     3711.873        2.527        1.056      161.835       59.372        0.135      338.968       11.977      864.031
01/29/2015  16:16:00       70.526       71.882       84.435       75.477       72.349       53.883     5696.843     5234.313     2903.381        1.555        0.692      100.703       51.353        0.260      339.054       12.122      864.039
01/29/2015  16:17:00      128.625       86.033       72.957       97.448       73.388       74.200     9496.068     5385.807     5505.677        2.482        1.019      154.745       61.210        0.156      339.024       12.073      864.048
01/29/2015  16:18:00       72.324       97.427      102.631       67.623       79.232       61.485     4572.841     6277.648     3780.456        1.994        0.732      121.338       51.802        0.182      339.000       12.031      864.046
01/29/2015  16:19:00      140.360       57.611       83.575      121.883       82.098       74.582    14855.533     6740.162     5562.483        2.858        1.358      151.723       56.243        0.137      338.948       11.944      864.041
01/29/2015  16:20:00       99.656      102.116      106.542       83.523       87.692       62.245     6976.118     7689.862     3874.381        2.512        0.927      142.685       55.141        0.149      338.958       11.961      864.047
01/29/2015  16:21:00      119.641      141.316      140.006      116.093      101.881       85.433    13477.497    10379.693     7298.791        4.252        1.558      185.159       80.870        0.191      338.903       11.867      864.041
01/29/2015  16:22:00      141.785       76.055      102.282      134.985       86.084       72.299    18221.023     7410.453     5227.119        3.360        1.543      160.896       60.149        0.140      338.909       11.879      864.041
01/29/2015  16:23:00      129.052       92.140      113.142      140.050       93.367       83.700    19614.112     8717.469     7005.750        3.664        1.767      158.569       81.883        0.267      338.899       11.861      864.038
01/29/2015  16:24:00      189.839      101.290       85.020      141.862       79.705       87.333    20124.932     6352.881     7627.048        4.381        1.705      215.171       56.007        0.068      338.864       11.802      864.052
01/29/2015  16:25:00      162.732      101.753      108.399      126.106       96.584       93.587    15902.720     9328.439     8758.593        4.128        1.699      191.925       69.893        0.133      338.851       11.781      864.026
01/29/2015  16:26:00      176.253      106.749       86.032      107.954       92.114       83.641    11654.083     8484.989     6995.771        3.849        1.357      206.059       72.597        0.124      338.853       11.785      864.030
01/29/2015  16:27:00      118.297      104.378      100.268       68.696       54.077       46.205     4719.153     2924.366     2134.903        2.236        0.489      157.762       39.974        0.064      338.878       11.827      864.034
01/29/2015  16:28:00       51.755       66.395       70.213       66.284       49.453       45.617     4393.542     2445.611     2080.873        1.047        0.446       84.184       45.108        0.287      338.894       11.854      864.046
01/29/2015  16:29:00       86.309       65.365       68.374       81.381       72.981       59.814     6622.895     5326.236     3577.665        1.596        0.776      108.267       45.335        0.175      338.892       11.850      864.038
01/29/2015  16:30:00      169.056       79.492       58.927      108.887       74.528       59.297    11856.364     5554.407     3516.147        2.965        1.046      186.812       44.964        0.058      338.896       11.858      864.038
01/29/2015  16:31:00      156.392       69.086       34.903       92.803       61.145       52.703     8612.475     3738.724     2777.602        2.279        0.756      170.972       48.615        0.081      338.882       11.832      864.031
01/29/2015  16:32:00      182.440       95.369       39.700       96.610       74.413       59.659     9333.504     5537.233     3559.191        3.119        0.921      205.863       40.543        0.039      338.864       11.803      864.040
01/29/2015  16:33:00       88.062       48.308       62.018       98.948       70.260       52.574     9790.637     4936.487     2763.988        1.571        0.875      100.442       34.126        0.115      338.845       11.773      864.036
01/29/2015  16:34:00      159.807       77.223       40.435       86.947       77.106       50.815     7559.756     5945.372     2582.160        2.461        0.804      177.487       39.824        0.050      338.852       11.783      864.045
01/29/2015  16:35:00      144.810      145.433       79.467      110.206       80.367       61.960    12145.428     6458.862     3838.986        3.544        1.122      205.234       48.391        0.056      338.863       11.801      864.032
01/29/2015  16:36:00       57.334       59.799       99.655       74.627       78.905       51.513     5569.185     6225.965     2653.631        1.562        0.722       82.844       48.465        0.342      338.925       11.908      864.029
01/29/2015  16:37:00       90.412       88.942       69.347       79.624       83.537       63.604     6340.028     6978.427     4045.448        1.913        0.868      126.827       55.118        0.189      338.856       11.792      864.038
01/29/2015  16:38:00      124.507       84.649       56.281       57.286       44.960       45.501     3281.664     2021.380     2070.319        1.660        0.369      150.557       32.789        0.047      338.859       11.798      864.035
01/29/2015  16:39:00       90.093       67.309       50.849       89.804       43.026       47.852     8064.793     1851.196     2289.796        1.372        0.610      112.460       45.331        0.162      338.869       11.814      864.051
01/29/2015  16:40:00      175.971       50.211       33.571       62.313       73.666       42.954     3882.923     5426.664     1845.051        2.288        0.558      182.995       36.280        0.039      338.858       11.795      864.058
01/29/2015  16:41:00      171.713       85.746       54.247       97.542       83.553       72.841     9514.528     6981.094     5305.750        3.079        1.090      191.931       50.992        0.071      338.844       11.769      864.062
01/29/2015  16:42:00      156.370      107.849       67.618      108.457       71.894       55.633    11762.923     5168.714     3095.078        3.034        1.001      189.955       47.490        0.063      338.835       11.755      864.061
01/29/2015  16:43:00       65.714       94.616       83.293       58.185       61.485       56.544     3385.509     3780.459     3197.183        1.528        0.518      115.197       47.207        0.168      338.861       11.801      864.060
01/29/2015  16:44:00      108.284       79.763       81.504      108.867      101.293       89.784    11852.044    10260.338     8061.234        2.745        1.509      134.490       80.516        0.358      338.833       11.752      864.045
01/29/2015  16:45:00      205.775      128.420       10.226      130.109       94.786       60.550    16928.284     8984.363     3666.252        4.425        1.479      242.560       52.445        0.047      338.769       11.644      864.054
01/29/2015  16:46:00      223.618      150.574       63.344      150.647      100.853       67.455    22694.591    10171.260     4550.139        5.705        1.871      269.587       43.329        0.026      338.758       11.625      864.060
01/29/2015  16:47:00      127.572       67.036       31.982       97.170       59.324       50.472     9441.984     3519.331     2547.399        1.865        0.775      144.112       28.442        0.039      338.747       11.608      864.064
01/29/2015  16:48:00      182.675      100.135       44.558       99.671       85.259       62.170     9934.352     7269.178     3865.169        3.322        1.053      208.320       44.323        0.045      338.731       11.579      864.058
01/29/2015  16:49:00      187.285       80.241       27.466       94.487       75.469       63.878     8927.721     5695.638     4080.457        3.048        0.935      203.750       37.663        0.034      338.716       11.554      864.059
01/29/2015  16:50:00      174.868      114.244       30.501       93.180       73.697       43.591     8682.482     5431.201     1900.153        3.028        0.801      208.879       33.165        0.025      338.714       11.550      864.078
01/29/2015  16:51:00      196.844       84.161       32.454      101.809       77.682       63.067    10365.113     6034.565     3977.506        3.363        1.019      214.081       64.420        0.091      338.707       11.539      864.074
01/29/2015  16:52:00      257.426      125.358       44.687       91.415       94.218       72.700     8356.628     8876.986     5285.297        5.325        1.126      286.326       36.834        0.017      338.670       11.476      864.080
01/29/2015  16:53:00      204.399       75.137       27.574       95.218       86.905       56.747     9066.437     7552.425     3220.187        3.401        0.992      217.771       21.885        0.010      338.664       11.466      864.091
01/29/2015  16:54:00       93.384       57.925       41.386       86.875       81.404       55.458     7547.233     6626.537     3075.573        1.552        0.862      109.890       42.518        0.150      338.688       11.506      864.106
01/29/2015  16:55:00      180.862       96.467       50.209      114.552       77.976       74.456    13122.067     6080.216     5543.657        3.464        1.237      204.981       63.782        0.097      338.685       11.501      864.104
01/29/2015  16:56:00      197.879      105.624       61.182       87.817       67.865       61.453     7711.803     4605.717     3776.490        3.507        0.805      224.305       47.019        0.044      338.714       11.550      864.111
01/29/2015  16:57:00      258.521      102.583       41.037      131.627       92.537       77.949    17325.648     8563.179     6076.120        5.550        1.598      278.130       76.271        0.075      338.659       11.457      864.127
01/29/2015  16:58:00      200.309      157.131       94.074      136.469      114.310       93.264    18623.837    13066.756     8698.266        5.702        2.019      254.586       71.242        0.078      338.639       11.424      864.111
01/29/2015  16:59:00      211.408      132.310       62.012      135.970       95.656       92.506    18487.974     9150.154     8557.416        5.111        1.810      249.397       67.957        0.074      338.634       11.416      864.114
01/29/2015  17:00:00      264.575      127.234       40.981      113.309       88.764       77.201    12838.923     7879.128     5959.995        5.727        1.334      293.579       47.093        0.026      338.617       11.385      864.123
01/29/2015  17:01:00      217.469       79.203        7.359      110.381       87.660       64.966    12183.946     7684.335     4220.536        3.885        1.204      231.443       32.937        0.020      338.626       11.404      864.122
01/29/2015  17:02:00      172.551       67.947       19.183       89.615       68.113       48.546     8030.835     4639.378     2356.707        2.489        0.751      185.447       44.448        0.057      338.627       11.404      864.143
01/29/2015  17:03:00      140.554       81.579       31.670       81.978       59.377       41.596     6720.390     3525.653     1730.227        1.969        0.599      162.513       31.605        0.038      338.630       11.410      864.145
01/29/2015  17:04:00       94.013       50.747        7.903       79.693       59.631       43.323     6350.956     3555.800     1876.915        1.163        0.589      106.835       28.210        0.070      338.624       11.401      864.152
01/29/2015  17:05:00       96.374       49.341       20.591       63.278       38.250       36.990     4004.051     1463.093     1368.259        0.949        0.342      108.270       13.085        0.015      338.618       11.392      864.150
01/29/2015  17:06:00       92.408       21.512       20.974       70.423       37.941       43.765     4959.456     1439.507     1915.387        0.888        0.416       94.879       27.008        0.081      338.646       11.438      864.138
01/29/2015  17:07:00      113.409       63.227       44.579       61.081       61.966       52.147     3730.852     3839.725     2719.293        1.457        0.514      129.843       34.283        0.070      338.609       11.375      864.154
01/29/2015  17:08:00      143.312       89.529       32.877       74.354       61.534       57.984     5528.511     3786.438     3362.126        2.115        0.634      168.979       27.662        0.027      338.596       11.354      864.145
01/29/2015  17:09:00      143.764       73.018       26.882       76.079       63.341       44.504     5788.053     4012.034     1980.564        1.925        0.589      161.244       11.757        0.005      338.598       11.355      864.141
01/29/2015  17:10:00      156.821      104.921       44.889       94.925       93.399       41.829     9010.803     8723.351     1749.665        2.855        0.974      188.683       21.599        0.013      338.605       11.367      864.159
01/29/2015  17:11:00      129.547      144.296      103.074      136.917       84.348       64.230    18746.239     7114.613     4125.535        3.910        1.499      193.917       54.415        0.079      338.565       11.301      864.149
01/29/2015  17:12:00      139.516      106.816       67.214       86.105       72.220       47.058     7414.102     5215.720     2214.468        2.512        0.742      175.711       29.731        0.029      338.550       11.277      864.154
01/29/2015  17:13:00       57.604       66.118       20.185       65.378       45.314       44.585     4274.264     2053.315     1987.849        0.820        0.416       87.691       18.192        0.043      338.544       11.267      864.165
01/29/2015  17:14:00      147.353       67.022       35.283       84.148       55.112       32.212     7080.858     3037.385     1037.621        1.930        0.558      161.879       21.462        0.018      338.548       11.273      864.164
01/29/2015  17:15:00      192.380       67.804       22.420      131.221       94.920       72.538    17219.010     9009.833     5261.718        3.680        1.575      203.979       67.417        0.109      338.540       11.260      864.170
01/29/2015  17:16:00      162.230       30.663       31.718       82.178       73.762       50.029     6753.182     5440.774     2502.857        2.148        0.735      165.103       38.296        0.054      338.528       11.239      864.173
01/29/2015  17:17:00      114.020       79.192       72.225       95.984       74.503       71.234     9212.909     5550.705     5074.254        2.216        0.992      138.824       55.562        0.160      338.556       11.287      864.179
01/29/2015  17:18:00      157.941      114.314       68.986      117.273       72.572       61.051    13752.848     5266.754     3727.205        3.276        1.137      194.969       47.614        0.060      338.541       11.262      864.196
01/29/2015  17:19:00      141.911       84.283       29.232       80.696       66.271       53.441     6511.858     4391.797     2855.904        2.093        0.688      165.052       39.615        0.058      338.541       11.259      864.208
01/29/2015  17:20:00      170.667       66.647       24.510       70.811       49.166       43.622     5014.245     2417.253     1902.846        2.175        0.467      183.219       40.909        0.050      338.534       11.248      864.213
01/29/2015  17:21:00       48.841       40.251       51.558       53.483       41.923       36.228     2860.423     1757.518     1312.440        0.630        0.297       63.290       35.644        0.317      338.540       11.260      864.218
01/29/2015  17:22:00       82.285       49.461       22.382       44.811       42.051       34.999     2008.002     1768.310     1224.963        0.736        0.250       96.006       26.148        0.074      338.523       11.231      864.244
01/29/2015  17:23:00      105.751       56.983       21.757       50.644       36.955       34.909     2564.795     1365.641     1218.653        1.003        0.257      120.126       21.861        0.033      338.533       11.248      864.236
01/29/2015  17:24:00       66.981       42.383       21.525       45.870       34.267       40.688     2104.083     1174.199     1655.484        0.584        0.247       79.263       35.223        0.197      338.522       11.232      864.240
01/29/2015  17:25:00      150.972       96.010       34.964       66.921       52.947       37.162     4478.375     2803.404     1381.025        2.095        0.433      178.915       16.933        0.009      338.498       11.191      864.247
01/29/2015  17:26:00      161.929       76.071       23.997       76.193       43.357       39.380     5805.400     1879.806     1550.791        2.091        0.462      178.907       12.988        0.005      338.487       11.169      864.243
01/29/2015  17:27:00       71.449       45.294       54.099       43.596       42.196       38.547     1900.588     1780.544     1485.845        0.762        0.258       84.596       27.846        0.108      338.499       11.192      864.255
01/29/2015  17:28:00       70.762      125.519      118.924       78.660       65.333       61.338     6187.387     4268.360     3762.379        2.456        0.711      144.091       50.495        0.123      338.502       11.196      864.264
01/29/2015  17:29:00      104.910       89.581       45.625       59.549       50.941       58.020     3546.107     2594.976     3366.270        1.531        0.475      137.952       31.380        0.052      338.478       11.155      864.276
01/29/2015  17:30:00      124.243       75.852        8.470       43.222       38.163       40.076     1868.165     1456.437     1606.051        1.310        0.247      145.567       26.944        0.034      338.454       11.115      864.287
01/29/2015  17:31:00       63.486       38.907       17.726       50.360       30.270       30.285     2536.177      916.269      917.211        0.511        0.218       74.460       17.051        0.052      338.457       11.119      864.295
01/29/2015  17:32:00      182.012      113.215       11.528       73.847       61.558       37.554     5453.353     3789.403     1410.325        2.836        0.533      214.351       13.489        0.004      338.435       11.082      864.310
01/29/2015  17:33:00      119.381      106.590       19.923       75.397       64.705       49.946     5684.750     4186.731     2494.574        1.919        0.618      160.041       24.910        0.024      338.435       11.083      864.296
01/29/2015  17:34:00      110.188       90.895        9.221       55.489       48.523       41.984     3079.080     2354.451     1762.616        1.384        0.360      142.840       21.187        0.022      338.436       11.086      864.306
01/29/2015  17:35:00      116.170       67.121       19.863       37.623       28.384       30.764     1415.526      805.627      946.413        1.078        0.158      134.167       16.149        0.014      338.424       11.066      864.325
01/29/2015  17:36:00       62.468       61.191        8.726       54.463       52.795       40.686     2966.227     2787.277     1655.369        0.756        0.370       87.444       24.845        0.081      338.429       11.075      864.335
01/29/2015  17:37:00       85.164       76.131        8.258       68.705       49.263       41.769     4720.439     2426.795     1744.613        1.100        0.445      114.232       29.795        0.068      338.409       11.041      864.345
01/29/2015  17:38:00      158.756      112.718       18.120       65.969       51.231       41.871     4351.965     2624.599     1753.210        2.348        0.436      194.702       43.570        0.050      338.392       11.009      864.349
01/29/2015  17:39:00      115.595       81.258       22.506       91.899       68.334       38.885     8445.426     4669.545     1512.014        1.755        0.731      141.298       24.227        0.029      338.390       11.005      864.361
01/29/2015  17:40:00      100.150      102.906        2.090       99.941       80.996       63.812     9988.137     6560.398     4071.980        2.062        1.031      143.595       52.618        0.134      338.398       11.018      864.365
01/29/2015  17:41:00      125.477       95.590       29.215       55.636       41.616       47.453     3095.398     1731.884     2251.745        1.641        0.354      157.740       19.382        0.015      338.386       11.000      864.387
01/29/2015  17:42:00      134.457       89.528       25.970       47.632       38.298       33.291     2268.808     1466.731     1108.315        1.581        0.242      161.537       17.131        0.011      338.392       11.011      864.400
01/29/2015  17:43:00      164.527       95.807       23.576       50.142       49.079       39.470     2514.218     2408.759     1557.894        2.164        0.324      190.389       18.143        0.009      338.375       10.982      864.413
01/29/2015  17:44:00      111.927       84.506       19.648       72.198       53.008       44.585     5212.483     2809.804     1987.854        1.503        0.501      140.246       28.827        0.042      338.375       10.982      864.424
01/29/2015  17:45:00      141.296       84.240       20.488       38.040       37.905       34.759     1447.034     1436.784     1208.187        1.579        0.205      164.502       13.493        0.007      338.358       10.956      864.430
01/29/2015  17:46:00      109.388       73.032       35.802       55.760       44.302       37.123     3109.176     1962.658     1378.096        1.251        0.322      131.527       18.750        0.020      338.371       10.978      864.438
01/29/2015  17:47:00       69.934       73.104        4.183       54.294       50.902       37.896     2947.786     2590.965     1436.133        0.861        0.349      101.168       25.902        0.066      338.358       10.957      864.442
01/29/2015  17:48:00       89.192      123.600        5.077       67.429       78.633       54.585     4546.643     6183.138     2979.535        1.848        0.685      152.421       49.280        0.105      338.359       10.957      864.454
01/29/2015  17:49:00      123.177       51.861       32.746      121.103       69.934       56.726    14665.858     4890.749     3217.861        2.085        1.139      133.650       25.044        0.035      338.356       10.952      864.475
01/29/2015  17:50:00       69.276       22.290       16.893       53.926       43.417       37.543     2908.023     1885.056     1409.508        0.589        0.310       72.774       33.270        0.209      338.354       10.951      864.475
01/29/2015  17:51:00       63.309       39.739        1.551       57.009       32.807       24.522     3250.042     1076.311      601.321        0.526        0.246       74.748        8.867        0.014      338.337       10.920      864.482
01/29/2015  17:52:00       63.181       52.521       12.705       49.267       42.858       25.321     2427.273     1836.769      641.133        0.591        0.245       82.160       10.925        0.018      338.336       10.918      864.490
01/29/2015  17:53:00      115.845       67.355        9.475       53.490       44.047       31.617     2861.193     1940.139      999.656        1.192        0.290      134.003       17.087        0.016      338.322       10.894      864.503
01/29/2015  17:54:00       66.412       50.565        8.132       56.280       42.995       31.410     3167.470     1848.594      986.571        0.652        0.300       83.471       21.720        0.068      338.318       10.887      864.493
01/29/2015  17:55:00       92.170       66.328       12.186       44.277       34.992       35.310     1960.445     1224.468     1246.808        0.874        0.222      113.555       23.878        0.044      338.307       10.869      864.491
01/29/2015  17:56:00       64.799       59.125        7.683       67.198       41.180       31.565     4515.615     1695.760      996.367        0.748        0.360       87.720       15.210        0.030      338.308       10.871      864.487
01/29/2015  17:57:00       42.233       89.303        1.865       56.870       62.142       40.389     3234.166     3861.661     1631.306        0.924        0.436       98.786       38.199        0.150      338.321       10.892      864.490
01/29/2015  17:58:00       69.964      157.617      -30.653       39.548       56.985       27.421     1564.035     3247.342      751.908        1.812        0.278      172.447       25.489        0.022      338.309       10.873      864.490
01/29/2015  17:59:00       82.267      135.525       -6.461       50.015       79.457       44.753     2501.492     6313.493     2002.830        1.800        0.541      158.540       48.427        0.093      338.309       10.873      864.483
01/29/2015  18:00:00       88.154      122.521       -3.547       77.491       80.068       63.413     6004.894     6410.963     4021.211        1.961        0.822      150.939       51.906        0.118      338.299       10.856      864.480
01/29/2015  18:01:00      145.474      125.917       13.361       72.183       53.466       58.510     5210.437     2858.593     3423.387        2.434        0.575      192.400       40.257        0.044      338.267       10.800      864.473
01/29/2015  18:02:00      131.928       92.461       16.315       57.269       45.809       50.140     3279.759     2098.489     2514.001        1.705        0.395      161.102       36.003        0.050      338.255       10.781      864.466
01/29/2015  18:03:00      106.685      184.287      -12.980       68.165      141.400       57.543     4646.419    19993.995     3311.143        3.673        1.398      212.940       69.374        0.106      338.246       10.765      864.464
01/29/2015  18:04:00       79.113      120.257        2.865       73.947       81.679       62.022     5468.220     6671.396     3846.744        1.835        0.799      143.946       50.821        0.125      338.240       10.756      864.467
01/29/2015  18:05:00       75.518       88.253        7.675       63.956       58.579       37.858     4090.377     3431.504     1433.221        1.125        0.448      116.153       32.305        0.077      338.219       10.722      864.454
01/29/2015  18:06:00       67.602      130.192       -5.894       69.090       75.717       48.908     4773.465     5733.000     2391.970        1.722        0.645      146.697       43.527        0.088      338.213       10.709      864.452
01/29/2015  18:07:00       97.468      134.721       -0.577       75.170       84.388       63.885     5650.574     7121.337     4081.350        2.225        0.843      166.282       53.034        0.102      338.196       10.681      864.445
01/29/2015  18:08:00      110.518      156.248       -7.130       82.855       98.569       59.543     6864.873     9715.896     3545.327        2.840        1.006      191.383       53.819        0.079      338.182       10.654      864.442
01/29/2015  18:09:00       95.251       97.077       -3.943       57.515       63.209       42.434     3308.029     3995.382     1800.625        1.381        0.455      136.003       36.814        0.073      338.180       10.654      864.455
01/29/2015  18:10:00       89.551      109.040        9.716       77.396       56.484       54.521     5990.163     3190.475     2972.520        1.608        0.608      141.099       37.765        0.072      338.170       10.638      864.473
01/29/2015  18:11:00       65.120      100.322        2.460       65.550       90.994       50.233     4296.836     8279.944     2523.342        1.470        0.755      119.605       54.286        0.206      338.174       10.644      864.483
01/29/2015  18:12:00      108.389      138.620       -4.802       66.504       69.743       45.814     4422.791     4864.129     2098.877        2.118        0.569      175.965       36.083        0.042      338.167       10.634      864.492
01/29/2015  18:13:00      185.946      112.613       21.373       87.340       72.200       55.436     7628.318     5212.908     3073.202        3.181        0.796      217.388       44.935        0.043      338.161       10.621      864.497
01/29/2015  18:14:00      145.652      117.286        5.455       81.454       71.695       62.027     6634.801     5140.242     3847.294        2.531        0.781      187.004       42.846        0.052      338.146       10.597      864.511
01/29/2015  18:15:00      160.277      117.317       28.275       86.925       68.670       50.632     7555.925     4715.540     2563.553        2.754        0.742      198.625       43.216        0.047      338.137       10.585      864.518
01/29/2015  18:16:00      122.881       82.794       20.466       62.262       45.522       34.003     3876.554     2072.268     1156.217        1.474        0.355      148.171       17.182        0.013      338.132       10.576      864.536
01/29/2015  18:17:00      117.171       72.143       11.524       73.173       57.265       39.944     5354.325     3279.263     1595.531        1.465        0.511      137.600       20.777        0.023      338.115       10.545      864.533
01/29/2015  18:18:00       67.860       85.513        4.201       76.997       67.393       48.657     5928.530     4541.780     2367.458        1.238        0.642      109.167       38.822        0.126      338.111       10.537      864.532
01/29/2015  18:19:00      190.075      156.492       10.766      109.127       84.102       68.528    11908.675     7073.182     4696.070        4.220        1.184      246.208       42.080        0.029      338.105       10.527      864.541
01/29/2015  18:20:00      204.104      144.813       30.483       89.247       78.165       58.721     7965.076     6109.700     3448.102        4.054        0.876      250.258       25.594        0.010      338.116       10.544      864.539
01/29/2015  18:21:00      166.434      124.475       17.787       80.630       69.213       44.172     6501.151     4790.392     1951.204        2.837        0.662      207.832       21.718        0.011      338.101       10.522      864.550
01/29/2015  18:22:00      135.624      100.863       21.262       65.624       57.681       41.198     4306.509     3327.069     1697.283        1.917        0.467      169.019       33.142        0.038      338.096       10.515      864.559
01/29/2015  18:23:00       94.322      103.893       14.404       73.672       47.350       50.275     5427.502     2242.054     2527.608        1.505        0.510      140.323       41.727        0.088      338.087       10.501      864.567
01/29/2015  18:24:00       76.793       67.883        5.401       89.568       52.300       41.542     8022.499     2735.250     1725.767        1.151        0.624      102.495       22.207        0.047      338.092       10.506      864.573
01/29/2015  18:25:00      121.622      134.708       12.190       89.201       70.832       55.171     7956.738     5017.240     3043.888        2.455        0.801      181.488       47.223        0.068      338.106       10.529      864.583
01/29/2015  18:26:00       55.088       60.712       13.042       67.821       42.870       39.947     4599.745     1837.874     1595.724        0.746        0.402       81.979       25.745        0.099      338.091       10.508      864.576
01/29/2015  18:27:00       85.985       48.132       13.078       60.732       48.442       33.813     3688.344     2346.615     1143.321        0.853        0.359       98.540       20.265        0.042      338.095       10.514      864.569
01/29/2015  18:28:00      108.978       70.881        8.577       54.987       34.894       34.011     3023.546     1217.615     1156.721        1.118        0.270      130.001       22.889        0.031      338.075       10.481      864.568
01/29/2015  18:29:00       69.831       50.953        1.874       33.686       28.794       32.795     1134.714      829.081     1075.493        0.526        0.152       86.444       16.768        0.038      338.063       10.460      864.579
01/29/2015  18:30:00       99.113       70.919       12.196       51.921       41.837       27.730     2695.757     1750.363      768.934        1.011        0.261      121.872       23.197        0.036      338.075       10.481      864.593
01/29/2015  18:31:00      135.382       57.442       18.307       48.777       38.612       38.453     2379.208     1490.902     1478.633        1.365        0.267      147.064       23.415        0.025      338.063       10.460      864.605
01/29/2015  18:32:00      100.542       69.345       15.864       64.509       49.965       32.639     4161.392     2496.502     1065.315        1.144        0.386      122.137       22.748        0.035      338.059       10.451      864.611
01/29/2015  18:33:00      103.168       77.319       19.837       71.356       53.720       37.935     5091.679     2885.837     1439.088        1.321        0.471      128.926       24.564        0.036      338.064       10.459      864.614
01/29/2015  18:34:00      116.712       83.031       25.678       43.047       47.975       36.458     1853.051     2301.646     1329.151        1.333        0.274      143.233       18.900        0.017      338.066       10.465      864.608
01/29/2015  18:35:00       85.643       47.251       10.355       66.699       44.383       37.015     4448.721     1969.828     1370.095        0.873        0.389       97.813       27.235        0.078      338.073       10.478      864.612
01/29/2015  18:36:00       94.833       65.121       10.847       36.384       32.335       28.416     1323.789     1045.579      807.492        0.826        0.159      115.039       16.431        0.020      338.055       10.447      864.612
01/29/2015  18:37:00       56.924       61.599       11.791       45.000       60.155       37.769     2024.974     3618.659     1426.496        0.712        0.354       83.874       28.802        0.118      338.053       10.441      864.618
01/29/2015  18:38:00       99.242       66.268        8.751       53.864       37.432       32.383     2901.314     1401.180     1048.669        0.983        0.268      119.333       16.508        0.019      338.048       10.433      864.619
01/29/2015  18:39:00       96.681       79.906        8.185       70.044       51.529       43.856     4906.101     2655.277     1923.338        1.264        0.474      125.428       35.891        0.082      338.044       10.425      864.622
01/29/2015  18:40:00       87.809       90.332        2.620       78.569       60.789       45.509     6173.041     3695.269     2071.096        1.391        0.597      125.978       32.323        0.066      338.024       10.394      864.622
01/29/2015  18:41:00       82.885       73.908        2.199       50.314       48.145       38.469     2531.467     2317.965     1479.843        0.933        0.316      111.051       22.399        0.041      338.019       10.387      864.619
01/29/2015  18:42:00       72.411       81.882       -0.847       56.195       54.566       40.495     3157.914     2977.422     1639.839        0.986        0.389      109.307       33.567        0.094      338.000       10.355      864.634
01/29/2015  18:43:00      134.620       97.214       24.029       62.767       48.698       36.194     3939.726     2371.491     1310.024        1.788        0.381      166.052       23.752        0.020      337.989       10.334      864.640
01/29/2015  18:44:00      102.444       76.327       12.552       60.363       35.396       26.911     3643.728     1252.891      724.217        1.105        0.281      127.752       17.822        0.019      337.985       10.328      864.648
01/29/2015  18:45:00       54.042       63.742       12.500       37.443       31.368       38.221     1401.993      983.964     1460.851        0.549        0.192       83.567       16.022        0.037      337.983       10.323      864.654
01/29/2015  18:46:00       80.153       37.329       -7.826       42.183       30.298       25.252     1779.401      917.985      637.639        0.561        0.167       88.419       11.138        0.016      337.985       10.327      864.657
01/29/2015  18:47:00       54.228       74.085       -2.554       47.679       41.789       28.407     2273.334     1746.353      806.985        0.663        0.241       91.811       23.990        0.068      337.980       10.320      864.656
01/29/2015  18:48:00       49.040      116.102       -5.525       56.526       60.929       37.060     3195.206     3712.365     1373.407        1.210        0.414      126.034       40.091        0.101      337.984       10.325      864.666
01/29/2015  18:49:00       13.631      105.129      -12.896       31.682       26.337       18.957     1003.753      693.621      359.367        0.673        0.103      106.009       10.403        0.010      337.989       10.336      864.669
01/29/2015  18:50:00       48.573       90.366       -5.264       35.407       48.672       36.332     1253.667     2368.928     1320.010        0.775        0.247      102.593       33.741        0.108      337.984       10.328      864.675
01/29/2015  18:51:00       45.958      118.421      -14.342       42.587       70.836       39.609     1813.671     5017.802     1568.852        1.237        0.420      127.026       40.441        0.101      337.989       10.334      864.688
01/29/2015  18:52:00       76.140       74.863        7.318       66.997       52.342       46.900     4488.662     2739.715     2199.647        1.044        0.471      106.779       34.285        0.103      337.978       10.317      864.696
01/29/2015  18:53:00       80.977       84.738        1.961       58.300       48.262       40.835     3398.942     2329.268     1667.458        1.057        0.370      117.208       32.035        0.075      337.974       10.307      864.695
01/29/2015  18:54:00       38.806       76.317        3.287       42.700       59.824       33.498     1823.311     3578.889     1122.110        0.693        0.326       85.617       31.802        0.138      337.969       10.301      864.698
01/29/2015  18:55:00       54.937      116.094       -6.938       47.010       60.766       42.011     2209.941     3692.503     1764.957        1.210        0.383      128.436       44.479        0.120      337.971       10.304      864.693
01/29/2015  18:56:00       45.718       61.526        3.065       33.269       49.582       34.785     1106.807     2458.406     1209.980        0.533        0.239       76.652       35.832        0.219      337.961       10.287      864.707
01/29/2015  18:57:00       43.154       86.283      -12.493       34.870       56.410       31.494     1215.936     3182.076      991.880        0.743        0.269       96.473       32.004        0.110      337.963       10.291      864.708
01/29/2015  18:58:00       39.589       77.170       -0.769       52.243       53.993       34.506     2729.318     2915.251     1190.642        0.718        0.342       86.733       33.316        0.148      337.956       10.280      864.708
01/29/2015  18:59:00       21.766       95.993       -4.243       33.954       45.663       28.683     1152.869     2085.127      822.719        0.688        0.203       98.430       29.037        0.087      337.946       10.265      864.716
01/29/2015  19:00:00       42.934       76.947       -1.269       50.352       53.341       36.306     2535.330     2845.294     1318.119        0.723        0.335       88.115       24.715        0.079      337.956       10.282      864.716
01/29/2015  19:01:00       48.543      122.774       -6.904       44.904       49.848       38.633     2016.351     2484.846     1492.490        1.173        0.300      132.022       30.805        0.054      337.948       10.268      864.715
01/29/2015  19:02:00       42.108      155.404      -28.823       30.180       37.143       28.033      910.823     1379.603      785.860        1.491        0.154      161.008       23.023        0.020      337.953       10.276      864.717
01/29/2015  19:03:00       48.131       74.795        6.278       40.432       47.199       30.968     1634.717     2227.738      959.020        0.639        0.241       88.943       25.711        0.084      337.952       10.274      864.732
01/29/2015  19:04:00       42.098       42.697       -3.196       29.682       37.665       20.692      880.999     1418.625      428.149        0.317        0.136       59.960       20.117        0.113      337.929       10.238      864.746
01/29/2015  19:05:00       55.072       76.898       -2.403       49.335       41.678       35.283     2433.970     1737.063     1244.891        0.718        0.271       94.584       27.064        0.082      337.933       10.242      864.757
01/29/2015  19:06:00       33.422       54.637        2.874       33.467       29.434       27.199     1120.030      866.361      739.809        0.342        0.136       64.049       18.039        0.079      337.936       10.248      864.763
01/29/2015  19:07:00       69.871       43.145        9.407       34.537       19.666       22.666     1192.787      386.762      513.740        0.446        0.105       82.118       14.816        0.033      337.929       10.237      864.767
01/29/2015  19:08:00      103.636       48.842       14.276       42.463       30.187       29.573     1803.105      911.267      874.588        0.846        0.179      114.569       25.462        0.049      337.937       10.250      864.764
01/29/2015  19:09:00       82.054       56.881        4.402       25.173       26.083       25.056      633.701      680.348      627.792        0.596        0.097       99.841       12.194        0.015      337.927       10.231      864.757
01/29/2015  19:10:00       45.998       34.555        2.998       27.324       17.923       20.586      746.575      321.219      423.802        0.240        0.075       57.531       16.670        0.084      337.932       10.239      864.764
01/29/2015  19:11:00       62.967       40.454       -0.133       12.028       21.566       16.386      144.677      465.110      268.501        0.324        0.044       74.842       12.006        0.026      337.917       10.214      864.771
01/29/2015  19:12:00       42.083       29.821        8.796       25.850       24.038       20.392      668.238      577.836      415.853        0.220        0.083       51.578       13.956        0.073      337.925       10.230      864.781
01/29/2015  19:13:00       34.006       47.448        6.913       20.643       27.881       19.813      426.121      777.342      392.540        0.253        0.080       58.376       14.703        0.063      337.904       10.190      864.784
01/29/2015  19:14:00       35.828       88.638       -9.191       19.464       38.792       20.319      378.854     1504.837      412.876        0.576        0.115       95.605       19.153        0.040      337.924       10.227      864.779
01/29/2015  19:15:00       34.323       79.701      -11.080       24.875       47.789       21.074      618.757     2283.832      444.121        0.550        0.167       86.778       27.517        0.101      337.927       10.232      864.780
01/29/2015  19:16:00       63.691       54.645        2.828       34.307       38.984       26.778     1176.964     1519.765      717.050        0.523        0.171       83.920       19.802        0.056      337.923       10.226      864.785
01/29/2015  19:17:00       22.633       41.764        1.493       30.712       33.531       26.144      943.248     1124.314      683.484        0.250        0.138       47.503       17.623        0.138      337.915       10.211      864.790
01/29/2015  19:18:00       62.038       40.159        9.798       40.433       29.080       20.415     1634.826      845.635      416.781        0.423        0.145       73.901       15.759        0.045      337.905       10.194      864.797
01/29/2015  19:19:00       50.736       59.852       -2.816       65.823       41.596       32.306     4332.662     1730.200     1043.703        0.663        0.355       78.463       21.326        0.074      337.890       10.168      864.802
01/29/2015  19:20:00       62.461      100.747        5.839       52.770       39.681       33.745     2784.713     1574.584     1138.710        0.979        0.275      118.538       28.423        0.057      337.877       10.149      864.806
01/29/2015  19:21:00       44.162       70.133       -6.984       29.597       34.174       19.131      875.994     1167.859      366.001        0.466        0.120       82.879       18.737        0.051      337.869       10.136      864.805
01/29/2015  19:22:00       54.832       39.294        4.449       25.307       23.418       22.111      640.456      548.397      488.915        0.312        0.084       67.458       13.348        0.039      337.862       10.124      864.810
01/29/2015  19:23:00       98.968       63.783        8.679       26.491       28.887       22.309      701.764      834.430      497.692        0.799        0.102      117.741       11.455        0.009      337.838       10.081      864.808
01/29/2015  19:24:00       62.095       63.732        4.071       48.996       45.146       29.993     2400.596     2038.196      899.557        0.664        0.267       88.980       23.071        0.067      337.846       10.093      864.800
01/29/2015  19:25:00       95.066       82.357       13.643       45.813       33.918       31.523     2098.787     1150.407      993.701        1.012        0.212      125.779       18.322        0.021      337.837       10.078      864.803
01/29/2015  19:26:00       78.276       67.220       11.742       51.419       36.122       36.038     2643.952     1304.792     1298.751        0.801        0.262      103.178       23.074        0.050      337.836       10.078      864.799
01/29/2015  19:27:00       53.871       75.235       -7.302       31.970       40.195       25.047     1022.069     1615.604      627.359        0.594        0.163       92.533       27.067        0.086      337.822       10.055      864.799
01/29/2015  19:28:00       20.346       38.348        1.540       31.605       40.650       20.552      998.883     1652.446      422.392        0.248        0.154       43.412       21.247        0.240      337.826       10.061      864.798
01/29/2015  19:29:00       44.111       32.159        8.376       28.349       23.526       21.075      803.681      553.490      444.142        0.243        0.090       54.589       12.859        0.055      337.840       10.083      864.804
01/29/2015  19:30:00       37.306       41.460       -3.290       28.296       31.513       22.051      800.659      993.071      486.237        0.270        0.114       55.773       20.860        0.140      337.829       10.064      864.806
01/29/2015  19:31:00       33.517       57.925       -9.688       27.262       28.753       19.662      743.208      826.743      386.578        0.326        0.098       66.924       18.642        0.078      337.826       10.062      864.805
01/29/2015  19:32:00       29.414       45.670       -9.074       27.530       18.457       16.955      757.881      340.643      287.457        0.221        0.069       54.323       13.767        0.064      337.814       10.041      864.801
01/29/2015  19:33:00       38.766       63.248        0.308       35.506       38.299       27.781     1260.708     1466.808      771.777        0.450        0.175       74.183       26.542        0.128      337.815       10.043      864.798
01/29/2015  19:34:00       50.003       63.885       -4.230       34.575       52.072       27.704     1195.454     2711.447      767.512        0.564        0.234       81.127       28.402        0.123      337.812       10.039      864.794
01/29/2015  19:35:00       57.866       46.749        1.188       40.022       26.766       23.649     1601.743      716.438      559.289        0.421        0.144       74.390       17.521        0.055      337.790       10.003      864.788
01/29/2015  19:36:00       40.540       59.523       -6.948       40.535       31.519       26.130     1643.117      993.428      682.796        0.428        0.166       72.017       21.990        0.093      337.792       10.007      864.782
01/29/2015  19:37:00       31.718       37.474        1.972       32.165       29.110       19.545     1034.573      847.375      382.000        0.234        0.113       49.095       14.246        0.084      337.789       10.002      864.784
01/29/2015  19:38:00       35.799       64.549       -6.925       29.664       32.628       16.393      879.961     1064.610      268.725        0.385        0.111       73.812       15.806        0.046      337.803       10.026      864.786
01/29/2015  19:39:00       27.091       29.159        6.025       25.971       25.684       22.743      674.514      659.676      517.257        0.174        0.093       39.801       18.847        0.224      337.796       10.015      864.792
01/29/2015  19:40:00       48.856       86.271      -10.735       26.276       34.462       22.040      690.435     1187.604      485.761        0.615        0.118       99.144       22.661        0.052      337.782        9.988      864.790
01/29/2015  19:41:00       37.510       63.603      -12.238       25.620       25.410       16.450      656.383      645.645      270.615        0.359        0.079       73.840       12.488        0.029      337.773        9.970      864.782
01/29/2015  19:42:00       45.356       64.284       -1.708       34.428       34.240       30.454     1185.273     1172.363      927.432        0.474        0.164       78.674       21.709        0.076      337.774        9.973      864.775
01/29/2015  19:43:00       23.695       83.376      -12.277       45.017       55.863       22.602     2026.499     3120.642      510.831        0.666        0.283       86.678       31.084        0.129      337.763        9.955      864.773
01/29/2015  19:44:00       30.419      131.363      -25.714       28.564       35.605       16.687      815.884     1267.750      278.461        1.060        0.118      134.839       15.028        0.012      337.781        9.986      864.767
01/29/2015  19:45:00       34.325       81.416       -6.423       41.523       52.407       28.580     1724.118     2746.475      816.817        0.657        0.264       88.356       28.620        0.105      337.766        9.960      864.761
01/29/2015  19:46:00       12.888      108.574      -23.828       34.802       26.419       13.515     1211.184      697.988      182.646        0.731        0.105      109.336        9.635        0.008      337.764        9.956      864.763
01/29/2015  19:47:00       38.046       39.637        7.981       36.580       34.026       28.647     1338.129     1157.770      820.662        0.320        0.166       54.942       22.562        0.169      337.755        9.943      864.770
01/29/2015  19:48:00       38.579       51.073       -5.308       33.558       35.041       25.780     1126.130     1227.890      664.584        0.357        0.151       64.006       22.478        0.123      337.739        9.918      864.766
01/29/2015  19:49:00       24.950       70.700       -3.458       34.266       42.992       27.724     1174.155     1848.335      768.627        0.471        0.190       74.974       23.932        0.102      337.737        9.916      864.771
01/29/2015  19:50:00       26.991       55.276       -1.551       30.146       37.203       25.980      908.792     1384.052      674.969        0.338        0.148       61.514       26.732        0.189      337.737        9.916      864.774
01/29/2015  19:51:00       40.376       77.476       -3.712       40.934       46.934       29.467     1675.591     2202.825      868.292        0.620        0.237       87.365       28.220        0.104      337.745        9.927      864.776
01/29/2015  19:52:00       27.882       87.493      -17.323       31.057       30.456       15.113      964.525      927.549      228.396        0.543        0.106       91.828        9.095        0.010      337.746        9.929      864.777
01/29/2015  19:53:00       13.143       91.991      -15.521       27.535       44.555       18.531      758.161     1985.111      343.401        0.598        0.154       92.925       21.658        0.054      337.760        9.951      864.781
01/29/2015  19:54:00       -5.220       94.597      -15.692       21.409       28.783       11.421      458.347      828.482      130.445        0.532        0.071       94.741        9.970        0.011      337.771        9.967      864.787
01/29/2015  19:55:00       27.980       82.633      -14.809       26.824       41.951       22.822      719.532     1759.863      520.851        0.541        0.150       87.242       27.092        0.096      337.770        9.969      864.795
01/29/2015  19:56:00       27.907       91.485      -12.520       28.573       47.971       23.685      816.396     2301.206      560.987        0.649        0.184       95.647       26.854        0.079      337.789       10.001      864.806
01/29/2015  19:57:00       26.252       34.212        1.890       32.976       29.705       19.379     1087.433      882.380      375.551        0.210        0.117       43.123       15.818        0.135      337.780        9.984      864.820
01/29/2015  19:58:00       42.989       56.670        9.276       34.747       33.195       30.374     1207.346     1101.912      922.570        0.419        0.162       71.130       24.069        0.115      337.758        9.947      864.834
01/29/2015  19:59:00       35.954       99.405      -13.465       29.028       27.495       24.989      842.622      755.970      624.433        0.679        0.111      105.707       14.540        0.019      337.754        9.941      864.852
01/29/2015  20:00:00       38.817       67.393       -8.891       23.512       26.204       21.484      552.793      686.667      461.580        0.391        0.085       77.772       16.158        0.043      337.746        9.929      864.850
01/29/2015  20:01:00       33.666       48.774        1.367       25.360       35.186       23.726      643.139     1238.040      562.928        0.298        0.122       59.264       20.928        0.125      337.743        9.924      864.857
01/29/2015  20:02:00       59.053       39.414        2.151       29.014       18.001       17.506      841.790      324.048      306.449        0.326        0.074       70.998       10.511        0.022      337.728        9.900      864.863
01/29/2015  20:03:00       43.494       40.986       -1.453       29.982       30.353       22.717      898.902      921.277      516.055        0.295        0.117       59.763       16.376        0.075      337.742        9.922      864.870
01/29/2015  20:04:00       34.780       64.611       -4.496       45.275       34.138       25.816     2049.803     1165.430      666.482        0.464        0.194       73.378       21.839        0.089      337.736        9.914      864.874
01/29/2015  20:05:00       46.829       63.547       -2.164       27.816       37.246       22.459      773.743     1387.268      504.392        0.445        0.133       78.938       21.063        0.071      337.736        9.913      864.881
01/29/2015  20:06:00       29.783       48.610      -12.612       23.433       27.465       16.196      549.103      754.349      262.304        0.249        0.078       57.008       12.210        0.046      337.740        9.920      864.882
01/29/2015  20:07:00        0.944       69.720      -16.076       21.027       15.426        8.299      442.128      237.973       68.880        0.293        0.037       69.726        7.045        0.010      337.742        9.924      864.876
01/29/2015  20:08:00      -11.308       78.596      -17.365       14.652       25.829       10.826      214.691      667.149      117.192        0.380        0.050       79.406       11.240        0.020      337.741        9.924      864.879
01/29/2015  20:09:00       24.327       73.710      -14.853       25.867       27.779       18.279      669.100      771.675      334.129        0.401        0.089       77.621       17.476        0.051      337.728        9.901      864.888
01/29/2015  20:10:00       10.607      130.826      -29.912       24.309       39.821       15.708      590.922     1585.739      246.740        1.027        0.121      131.255       14.545        0.012      337.719        9.885      864.897
01/29/2015  20:11:00       52.351       44.780       -5.162       24.880       25.557       19.244      619.039      653.144      370.335        0.321        0.082       68.891       12.075        0.031      337.702        9.853      864.918
01/29/2015  20:12:00       15.238       58.212       -3.033       23.048       28.758       18.119      531.225      827.031      328.298        0.266        0.084       60.173       17.362        0.083      337.709        9.864      864.930
01/29/2015  20:13:00      -14.872       98.023      -19.354       12.896       18.578        9.289      166.296      345.132       86.283        0.540        0.030       99.145        8.669        0.008      337.705        9.854      864.934
01/29/2015  20:14:00        3.545      119.921      -21.765       29.604       31.429       16.274      876.419      987.779      264.828        0.850        0.106      119.973       17.381        0.021      337.745        9.925      864.943
01/29/2015  20:15:00       -0.634      124.245      -16.433       38.332       52.269       24.043     1469.367     2732.009      578.087        1.024        0.239      124.247       29.062        0.055      337.708        9.863      864.947
01/29/2015  20:16:00       15.892      116.309      -23.256       23.049       19.459       10.313      531.262      378.635      106.353        0.767        0.051      117.389        7.299        0.004      337.705        9.857      864.952
01/29/2015  20:17:00       30.510      139.654      -22.631       23.747       36.713       25.938      563.939     1347.841      672.758        1.176        0.129      142.948       24.116        0.028      337.703        9.855      864.943
01/29/2015  20:18:00       12.928       68.522       -0.992       33.288       33.536       26.889     1108.098     1124.670      723.036        0.391        0.148       69.731       26.484        0.144      337.699        9.848      864.944
01/29/2015  20:19:00       12.522       61.138      -10.777       24.653       23.876       19.683      607.773      570.055      387.409        0.279        0.078       62.407       13.360        0.046      337.690        9.831      864.939
01/29/2015  20:20:00       25.819       69.916       -5.858       24.354       32.001       16.997      593.097     1024.036      288.903        0.375        0.095       74.531       15.917        0.046      337.689        9.830      864.930
01/29/2015  20:21:00       25.866       79.397      -10.651       20.894       22.105       14.147      436.561      488.620      200.134        0.411        0.056       83.504        9.337        0.013      337.688        9.829      864.936
01/29/2015  20:22:00       33.538      117.212      -25.983       20.141       18.251       11.772      405.676      333.099      138.577        0.821        0.044      121.916        8.963        0.005      337.705        9.857      864.936
01/29/2015  20:23:00       24.878       64.056       -9.381       26.754       32.480       13.736      715.784     1054.958      188.672        0.338        0.098       68.718       12.385        0.032      337.687        9.826      864.940
01/29/2015  20:24:00        5.741       87.224       -9.004       24.689       22.935       16.161      609.539      526.029      261.174        0.456        0.070       87.412       14.182        0.026      337.700        9.848      864.933
01/29/2015  20:25:00       37.030       45.062       -0.387       24.301       37.948       21.074      590.549     1440.044      444.118        0.294        0.124       58.326       20.493        0.123      337.703        9.853      864.930
01/29/2015  20:26:00       52.260       57.561        4.202       32.317       33.287       23.534     1044.404     1108.055      553.863        0.438        0.135       77.745       19.317        0.062      337.697        9.841      864.921
01/29/2015  20:27:00       25.229       66.503       -5.657       28.109       37.359       19.365      790.138     1395.677      374.997        0.383        0.128       71.128       20.287        0.081      337.689        9.830      864.911
01/29/2015  20:28:00       44.370      124.885      -23.145       32.961       40.282       21.704     1086.398     1622.662      471.082        1.064        0.159      132.532       14.018        0.011      337.689        9.831      864.905
01/29/2015  20:29:00        0.664      119.326      -18.276       34.447       59.290       22.186     1186.625     3515.341      492.207        0.988        0.260      119.328       29.983        0.063      337.686        9.827      864.894
01/29/2015  20:30:00      -38.347      190.350      -33.913       21.184       25.405       14.102      448.753      645.420      198.858        2.007        0.065      194.175       12.109        0.004      337.682        9.821      864.881
01/29/2015  20:31:00      -57.035      136.421      -21.469       25.533       43.708       24.762      651.923     1910.420      613.170        1.275        0.159      147.863       26.558        0.032      337.769        9.969      864.876
01/29/2015  20:32:00      -58.912      154.088      -22.825       34.416       34.265       24.315     1184.466     1174.072      591.203        1.534        0.147      164.966       17.115        0.011      337.726        9.894      864.871
01/29/2015  20:33:00      -27.140      158.497      -24.310       36.434       41.395       19.749     1327.409     1713.583      390.014        1.494        0.172      160.804       12.962        0.006      337.721        9.888      864.866
01/29/2015  20:34:00      -32.146      172.955      -26.038       30.939       37.378       17.510      957.199     1397.101      306.613        1.714        0.133      175.917       12.871        0.005      337.669        9.799      864.871
01/29/2015  20:35:00      -85.466      110.727      -16.977       38.171       45.260       27.378     1456.993     2048.506      749.570        1.205        0.213      139.874       22.144        0.025      337.763        9.957      864.854
01/29/2015  20:36:00      -18.950      134.045      -17.330       37.143       48.727       24.239     1379.568     2374.318      587.531        1.148        0.217      135.377       26.846        0.039      337.748        9.931      864.854
01/29/2015  20:37:00      -61.194      173.066      -29.407       31.087       60.187       24.975      966.373     3622.495      623.775        1.989        0.261      183.567       30.618        0.028      337.619        9.715      864.855
01/29/2015  20:38:00      -73.469       40.121       -6.797       58.479       45.378       32.076     3419.852     2059.180     1028.881        0.678        0.325       83.710       30.255        0.131      337.738        9.914      864.843
01/29/2015  20:39:00       -2.372       82.966       -4.926       33.890       32.358       24.360     1148.537     1047.013      593.423        0.485        0.139       83.000       22.447        0.073      337.618        9.715      864.844
01/29/2015  20:40:00       -1.615      136.867      -20.749       27.731       32.483       17.353      769.002     1055.152      301.139        1.065        0.106      136.877       14.420        0.011      337.578        9.646      864.841
01/29/2015  20:41:00        7.081      133.977      -16.840       27.482       33.222       17.510      755.236     1103.681      306.597        1.022        0.108      134.164       18.601        0.019      337.565        9.624      864.832
01/29/2015  20:42:00       10.410      142.639      -16.636       46.634       44.072       26.836     2174.756     1942.360      720.170        1.278        0.242      143.018       24.586        0.030      337.585        9.656      864.831
01/29/2015  20:43:00       26.930       71.003      -10.148       48.967       31.405       22.673     2397.794      986.265      514.071        0.488        0.195       75.938       17.902        0.056      337.638        9.746      864.831
01/29/2015  20:44:00        4.617       42.628      -10.383       34.789       47.404       16.763     1210.272     2247.150      280.987        0.284        0.187       42.877       23.338        0.296      337.584        9.655      864.837
01/29/2015  20:45:00      -17.687       88.396      -17.585       31.159       40.490       18.086      970.891     1639.460      327.097        0.569        0.147       90.148       20.453        0.051      337.589        9.666      864.846
01/29/2015  20:46:00       22.177       32.510       -5.730       21.413       24.345       12.840      458.507      592.676      164.861        0.140        0.061       39.354        7.343        0.035      337.575        9.642      864.853
01/29/2015  20:47:00       32.486       17.343        2.259       24.792       24.257       15.233      614.647      588.421      232.053        0.140        0.072       36.826       10.344        0.079      337.566        9.624      864.858
01/29/2015  20:48:00       57.508       23.387        3.844       18.169       16.869       13.365      330.113      284.578      178.636        0.233        0.040       62.082        7.744        0.016      337.574        9.638      864.857
01/29/2015  20:49:00       59.626       48.754       23.260       21.020       21.693       30.920      441.836      470.587      956.037        0.417        0.093       77.020       17.165        0.050      337.567        9.627      864.857
01/29/2015  20:50:00       98.739       46.861       24.458       40.802       27.361       28.604     1664.819      748.612      818.204        0.789        0.162      109.295       22.759        0.043      337.546        9.593      864.862
01/29/2015  20:51:00       81.496       46.961       19.993       34.709       29.097       27.710     1204.706      846.641      767.867        0.603        0.141       94.058       18.215        0.038      337.505        9.523      864.870
01/29/2015  20:52:00       -3.524       41.500       -3.397       30.467       35.143       24.265      928.246     1235.046      588.781        0.225        0.138       41.649       20.864        0.251      337.516        9.543      864.879
01/29/2015  20:53:00        8.732       72.169      -16.283       25.059       25.520       15.425      627.952      651.249      237.938        0.353        0.076       72.695       12.190        0.028      337.524        9.559      864.884
01/29/2015  20:54:00      -33.542       57.170      -14.241       31.596       35.035       24.005      998.301     1227.461      576.225        0.370        0.140       66.283       10.908        0.027      337.562        9.621      864.883
01/29/2015  20:55:00       17.618       71.569      -16.415       27.085       34.549       14.557      733.578     1193.652      211.898        0.392        0.107       73.706       10.402        0.020      337.505        9.524      864.874
01/29/2015  20:56:00       10.863      121.883      -25.428       27.310       27.254       14.102      745.815      742.784      198.868        0.865        0.084      122.366        8.337        0.005      337.508        9.530      864.871
01/29/2015  20:57:00       20.726      133.299      -24.949       26.228       44.474       17.530      687.908     1977.906      307.300        1.090        0.149      134.900       19.430        0.021      337.502        9.517      864.869
01/29/2015  20:58:00       23.814       66.378        1.933       30.168       51.590       29.833      910.133     2661.503      889.997        0.472        0.223       70.521       32.180        0.208      337.491        9.499      864.870
01/29/2015  20:59:00       18.139       78.240      -15.095       22.934       25.052       18.393      525.972      627.620      338.310        0.408        0.075       80.315       16.245        0.041      337.494        9.503      864.871
01/29/2015  21:00:00       11.481       71.202      -10.172       23.264       37.175       17.367      541.203     1381.986      301.627        0.376        0.111       72.122       20.048        0.077      337.495        9.505      864.873
01/29/2015  21:01:00        1.848      130.187      -21.757       37.073       28.460       16.181     1374.425      809.980      261.811        0.994        0.122      130.200       10.901        0.007      337.533        9.570      864.877
01/29/2015  21:02:00       -7.242      135.919      -22.079       43.522       33.358       23.033     1894.203     1112.783      530.520        1.128        0.177      136.112       21.367        0.025      337.563        9.621      864.882
01/29/2015  21:03:00       13.404      118.199      -24.835       23.137       31.438       13.682      535.301      988.374      187.196        0.824        0.086      118.956       13.233        0.012      337.488        9.492      864.878
01/29/2015  21:04:00       24.047       62.835       -2.625       31.412       26.951       18.853      986.706      726.333      355.454        0.330        0.103       67.279       18.090        0.072      337.472        9.468      864.871
01/29/2015  21:05:00       21.353       67.252       -6.184       28.803       30.305       19.742      829.600      918.412      389.732        0.358        0.107       70.561       17.783        0.064      337.472        9.469      864.861
01/29/2015  21:06:00       22.801       47.757       -8.227       18.229       35.678       12.954      332.298     1272.892      167.803        0.232        0.089       52.921       17.010        0.103      337.469        9.463      864.855
01/29/2015  21:07:00       22.738       64.381       -9.171       26.314       37.201       12.980      692.447     1383.909      168.481        0.350        0.112       68.279       16.726        0.060      337.468        9.462      864.853
01/29/2015  21:08:00       36.123       37.995       -6.449       27.130       25.013       18.506      736.034      625.625      342.468        0.225        0.085       52.426       14.193        0.073      337.465        9.458      864.852
01/29/2015  21:09:00       23.359       23.388       -6.229       15.679       16.330       12.928      245.817      266.672      167.134        0.091        0.034       33.055        9.270        0.079      337.452        9.437      864.847
01/29/2015  21:10:00       14.755       52.688       -4.165       24.044       29.329       17.947      578.121      860.185      322.108        0.239        0.088       54.715       15.802        0.083      337.461        9.453      864.844
01/29/2015  21:11:00       17.843       55.204      -13.278       18.302       17.360       13.383      334.978      301.378      179.101        0.218        0.041       58.016       10.410        0.032      337.458        9.448      864.844
01/29/2015  21:12:00       -3.572       62.004      -14.989       11.645       11.557        7.515      135.609      133.558       56.471        0.220        0.016       62.106        6.109        0.010      337.455        9.444      864.850
01/29/2015  21:13:00      -10.937       60.905      -12.265       20.705       29.458       10.820      428.703      867.754      117.082        0.270        0.071       61.879        9.048        0.021      337.576        9.643      864.850
01/29/2015  21:14:00       -6.089       81.245      -14.737       32.466       46.750       13.392     1054.039     2185.517      179.333        0.514        0.171       81.473       16.116        0.039      337.540        9.582      864.856
01/29/2015  21:15:00      -17.728      113.510      -26.389       28.795       21.370       11.593      829.181      456.695      134.404        0.766        0.071      114.886        5.902        0.003      337.461        9.450      864.861
01/29/2015  21:16:00        5.045       81.730       -5.122       39.818       33.123       23.764     1585.436     1097.149      564.727        0.499        0.162       81.886       22.892        0.078      337.454        9.438      864.856
01/29/2015  21:17:00       10.627      120.596      -21.093       23.939       34.738       14.246      573.069     1206.695      202.957        0.854        0.099      121.063       17.738        0.021      337.445        9.423      864.853
01/29/2015  21:18:00       -2.713       85.684      -22.899       20.468       25.689       13.889      418.940      659.924      192.905        0.457        0.064       85.727       13.956        0.027      337.526        9.558      864.844
01/29/2015  21:19:00       15.885      119.819      -19.960       24.640       28.463       12.943      607.124      810.169      167.516        0.830        0.079      120.868       14.416        0.014      337.424        9.388      864.838
01/29/2015  21:20:00       12.986       89.682       -9.645       37.102       45.093       25.986     1376.581     2033.344      675.291        0.619        0.204       90.618       23.227        0.066      337.410        9.364      864.832
01/29/2015  21:21:00        9.589       64.337      -10.540       24.636       25.860       16.063      606.912      668.741      258.010        0.294        0.077       65.048       10.348        0.025      337.401        9.350      864.831
01/29/2015  21:22:00       -9.821       97.614      -21.628       23.771       22.550       14.688      565.074      508.501      215.727        0.569        0.064       98.107       13.253        0.018      337.443        9.418      864.831
01/29/2015  21:23:00      -14.851       86.833      -16.192       29.516       23.846       17.708      871.223      568.630      313.564        0.489        0.088       88.093       17.056        0.037      337.450        9.430      864.839
01/29/2015  21:24:00      -21.130      100.379      -22.438       29.118       26.774       15.437      847.872      716.864      238.311        0.641        0.090      102.579       12.236        0.014      337.509        9.531      864.847
01/29/2015  21:25:00       -2.397       89.392      -24.700       17.527       37.382       13.601      307.205     1397.404      184.984        0.525        0.094       89.424       17.594        0.039      337.438        9.410      864.850
01/29/2015  21:26:00      -22.634       79.601      -20.296       24.003       28.916       17.513      576.154      836.120      306.705        0.449        0.086       82.756       16.567        0.040      337.441        9.417      864.845
01/29/2015  21:27:00      -47.914       66.782      -13.865       22.667       31.142       16.166      513.801      969.797      261.341        0.435        0.087       82.192       12.547        0.023      337.439        9.413      864.846
01/29/2015  21:28:00      -18.493       61.945      -13.540       25.304       29.594       13.208      640.288      875.786      174.454        0.303        0.085       64.646       12.553        0.038      337.471        9.465      864.849
01/29/2015  21:29:00       -4.682       88.185      -15.391       16.024       17.752        8.812      256.779      315.143       77.659        0.434        0.032       88.309        8.076        0.008      337.386        9.327      864.849
01/29/2015  21:30:00       11.700       39.130      -11.827       16.143       19.892        8.941      260.605      395.704       79.935        0.127        0.037       40.842       11.352        0.077      337.374        9.307      864.843
01/29/2015  21:31:00       -8.237       86.466      -16.048       25.302       30.242       13.720      640.207      914.576      188.241        0.477        0.087       86.858       14.248        0.027      337.395        9.341      864.836
01/29/2015  21:32:00       -6.725      113.489      -25.524       25.752       29.772       11.047      663.191      886.352      122.027        0.762        0.084      113.688       12.525        0.012      337.378        9.309      864.840
01/29/2015  21:33:00      -20.211      102.900      -19.116       19.323       36.938       20.806      373.379     1364.403      432.909        0.677        0.109      104.866       23.248        0.049      337.431        9.398      864.830
01/29/2015  21:34:00      -51.091       86.854      -12.483       29.212       31.035       17.343      853.324      963.170      300.765        0.621        0.106      100.767       16.581        0.027      337.449        9.430      864.825
01/29/2015  21:35:00      -31.747      109.704      -18.682       26.970       38.017       20.222      727.384     1445.306      408.943        0.799        0.129      114.205       20.663        0.033      337.461        9.450      864.818
01/29/2015  21:36:00       -7.030      100.834      -12.544       25.208       29.163       13.667      635.464      850.464      186.800        0.602        0.084      101.079       10.716        0.011      337.367        9.290      864.810
01/29/2015  21:37:00       15.188      121.952      -21.917       27.143       23.246       19.012      736.719      540.357      361.448        0.861        0.082      122.895       13.589        0.012      337.339        9.246      864.806
01/29/2015  21:38:00       24.736       83.540      -13.893       22.574       44.469       19.037      509.575     1977.509      362.401        0.532        0.142       87.125       25.599        0.086      337.317        9.211      864.803
01/29/2015  21:39:00       28.742       61.612       -1.809       40.572       33.662       22.130     1646.053     1133.137      489.729        0.395        0.163       67.987       15.317        0.051      337.312        9.203      864.800
01/29/2015  21:40:00       43.723       86.526       -3.109       51.353       34.020       25.488     2637.144     1157.331      649.653        0.693        0.222       96.946       21.418        0.049      337.317        9.211      864.801
01/29/2015  21:41:00        7.704       48.781        6.574       41.111       42.189       26.801     1690.107     1779.952      718.285        0.333        0.209       49.386       23.489        0.226      337.298        9.178      864.801
01/29/2015  21:42:00       49.880      109.866      -16.293       39.954       55.662       27.632     1596.340     3098.278      763.503        1.014        0.273      120.659       29.778        0.061      337.309        9.195      864.795
01/29/2015  21:43:00       19.475       52.585        5.839       37.339       40.566       23.301     1394.229     1645.614      542.921        0.338        0.179       56.076       15.706        0.078      337.286        9.158      864.786
01/29/2015  21:44:00       33.327       70.751       -6.669       32.065       39.466       28.755     1028.186     1557.563      826.830        0.479        0.171       78.207       24.643        0.099      337.272        9.133      864.777
01/29/2015  21:45:00       20.756      118.894      -18.383       35.579       32.859       23.359     1265.897     1079.721      545.661        0.890        0.145      120.692       20.498        0.029      337.268        9.129      864.765
01/29/2015  21:46:00       10.357       50.051       -1.565       37.025       29.576       23.689     1370.814      874.739      561.165        0.271        0.140       51.111       15.801        0.096      337.252        9.104      864.767
01/29/2015  21:47:00      -10.759      121.982      -25.332       29.866       35.656       17.978      891.984     1271.340      323.194        0.906        0.124      122.455       19.433        0.025      337.293        9.168      864.763
01/29/2015  21:48:00        5.794      102.885      -23.734       22.602       39.042       16.114      510.835     1524.282      259.660        0.674        0.115      103.048       17.569        0.029      337.258        9.111      864.758
01/29/2015  21:49:00       26.346      117.855      -15.515       28.074       29.327       25.329      788.168      860.053      641.560        0.856        0.114      120.764       20.078        0.028      337.254        9.105      864.754
01/29/2015  21:50:00       15.840      138.926      -19.727       37.248       61.988       25.415     1387.450     3842.526      645.947        1.291        0.294      139.826       32.209        0.053      337.247        9.094      864.745
01/29/2015  21:51:00        3.795      195.897      -34.192       31.183       29.404       19.830      972.393      864.571      393.221        2.089        0.112      195.934       17.031        0.008      337.265        9.123      864.742
01/29/2015  21:52:00       24.248      131.884      -26.577       26.104       40.134       17.054      681.418     1610.760      290.828        1.063        0.129      134.095       14.928        0.012      337.250        9.099      864.732
01/29/2015  21:53:00       12.522      128.674      -25.402       22.874       29.374       15.386      523.204      862.849      236.742        0.949        0.081      129.282       16.591        0.016      337.274        9.136      864.729
01/29/2015  21:54:00        5.669       56.501       -6.905       21.349       26.327       15.248      455.763      693.085      232.515        0.233        0.069       56.784       12.798        0.051      337.242        9.086      864.735
01/29/2015  21:55:00       15.100       83.683      -12.285       25.253       37.508       15.225      637.704     1406.846      231.811        0.483        0.114       85.034       16.317        0.037      337.255        9.105      864.731
01/29/2015  21:56:00       11.935      141.407      -26.979       25.140       22.622       13.123      632.030      511.743      172.209        1.109        0.066      141.910       10.643        0.006      337.279        9.146      864.723
01/29/2015  21:57:00       10.681      120.300      -24.154       21.234       28.688       11.632      450.883      822.985      135.301        0.829        0.070      120.773        9.598        0.006      337.263        9.120      864.723
01/29/2015  21:58:00       12.204       99.847      -18.001       32.805       32.246       17.419     1076.140     1039.782      303.435        0.643        0.121      100.590       17.737        0.031      337.235        9.076      864.721
01/29/2015  21:59:00        2.676      168.885      -28.568       25.918       37.709       16.079      671.749     1421.971      258.547        1.585        0.118      168.906       14.169        0.007      337.295        9.173      864.723
01/29/2015  22:00:00       23.938      112.475      -13.851       28.943       21.639       16.556      837.674      468.227      274.097        0.750        0.079      114.994        8.888        0.006      337.269        9.131      864.729
01/29/2015  22:01:00       22.717       79.389       -3.828       44.510       51.357       30.451     1981.175     2637.558      927.283        0.619        0.277       82.575       29.600        0.128      337.261        9.117      864.737
01/29/2015  22:02:00       20.293      123.678      -23.365       24.892       28.951       15.596      619.605      838.153      243.225        0.898        0.085      125.332       13.509        0.012      337.280        9.146      864.743
01/29/2015  22:03:00       -4.728       96.065      -18.981       16.870       30.172       12.786      284.606      910.365      163.484        0.548        0.068       96.181       16.128        0.028      337.279        9.145      864.740
01/29/2015  22:04:00        0.998      104.417      -21.874       16.674       18.405        9.792      278.018      338.743       95.878        0.605        0.036      104.422        5.364        0.003      337.274        9.137      864.735
01/29/2015  22:05:00       -5.636       85.235      -19.625       10.423       13.490        7.646      108.639      181.980       58.460        0.402        0.017       85.421        6.387        0.006      337.261        9.118      864.727
01/29/2015  22:06:00       -7.758       83.827      -15.918        8.948       13.003        8.900       80.067      169.090       79.208        0.383        0.016       84.185        6.925        0.007      337.282        9.152      864.720
01/29/2015  22:07:00      -35.137      112.050      -24.497       20.052       25.164       12.272      402.080      633.215      150.593        0.779        0.059      117.430        9.934        0.007      337.303        9.186      864.726
01/29/2015  22:08:00      -26.359      112.579      -22.147       32.249       31.634       14.203     1039.996     1000.684      201.719        0.805        0.112      115.624       13.422        0.013      337.266        9.126      864.716
01/29/2015  22:09:00      -14.039       90.959      -16.464       24.864       30.245       16.176      618.218      914.753      261.649        0.527        0.090       92.036       13.589        0.022      337.301        9.181      864.711
01/29/2015  22:10:00      -39.134      102.374      -16.505       21.360       39.946       16.586      456.233     1595.714      275.107        0.731        0.116      109.599       20.184        0.034      337.317        9.210      864.706
01/29/2015  22:11:00      -31.996      101.283      -18.818       25.266       34.553       16.463      638.385     1193.877      271.031        0.687        0.105      106.216       16.005        0.023      337.243        9.086      864.703
01/29/2015  22:12:00      -40.699       72.384      -10.946       24.736       20.011       12.786      611.877      400.454      163.475        0.410        0.059       83.041        7.475        0.008      337.268        9.129      864.703
01/29/2015  22:13:00      -34.883      100.890      -12.465       44.457       49.570       22.422     1976.394     2457.136      502.738        0.824        0.247      106.751       23.666        0.049      337.301        9.184      864.706
01/29/2015  22:14:00      -88.450      118.396      -23.275       27.831       33.031       25.763      774.588     1091.041      663.707        1.246        0.126      147.788       17.207        0.014      337.245        9.090      864.706
01/29/2015  22:15:00      -39.693      115.652      -19.758       42.262       39.311       23.382     1786.072     1545.325      546.720        0.961        0.194      122.274       22.332        0.033      337.255        9.107      864.703
01/29/2015  22:16:00      -35.198      118.589      -20.740       22.646       38.689       21.656      512.842     1496.866      468.979        0.911        0.124      123.702       17.155        0.019      337.241        9.083      864.700
01/29/2015  22:17:00      -38.817      124.416      -19.800       25.927       38.095       18.942      672.193     1451.266      358.800        0.993        0.124      130.331       17.972        0.019      337.222        9.051      864.696
01/29/2015  22:18:00      -50.943      135.748      -20.320       34.624       33.351       21.153     1198.842     1112.305      447.467        1.210        0.138      144.992       19.775        0.019      337.227        9.059      864.690
01/29/2015  22:19:00      -55.740      146.278      -16.873       35.206       45.562       23.588     1239.464     2075.888      556.396        1.433        0.194      156.538       21.713        0.019      337.234        9.072      864.694
01/29/2015  22:20:00      -41.197      123.819      -19.871       29.957       43.288       16.850      897.420     1873.869      283.918        1.024        0.153      130.493       20.444        0.025      337.224        9.054      864.709
01/29/2015  22:21:00      -34.005      147.190      -25.242       27.793       27.372       15.391      772.477      749.221      236.880        1.261        0.088      151.067        7.414        0.002      337.227        9.059      864.710
01/29/2015  22:22:00      -31.347      156.405      -21.744       27.091       32.997       22.205      733.911     1088.778      493.047        1.412        0.116      159.515       15.155        0.009      337.181        8.982      864.707
01/29/2015  22:23:00      -37.596      139.080      -26.742       33.346       18.085       12.463     1111.955      327.085      155.338        1.153        0.080      144.072       11.066        0.006      337.214        9.037      864.709
01/29/2015  22:24:00      -38.518      119.100      -18.120       29.009       31.252       12.966      841.495      976.707      168.127        0.899        0.099      125.173        9.907        0.006      337.224        9.054      864.703
01/29/2015  22:25:00      -36.764       55.698       -6.393       28.247       35.563       17.984      797.908     1264.733      323.429        0.344        0.119       66.737       18.452        0.076      337.246        9.092      864.704
01/29/2015  22:26:00      -71.072       50.412      -14.853       27.070       21.800       14.553      732.792      475.255      211.778        0.462        0.071       87.136       12.189        0.020      337.228        9.064      864.710
01/29/2015  22:27:00      -95.946       34.918      -15.255       34.917       27.246       23.682     1219.217      742.329      560.820        0.659        0.126      102.102       26.525        0.067      337.431        9.402      864.704
01/29/2015  22:28:00     -100.987       90.023      -28.596       33.501       30.778       17.848     1122.307      947.289      318.561        1.075        0.119      135.287        8.180        0.004      337.208        9.029      864.702
01/29/2015  22:29:00      -96.278       84.918      -21.708       29.910       31.284       16.504      894.625      978.676      272.370        0.955        0.107      128.377       14.445        0.013      337.185        8.988      864.698
01/29/2015  22:30:00      -85.567       61.119      -22.664       23.746       30.887       19.193      563.889      954.027      368.355        0.673        0.094      105.153       13.968        0.018      337.250        9.096      864.694
01/29/2015  22:31:00     -100.931       76.540      -23.680       28.065       24.026       16.587      787.648      577.256      275.126        0.912        0.082      126.671        8.352        0.004      337.335        9.239      864.691
01/29/2015  22:32:00      -83.550       83.755      -28.705       21.157       37.539       14.827      447.614     1409.148      219.831        0.845        0.104      118.302       12.099        0.010      337.169        8.962      864.697
01/29/2015  22:33:00     -124.852      114.748      -34.405       20.513       30.565       16.871      420.794      934.220      284.645        1.579        0.082      169.573       12.584        0.006      337.116        8.874      864.701
01/29/2015  22:34:00     -103.975       74.732      -30.066       21.945       34.810       18.318      481.574     1211.751      335.541        0.966        0.101      128.045       16.873        0.017      337.218        9.042      864.695
01/29/2015  22:35:00      -76.613       91.791      -27.397       28.659       23.408       15.171      821.319      547.925      230.147        0.832        0.080      119.562        8.387        0.005      337.078        8.809      864.690
01/29/2015  22:36:00      -69.677       85.906      -22.001       30.643       30.377       19.137      939.019      922.775      366.234        0.747        0.111      110.611       17.139        0.024      337.106        8.856      864.684
01/29/2015  22:37:00      -60.608       68.823      -10.679       40.122       27.690       17.995     1609.748      766.718      323.807        0.561        0.135       91.705       13.693        0.022      337.124        8.886      864.689
01/29/2015  22:38:00      -54.766       82.809      -13.858       29.082       37.859       17.311      845.781     1433.338      299.684        0.631        0.129       99.280       19.335        0.038      337.158        8.943      864.689
01/29/2015  22:39:00      -41.762       72.774       -9.037       31.950       32.244       21.665     1020.823     1039.680      469.352        0.483        0.126       83.905       20.963        0.062      337.152        8.932      864.689
01/29/2015  22:40:00      -29.400      135.195      -28.483       33.200       40.372       14.938     1102.245     1629.899      223.157        1.145        0.148      138.355       10.813        0.006      337.064        8.783      864.694
01/29/2015  22:41:00      -13.233       96.770      -11.156       24.657       37.841       16.515      607.980     1431.917      272.741        0.599        0.116       97.671       16.691        0.029      337.068        8.791      864.694
01/29/2015  22:42:00       -3.119       93.262      -20.269       16.397       14.469       11.724      268.857      209.364      137.450        0.487        0.031       93.314        8.341        0.008      337.041        8.745      864.700
01/29/2015  22:43:00      -15.100       90.687      -16.207       25.216       18.849       10.160      635.847      355.303      103.220        0.490        0.055       91.935        9.587        0.011      337.012        8.699      864.703
01/29/2015  22:44:00      -25.886       98.100      -22.247       20.708       27.366        9.685      428.835      748.920       93.798        0.603        0.064      101.458       12.018        0.014      337.079        8.809      864.708
01/29/2015  22:45:00      -34.130       69.869       -5.725       27.803       35.261       20.856      773.032     1243.330      434.987        0.426        0.123       77.760       22.029        0.080      337.123        8.884      864.706
01/29/2015  22:46:00      -44.386       89.419      -13.445       25.787       20.991       16.287      664.949      440.615      265.265        0.576        0.069       99.829       15.107        0.023      337.179        8.979      864.709
01/29/2015  22:47:00      -15.895      107.494      -16.119       26.284       25.365       15.968      690.856      643.387      254.989        0.683        0.079      108.663       11.413        0.011      337.139        8.912      864.706
01/29/2015  22:48:00       -8.023      106.374      -20.062       17.496       18.728        9.299      306.100      350.753       86.479        0.626        0.037      106.676        5.747        0.003      337.036        8.739      864.705
01/29/2015  22:49:00      -23.094      127.863      -29.809       30.490       37.391       16.660      929.628     1398.114      277.555        1.019        0.130      129.932       19.265        0.022      337.096        8.837      864.702
01/29/2015  22:50:00       -7.527       94.281      -17.793       38.717       22.905       12.975     1498.968      524.647      168.361        0.573        0.110       94.581       11.779        0.016      337.024        8.719      864.699
01/29/2015  22:51:00       -9.090       78.782      -10.654       33.672       23.360       15.068     1133.821      545.713      227.055        0.415        0.095       79.305       15.119        0.036      337.025        8.721      864.707
01/29/2015  22:52:00      -26.319      112.982      -23.872       31.431       20.427       12.807      987.914      417.273      164.017        0.780        0.078      116.007        8.104        0.005      336.984        8.651      864.713
01/29/2015  22:53:00      -36.846       78.106      -13.747       30.630       39.919       22.654      938.186     1593.532      513.211        0.535        0.152       86.361       22.153        0.066      337.121        8.882      864.709
01/29/2015  22:54:00      -68.575       76.394      -14.019       27.443       26.666       14.174      753.137      711.070      200.901        0.620        0.083      102.657        9.915        0.009      337.050        8.761      864.705
01/29/2015  22:55:00      -39.954       51.883       -8.213       28.650       21.775       14.324      820.822      474.163      205.175        0.293        0.075       65.484       10.324        0.025      337.070        8.796      864.704
01/29/2015  22:56:00      -45.040       67.844       -7.263       28.606       29.825       17.017      818.295      889.517      289.571        0.434        0.100       81.434       16.105        0.039      337.070        8.795      864.703
01/29/2015  22:57:00      -46.813       80.962      -15.137       32.266       24.187       19.337     1041.087      585.032      373.903        0.549        0.100       93.522       18.317        0.038      337.013        8.701      864.699
01/29/2015  22:58:00      -17.360       40.735        0.593       28.554       38.082       16.768      815.352     1450.261      281.169        0.225        0.127       44.280       12.683        0.082      337.034        8.735      864.705
01/29/2015  22:59:00      -57.444       91.949      -13.401       33.677       27.276       16.818     1134.151      743.955      282.845        0.705        0.108      108.418       13.967        0.017      336.998        8.675      864.703
01/29/2015  23:00:00      -53.432       82.505      -15.551       22.076       60.411       19.694      487.342     3649.541      387.863        0.721        0.226       98.296       27.437        0.078      337.062        8.782      864.698
01/29/2015  23:01:00      -51.170      113.222      -18.000       25.474       31.491       16.404      648.936      991.684      269.098        0.884        0.095      124.248       15.384        0.015      337.043        8.751      864.695
01/29/2015  23:02:00      -62.287       81.300      -12.700       18.411       31.909       15.769      338.979     1018.156      248.648        0.613        0.080      102.418       14.727        0.021      337.034        8.734      864.691
01/29/2015  23:03:00      -30.616       62.758       -7.961       42.150       28.509       17.541     1776.620      812.775      307.695        0.392        0.145       69.827       13.910        0.040      337.050        8.762      864.693
01/29/2015  23:04:00      -10.660       64.149      -13.090       27.854       26.359       15.973      775.870      694.803      255.148        0.306        0.086       65.029        7.139        0.012      337.010        8.695      864.695
01/29/2015  23:05:00      -29.144       43.440       -2.139       18.865       14.155       12.685      355.882      200.357      160.921        0.173        0.036       52.311        6.493        0.015      337.066        8.789      864.698
01/29/2015  23:06:00       -8.820       32.281       -1.769       30.521       17.208       13.097      931.522      296.105      171.536        0.126        0.070       33.464       13.440        0.161      337.018        8.709      864.713
01/29/2015  23:07:00       -9.321       32.390       -5.041       13.655        9.876        8.347      186.451       97.545       69.669        0.076        0.018       33.704        6.056        0.032      336.914        8.537      864.714
01/29/2015  23:08:00       12.989       49.539       -7.145       17.403       19.617       16.543      302.879      384.812      273.666        0.182        0.048       51.213        9.157        0.032      336.890        8.496      864.715
01/29/2015  23:09:00      -33.440       56.921       -4.256       25.125       31.167       12.634      631.260      971.361      159.626        0.307        0.088       66.017       11.822        0.032      337.054        8.767      864.709
01/29/2015  23:10:00      -32.726       70.887       -5.765       23.021       31.083       13.762      529.988      966.173      189.400        0.391        0.084       78.076       11.214        0.021      337.076        8.806      864.704
01/29/2015  23:11:00      -66.950       42.672      -21.054       27.637       42.167       17.610      763.800     1778.068      310.116        0.480        0.143       79.393       10.563        0.018      336.959        8.611      864.704
01/29/2015  23:12:00      -43.279       18.925       -9.954       18.693       25.256       14.581      349.421      637.844      212.596        0.176        0.060       47.236       14.391        0.093      337.050        8.762      864.700
01/29/2015  23:13:00      -53.936       44.344       -8.298       17.891       23.039       17.750      320.103      530.818      315.066        0.305        0.058       69.825       12.542        0.032      337.047        8.756      864.704
01/29/2015  23:14:00      -60.968       23.334       -8.248       27.941       33.507       23.717      780.708     1122.708      562.508        0.340        0.123       65.281       24.747        0.144      337.145        8.921      864.699
01/29/2015  23:15:00      -79.132       58.591      -21.793       15.397       19.520       11.178      237.061      381.024      124.955        0.546        0.037       98.462        4.365        0.002      336.935        8.573      864.701
01/29/2015  23:16:00      -86.344       47.272      -19.267       14.701       15.878       13.892      216.133      252.123      192.997        0.536        0.033       98.438       11.105        0.013      336.972        8.633      864.704
01/29/2015  23:17:00      -88.365       13.641       -9.811       22.727       27.588       14.443      516.506      761.101      208.612        0.479        0.074       89.412        9.479        0.011      337.324        9.221      864.697
01/29/2015  23:18:00      -90.313       51.129      -23.077       15.925       19.069       14.725      253.612      363.619      216.825        0.607        0.042      103.782        4.946        0.002      336.966        8.622      864.695
01/29/2015  23:19:00      -85.419       44.188      -18.032       21.778       18.681       17.659      474.272      348.961      311.847        0.535        0.057       96.172       13.550        0.020      337.042        8.750      864.689
01/29/2015  23:20:00      -98.585       33.320      -25.833       18.922       24.820       15.422      358.055      616.035      237.836        0.635        0.061      104.063        6.565        0.004      337.050        8.762      864.691
01/29/2015  23:21:00      -77.907       64.446      -25.235       18.233       18.674       10.106      332.437      348.723      102.122        0.582        0.039      101.108        8.802        0.008      336.853        8.433      864.689
01/29/2015  23:22:00      -79.699       58.252      -19.378       17.698       19.338       12.887      313.216      373.941      166.074        0.549        0.043       98.718        8.215        0.007      336.924        8.553      864.694
01/29/2015  23:23:00      -12.467       53.744       -3.737       26.773       18.771       14.101      716.802      352.350      198.836        0.216        0.063       55.171       13.007        0.056      336.960        8.611      864.694
01/29/2015  23:24:00      -16.979       88.200      -16.990       24.740       28.239       12.545      612.071      797.453      157.384        0.496        0.078       89.819       12.950        0.021      336.903        8.516      864.700
01/29/2015  23:25:00       22.954      105.041      -20.658       23.090       34.303       12.965      533.136     1176.712      168.103        0.693        0.094      107.519       13.862        0.017      336.817        8.374      864.702
01/29/2015  23:26:00       12.391      126.231      -24.312       20.862       24.813       12.259      435.223      615.687      150.285        0.894        0.060      126.837       10.124        0.006      336.803        8.350      864.701
01/29/2015  23:27:00       27.111      145.822      -25.849       22.221       18.241       11.609      493.768      332.736      134.762        1.181        0.048      148.321        6.615        0.002      336.797        8.340      864.697
01/29/2015  23:28:00       -4.427      152.185      -25.914       19.567       24.386       10.223      382.858      594.658      104.500        1.247        0.054      152.250        9.469        0.004      336.769        8.295      864.697
01/29/2015  23:29:00       -0.933      143.657      -27.611       15.835       23.337        9.830      250.759      544.631       96.631        1.115        0.045      143.660       10.238        0.005      336.760        8.278      864.701
01/29/2015  23:30:00        4.633      144.011      -24.468       17.872       17.441        7.555      319.400      304.172       57.083        1.102        0.034      144.086        6.769        0.002      336.808        8.360      864.700
01/29/2015  23:31:00        3.952      143.736      -24.641       15.346       15.101        8.123      235.497      228.038       65.986        1.091        0.026      143.790        5.448        0.001      336.725        8.221      864.705
01/29/2015  23:32:00        7.700      116.383      -19.645       17.955       20.441        9.748      322.375      417.845       95.019        0.741        0.042      116.638        8.767        0.006      336.647        8.090      864.699
01/29/2015  23:33:00        9.841      134.341      -23.303       16.581       18.691        9.224      274.940      349.338       85.075        0.970        0.035      134.701        9.135        0.005      336.682        8.151      864.695
01/29/2015  23:34:00       17.828      117.783      -23.280       17.371       21.935       11.893      301.739      481.136      141.434        0.783        0.046      119.125       12.952        0.012      336.661        8.114      864.687
01/29/2015  23:35:00       -9.783      118.201      -25.075       19.674       19.937        9.307      387.072      397.491       86.614        0.778        0.044      118.605        8.747        0.005      336.659        8.112      864.685
01/29/2015  23:36:00       -6.458      133.648      -21.015       19.204       16.656        8.709      368.779      277.406       75.852        0.953        0.036      133.804        7.966        0.004      336.713        8.200      864.682
01/29/2015  23:37:00      -14.266      106.462      -13.143       16.486       16.548        9.284      271.779      273.850       86.198        0.617        0.032      107.414        8.282        0.006      336.710        8.196      864.675
01/29/2015  23:38:00      -12.371      124.653      -19.516       17.188       16.713        9.512      295.442      279.326       90.478        0.837        0.033      125.265        6.784        0.003      336.735        8.237      864.682
01/29/2015  23:39:00      -19.065      126.044      -27.312       16.535       23.062       10.539      273.401      531.839      111.078        0.896        0.046      127.478        7.839        0.004      336.770        8.296      864.680
01/29/2015  23:40:00      -17.409      129.101      -24.496       23.018       17.453       12.397      529.851      304.595      153.682        0.928        0.049      130.270        6.328        0.002      336.776        8.305      864.676
01/29/2015  23:41:00      -25.602      135.954      -28.335       15.512       30.452       12.404      240.618      927.351      153.868        1.063        0.066      138.343       10.296        0.006      336.842        8.416      864.670
01/29/2015  23:42:00      -48.530      127.820      -24.453       23.278       22.332       15.728      541.859      498.726      247.359        1.029        0.064      136.723       10.766        0.006      336.871        8.464      864.666
01/29/2015  23:43:00      -45.077      138.237      -25.469       24.181       24.590       12.787      584.698      604.674      163.514        1.157        0.068      145.401       10.966        0.006      336.813        8.368      864.663
01/29/2015  23:44:00      -40.289      108.514      -17.914       25.908       29.086       19.674      671.210      845.984      387.080        0.781        0.095      115.752       15.246        0.017      336.914        8.535      864.664
01/29/2015  23:45:00      -33.997      110.130      -21.839       19.095       28.701       17.138      364.609      823.743      293.722        0.762        0.074      115.258       17.311        0.023      336.898        8.507      864.666
01/29/2015  23:46:00      -25.840       77.916      -13.046       18.966       28.613       13.128      359.691      818.688      172.333        0.413        0.068       82.089       13.752        0.028      336.945        8.585      864.671
01/29/2015  23:47:00      -11.930      122.956      -23.049       17.450       26.684       17.358      304.499      712.054      301.291        0.855        0.066      123.533       14.116        0.013      336.895        8.503      864.663
01/29/2015  23:48:00      -32.922      130.017      -25.603       17.141       32.608       13.034      293.800     1063.299      169.888        1.009        0.076      134.121       12.260        0.008      336.909        8.527      864.654
01/29/2015  23:49:00      -43.161       86.283      -16.599       28.976       36.611       19.502      839.630     1340.378      380.325        0.607        0.128       96.476       19.262        0.040      336.971        8.630      864.648
01/29/2015  23:50:00      -29.558       80.828      -13.145       18.591       31.248       12.819      345.636      976.416      164.318        0.453        0.074       86.063        7.517        0.008      336.903        8.516      864.642
01/29/2015  23:51:00      -18.372       77.463      -13.920       23.359       23.254       12.623      545.636      540.732      159.350        0.389        0.062       79.611        9.051        0.013      336.915        8.536      864.640
01/29/2015  23:52:00      -30.081       90.769      -15.160       17.439       23.213       13.063      304.127      538.855      170.645        0.519        0.051       95.623        9.908        0.011      336.995        8.670      864.638
01/29/2015  23:53:00      -21.558       99.797      -18.588       16.031       25.418       16.421      256.982      646.052      269.638        0.597        0.059      102.099       16.296        0.025      336.870        8.461      864.632
01/29/2015  23:54:00      -17.785       82.948      -18.149       17.360       15.773        8.966      301.374      248.784       80.386        0.408        0.032       84.834        4.521        0.003      336.934        8.569      864.621
01/29/2015  23:55:00      -22.187      103.525      -23.110       15.376       22.662        9.028      236.426      513.581       81.510        0.629        0.042      105.875        3.122        0.001      336.932        8.564      864.609
01/29/2015  23:56:00      -13.243       75.874      -17.632       25.025       22.894       11.964      626.260      524.132      143.134        0.377        0.065       77.021        6.382        0.007      336.972        8.629      864.605
01/29/2015  23:57:00       -2.761       85.291      -15.126       22.066       16.008       14.084      486.889      256.251      198.354        0.423        0.047       85.336       11.195        0.017      336.901        8.513      864.600
01/29/2015  23:58:00       -7.890       76.760      -16.807       19.239       22.310       10.728      370.147      497.746      115.100        0.361        0.049       77.164        7.139        0.009      336.944        8.585      864.600
01/29/2015  23:59:00      -13.016       69.652      -12.894       15.116       26.863       14.081      228.499      721.645      198.277        0.317        0.057       70.858        7.622        0.012      336.980        8.645      864.584
